Date StartTime U_cm/s V_cm/s W_cm/s Ustd_cm/s Vstd_cm/s Wstd_cm/s Uvar_(cm/s)^2 Vvar_(cm/s)^2 Wvar_(cm/s)^2 KE_(m/s)^2 TurbulentKE_(m/s)^2 HorizWindSpeed_cm/s FrictionSpeec_cm/s DragCoef SpeedOfSound_m/s SonicTemperature_C Pressure_mb 
04/30/2013  00:00:00     -207.363      349.973      -48.176      118.519      136.405       70.974    14046.749    18606.357     5037.336       10.274        1.885      406.793       69.997        0.030      340.137       13.945      857.207
04/30/2013  00:01:00     -236.247      324.177      -51.334      110.439      114.543       84.599    12196.697    13120.062     7157.066        9.800        1.624      401.128       72.374        0.033      340.123       13.922      857.217
04/30/2013  00:02:00     -121.540      298.648      -31.183      101.235      141.724       76.912    10248.567    20085.706     5915.390        7.059        1.812      322.433       73.871        0.052      340.129       13.934      857.217
04/30/2013  00:03:00     -174.604      255.955      -35.130      115.507      147.208       65.887    13341.892    21670.334     4341.031        6.829        1.968      309.838       65.491        0.045      340.126       13.928      857.237
04/30/2013  00:04:00     -146.963      308.359      -43.312      104.311      197.333       62.785    10880.859    38940.225     3941.951        8.615        2.688      341.589       70.341        0.042      340.099       13.884      857.229
04/30/2013  00:05:00     -276.569      277.007      -56.011      150.297      183.259       78.066    22589.180    33583.752     6094.233       10.930        3.113      391.438       89.751        0.053      340.078       13.848      857.241
04/30/2013  00:06:00     -208.053      197.247      -36.117      119.064       89.714       64.521    14176.282     8048.574     4162.956        5.494        1.319      286.692       42.067        0.022      340.081       13.852      857.219
04/30/2013  00:07:00     -151.070      154.441      -24.071      138.166      157.102       71.985    19089.847    24680.915     5181.904        4.809        2.448      216.041       76.139        0.124      340.103       13.890      857.246
04/30/2013  00:08:00     -239.550      200.633      -41.379      101.915      109.101       65.832    10386.611    11903.064     4333.808        6.298        1.331      312.470       57.941        0.034      340.087       13.862      857.245
04/30/2013  00:09:00     -176.406      236.777      -35.078      109.809      158.657       64.839    12058.018    25171.945     4204.147        6.492        2.072      295.267       72.958        0.061      340.060       13.818      857.252
04/30/2013  00:10:00     -240.720      309.111      -55.257      142.345      152.066       87.945    20262.082    23124.081     7734.307       10.382        2.556      391.785       93.045        0.056      340.059       13.815      857.259
04/30/2013  00:11:00     -186.814      254.977      -38.474       99.681      144.673       67.067     9936.384    20930.134     4497.945        6.837        1.768      316.090       68.371        0.047      340.052       13.803      857.244
04/30/2013  00:12:00     -207.939      300.802      -46.730      131.437      151.884       75.168    17275.631    23068.770     5650.212        9.094        2.300      365.678       68.482        0.035      340.054       13.807      857.270
04/30/2013  00:13:00     -187.420      328.002      -44.661      121.434      132.328       74.194    14746.115    17510.789     5504.727        9.123        1.888      377.772       80.334        0.045      340.041       13.783      857.262
04/30/2013  00:14:00     -189.716      215.544      -42.824      111.277       85.743       64.946    12382.509     7351.805     4217.973        5.411        1.198      287.144       74.469        0.067      340.027       13.760      857.238
04/30/2013  00:15:00     -130.841      310.644      -32.797       85.462      163.075       70.655     7303.785    26593.606     4992.171        7.678        1.944      337.074       62.608        0.034      340.008       13.727      857.224
04/30/2013  00:16:00     -149.561      168.759      -26.841      104.145       99.153       48.879    10846.215     9831.260     2389.167        3.731        1.153      225.495       44.650        0.039      340.026       13.760      857.208
04/30/2013  00:17:00     -199.997      193.144      -35.330      100.624      110.575       61.301    10125.101    12226.798     3757.798        5.233        1.305      278.035       65.666        0.056      340.018       13.745      857.222
04/30/2013  00:18:00     -102.557      188.151      -25.230       74.336      105.359       47.775     5525.898    11100.562     2282.487        3.273        0.945      214.286       46.376        0.047      340.036       13.776      857.213
04/30/2013  00:19:00     -221.247      276.630      -47.745      113.362      106.473       76.623    12850.897    11336.475     5871.118        7.890        1.503      354.224       72.648        0.042      340.021       13.750      857.208
04/30/2013  00:20:00     -136.011      276.207      -32.098       93.005      113.150       52.521     8650.005    12802.893     2758.494        6.001        1.211      307.878       45.470        0.022      339.984       13.687      857.229
04/30/2013  00:21:00     -116.466      166.410      -20.607       82.747      120.335       47.006     6847.048    14480.512     2209.522        3.260        1.177      203.117       46.012        0.051      339.984       13.690      857.254
04/30/2013  00:22:00     -157.646      210.134      -22.853       91.791      113.971       65.706     8425.524    12989.428     4317.287        4.763        1.287      262.695       58.625        0.050      339.970       13.666      857.273
04/30/2013  00:23:00     -130.552      182.831      -12.693      113.287      118.965       69.531    12834.006    14152.706     4834.571        4.122        1.591      224.657       70.142        0.097      339.965       13.658      857.288
04/30/2013  00:24:00     -148.904      197.519      -25.015      105.108       76.850       56.347    11047.727     5905.888     3175.009        4.097        1.006      247.358       53.081        0.046      339.917       13.575      857.322
04/30/2013  00:25:00     -187.966      364.126      -53.813       99.494      106.426       74.530     9899.008    11326.445     5554.768        9.879        1.339      409.779       66.309        0.026      339.914       13.572      857.320
04/30/2013  00:26:00     -172.067      203.290      -33.930      114.498      135.882       67.321    13109.780    18464.015     4532.095        5.409        1.805      266.334       74.249        0.078      339.885       13.522      857.320
04/30/2013  00:27:00     -121.580      247.931      -25.034       82.340      133.421       53.524     6779.906    17801.193     2864.846        5.216        1.372      276.137       50.159        0.033      339.848       13.458      857.341
04/30/2013  00:28:00     -179.626      251.689      -28.876       81.459      156.701       55.145     6635.633    24555.324     3040.976        6.533        1.712      309.213       57.232        0.034      339.840       13.446      857.348
04/30/2013  00:29:00     -257.153      252.809      -51.748       92.193      117.220       68.117     8499.560    13740.478     4639.858        7.979        1.344      360.611       67.931        0.035      339.792       13.366      857.364
04/30/2013  00:30:00     -260.892      244.559      -43.758      139.849      128.953       61.619    19557.683    16628.970     3796.909        8.488        1.999      357.594       61.465        0.030      339.755       13.304      857.374
04/30/2013  00:31:00     -186.288      160.287      -23.479       79.047       72.097       56.529     6248.375     5197.934     3195.475        3.779        0.732      245.754       45.576        0.034      339.757       13.307      857.379
04/30/2013  00:32:00     -132.768      150.460      -35.866       62.040       91.425       44.624     3848.957     8358.512     1991.336        2.787        0.710      200.662       42.094        0.044      339.748       13.293      857.376
04/30/2013  00:33:00     -155.296      137.264      -24.405       91.755       94.049       54.029     8418.970     8845.157     2919.080        3.186        1.009      207.264       50.677        0.060      339.741       13.281      857.383
04/30/2013  00:34:00     -237.714      251.503      -53.320       87.336      116.164       61.798     7627.614    13493.982     3819.030        7.377        1.247      346.066       54.569        0.025      339.699       13.208      857.387
04/30/2013  00:35:00     -210.453      268.201      -43.725      112.691      119.350       68.160    12699.367    14244.478     4645.818        7.486        1.579      340.914       62.019        0.033      339.682       13.178      857.375
04/30/2013  00:36:00     -119.159      216.621      -42.584      104.762      110.614       60.506    10974.977    12235.518     3661.016        4.490        1.344      247.232       70.995        0.082      339.656       13.135      857.355
04/30/2013  00:37:00     -229.630      284.697      -42.739      123.648      150.901       64.525    15288.893    22771.244     4163.508        8.891        2.111      365.762       65.911        0.032      339.625       13.084      857.372
04/30/2013  00:38:00     -210.562      314.623      -46.954       95.497      120.196       62.938     9119.651    14447.022     3961.135        8.652        1.376      378.581       62.965        0.028      339.593       13.028      857.369
04/30/2013  00:39:00     -187.748      267.041      -30.072       92.143      133.488       67.594     8490.282    17819.122     4568.899        6.917        1.544      326.435       67.319        0.043      339.581       13.010      857.353
04/30/2013  00:40:00     -233.215      417.394      -60.432       86.801      127.920       69.188     7534.358    16363.589     4786.958       13.047        1.434      478.129       63.020        0.017      339.530       12.922      857.351
04/30/2013  00:41:00     -222.297      246.207      -47.679      110.206      100.359       77.120    12145.453    10071.901     5947.481        7.023        1.408      331.714       68.697        0.043      339.532       12.925      857.329
04/30/2013  00:42:00     -161.145      300.141      -34.851       93.671      113.163       59.040     8774.226    12805.822     3485.726        7.116        1.253      340.665       48.686        0.020      339.506       12.881      857.295
04/30/2013  00:43:00     -200.149      267.939      -45.467      115.542      141.973       78.233    13349.920    20156.212     6120.325        7.676        1.981      334.441       79.657        0.057      339.536       12.933      857.284
04/30/2013  00:44:00     -161.187      341.215      -38.745       89.946      147.696       61.946     8090.229    21814.243     3837.348        8.882        1.687      377.371       47.860        0.016      339.540       12.941      857.263
04/30/2013  00:45:00     -200.276      277.108      -38.349      110.557      157.772       80.189    12222.847    24892.006     6430.300        8.095        2.177      341.905       71.024        0.043      339.557       12.968      857.253
04/30/2013  00:46:00     -283.730      365.071      -66.121      111.966      177.608       70.867    12536.325    31544.495     5022.093       13.362        2.455      462.363       70.895        0.024      339.566       12.983      857.288
04/30/2013  00:47:00     -274.670      341.030      -65.104      118.917      132.359       75.961    14141.238    17518.776     5770.074       11.670        1.872      437.887       77.818        0.032      339.587       13.020      857.312
04/30/2013  00:48:00     -247.611      298.678      -61.006      126.491      141.593       67.256    15999.989    20048.575     4523.404        9.740        2.029      387.969       58.255        0.023      339.557       12.969      857.324
04/30/2013  00:49:00     -213.177      275.199      -54.531      120.419      134.556       80.853    14500.838    18105.375     6537.130        8.164        1.957      348.108       80.537        0.054      339.568       12.987      857.313
04/30/2013  00:50:00     -168.938      254.129      -39.758      128.318      132.800       83.886    16465.625    17635.796     7036.853        6.791        2.057      305.159       88.143        0.083      339.567       12.986      857.300
04/30/2013  00:51:00     -212.035      307.113      -54.845      134.284      191.182       75.248    18032.231    36550.568     5662.264       10.125        3.012      373.198       81.697        0.048      339.592       13.029      857.303
04/30/2013  00:52:00     -230.412      255.836      -51.327      137.463      144.716       69.151    18896.213    20942.680     4781.794        8.289        2.231      344.299       83.234        0.058      339.579       13.005      857.301
04/30/2013  00:53:00     -221.454      312.656      -49.550      111.869      115.027       80.371    12514.728    13231.132     6459.567        9.072        1.610      383.139       60.582        0.025      339.543       12.947      857.276
04/30/2013  00:54:00     -172.553      301.550      -27.777      104.477      164.526       70.098    10915.442    27068.867     4913.714        8.218        2.145      347.430       70.306        0.041      339.546       12.951      857.278
04/30/2013  00:55:00     -245.298      316.642      -54.170      153.966      155.343       84.026    23705.587    24131.570     7060.306       10.912        2.745      400.541       93.816        0.055      339.490       12.855      857.275
04/30/2013  00:56:00     -195.775      325.963      -53.335       95.939      126.887       60.521     9204.357    16100.196     3662.807        8.819        1.448      380.236       54.734        0.021      339.489       12.855      857.290
04/30/2013  00:57:00     -138.512      205.758      -34.568      110.527       93.668       54.943    12216.196     8773.732     3018.683        4.336        1.200      248.036       57.771        0.054      339.497       12.865      857.317
04/30/2013  00:58:00     -261.951      283.321      -65.706      112.182       93.286       63.635    12584.881     8702.246     4049.418        8.927        1.267      385.861       63.814        0.027      339.451       12.790      857.317
04/30/2013  00:59:00     -213.098      184.918      -33.704      111.748       93.757       60.264    12487.659     8790.377     3631.773        5.282        1.245      282.144       63.000        0.050      339.424       12.744      857.305
04/30/2013  01:00:00     -195.763      201.299      -35.861      143.022      116.036       77.831    20455.189    13464.407     6057.588        6.005        1.999      280.792       83.646        0.089      339.446       12.782      857.260
04/30/2013  01:01:00     -184.625      197.801      -37.151      104.994       96.181       56.601    11023.750     9250.843     3203.676        4.903        1.174      270.576       59.189        0.048      339.432       12.759      857.248
04/30/2013  01:02:00     -181.670      346.229      -43.639      128.830      182.708       76.281    16597.138    33382.207     5818.734       10.528        2.790      390.997       90.786        0.054      339.438       12.767      857.260
04/30/2013  01:03:00     -279.550      340.425      -70.759      102.546      137.393       69.527    10515.733    18876.927     4833.941       11.663        1.711      440.497       57.266        0.017      339.453       12.792      857.275
04/30/2013  01:04:00     -228.973      275.636      -56.691       96.744       83.645       53.963     9359.348     6996.439     2911.986        7.544        0.963      358.335       52.855        0.022      339.445       12.779      857.278
04/30/2013  01:05:00     -189.273      266.271      -42.672      137.452       90.201       69.280    18892.948     8136.148     4799.744        7.018        1.591      326.687       62.668        0.037      339.412       12.724      857.281
04/30/2013  01:06:00     -221.455      202.753      -43.309      125.451      146.093       70.552    15738.069    21343.038     4977.530        6.703        2.103      300.251       61.397        0.042      339.489       12.855      857.266
04/30/2013  01:07:00     -249.136       34.131      -36.287      157.793       84.957       50.313    24898.777     7217.645     2531.352        4.959        1.732      251.463       64.836        0.066      339.466       12.817      857.236
04/30/2013  01:08:00     -129.069       59.022        3.127       66.967       92.368       49.750     4484.558     8531.765     2475.069        1.782        0.775      141.924       42.834        0.091      339.428       12.754      857.222
04/30/2013  01:09:00     -164.328       88.963      -25.858       64.925       79.763       38.588     4215.255     6362.144     1488.997        2.382        0.603      186.864       26.616        0.020      339.392       12.691      857.226
04/30/2013  01:10:00      -28.409      113.095        5.340       77.289      165.153       48.883     5973.555    27275.668     2389.574        2.463        1.782      116.609       62.650        0.289      339.359       12.637      857.211
04/30/2013  01:11:00     -130.835      179.477      -31.594       72.604       73.729       43.873     5271.273     5435.995     1924.849        3.148        0.632      222.103       46.351        0.044      339.313       12.557      857.230
04/30/2013  01:12:00      -83.857      130.022      -11.712       67.337       99.542       45.952     4534.258     9908.648     2111.566        2.031        0.828      154.719       35.233        0.052      339.334       12.593      857.194
04/30/2013  01:13:00     -144.753      106.938       -6.502      116.470       91.100       56.948    13565.182     8299.235     3243.067        2.876        1.255      179.970       59.933        0.111      339.314       12.561      857.207
04/30/2013  01:14:00     -157.301      149.465      -36.250       68.438      118.757       51.911     4683.759    14103.160     2694.715        3.494        1.074      216.987       47.043        0.047      339.315       12.562      857.212
04/30/2013  01:15:00     -137.303       73.895      -34.402       75.732       77.893       48.518     5735.361     6067.270     2353.957        1.982        0.708      155.924       35.889        0.053      339.316       12.563      857.201
04/30/2013  01:16:00     -118.016       89.473      -21.301       62.761       80.093       47.738     3938.942     6414.824     2278.924        1.751        0.632      148.098       43.896        0.088      339.280       12.503      857.204
04/30/2013  01:17:00      -43.446       12.353        3.426       50.107       35.937       32.035     2510.744     1291.471     1026.263        0.344        0.241       45.168       17.059        0.143      339.319       12.569      857.206
04/30/2013  01:18:00      -78.413      166.450      -17.600       64.850       64.739       46.926     4205.484     4191.127     2202.021        2.238        0.530      183.995       48.891        0.071      339.214       12.391      857.201
04/30/2013  01:19:00     -104.183      197.479      -18.460       60.645      100.870       46.964     3677.852    10174.707     2205.645        3.312        0.803      223.276       40.158        0.032      339.119       12.232      857.183
04/30/2013  01:20:00     -141.179       60.002      -14.571       70.950       50.665       39.125     5033.883     2566.976     1530.790        1.644        0.457      153.401       32.883        0.046      339.211       12.388      857.191
04/30/2013  01:21:00     -127.878      134.388      -27.280       60.659       69.042       46.298     3679.491     4766.856     2143.549        2.287        0.529      185.508       42.173        0.052      339.132       12.253      857.199
04/30/2013  01:22:00      -76.574      164.591       -4.508       51.836       82.456       36.357     2687.020     6799.001     1321.799        2.189        0.540      181.532       30.928        0.029      339.138       12.264      857.197
04/30/2013  01:23:00     -133.417       46.540      -18.903       29.265       44.516       26.975      856.425     1981.644      727.676        1.194        0.178      141.301       15.775        0.012      339.190       12.354      857.197
04/30/2013  01:24:00     -165.930      161.180      -28.190       77.350      109.270       54.632     5983.100    11939.912     2984.621        3.760        1.045      231.327       55.476        0.058      339.152       12.287      857.220
04/30/2013  01:25:00     -150.045       88.754      -25.857       84.941       72.752       41.160     7214.962     5292.870     1694.150        2.263        0.710      174.329       31.289        0.032      339.114       12.223      857.238
04/30/2013  01:26:00     -117.396       52.387      -21.514       38.118       55.266       24.898     1452.970     3054.351      619.889        1.106        0.256      128.554       25.518        0.039      339.090       12.183      857.241
04/30/2013  01:27:00      -70.483       24.238        1.261       56.274       54.743       35.908     3166.787     2996.757     1289.350        0.650        0.373       74.534       30.127        0.163      339.103       12.207      857.225
04/30/2013  01:28:00     -103.160      152.433      -23.404       70.927       63.418       39.303     5030.654     4021.865     1544.693        2.251        0.530      184.059       33.173        0.032      339.097       12.196      857.215
04/30/2013  01:29:00     -105.583      139.270      -17.252       40.928       64.694       37.938     1675.110     4185.273     1439.254        1.907        0.365      174.768       32.202        0.034      339.063       12.138      857.225
04/30/2013  01:30:00      -97.940       69.014      -18.361       81.144       52.087       35.002     6584.282     2713.107     1225.167        1.261        0.526      119.813       41.922        0.122      339.138       12.264      857.216
04/30/2013  01:31:00     -171.884      131.413      -38.160       53.078       64.647       34.913     2817.302     4179.299     1218.909        2.824        0.411      216.364       31.934        0.022      339.150       12.284      857.219
04/30/2013  01:32:00      -89.759       85.786       -7.221       65.323       70.932       40.590     4267.109     5031.375     1647.540        1.320        0.547      124.161       41.120        0.110      339.096       12.195      857.226
04/30/2013  01:33:00     -119.624      111.786      -29.871      108.701       73.329       46.232    11815.898     5377.213     2137.403        2.351        0.967      163.725       60.360        0.136      339.116       12.225      857.210
04/30/2013  01:34:00      -85.062       89.514      -15.266       64.427       66.889       33.697     4150.880     4474.098     1135.513        1.262        0.488      123.484       22.520        0.033      339.096       12.195      857.215
04/30/2013  01:35:00     -117.204       73.649      -17.993       83.642       52.553       39.276     6996.056     2761.825     1542.620        1.539        0.565      138.423       44.117        0.102      339.087       12.179      857.217
04/30/2013  01:36:00      -99.373       70.440      -12.145       57.652       80.600       34.655     3323.760     6496.382     1200.984        1.300        0.551      121.807       31.654        0.068      339.124       12.243      857.206
04/30/2013  01:37:00      -66.729        7.578       -7.510       40.058       43.059       28.632     1604.677     1854.106      819.783        0.442        0.214       67.158       24.811        0.136      339.174       12.327      857.203
04/30/2013  01:38:00      -69.041       39.660      -17.905       39.181       88.907       25.923     1535.146     7904.366      671.997        0.838        0.506       79.621       34.769        0.191      339.161       12.303      857.208
04/30/2013  01:39:00      -60.998      121.778      -11.311       68.253       64.053       44.448     4658.533     4102.802     1975.659        1.471        0.537      136.201       41.106        0.091      339.180       12.336      857.203
04/30/2013  01:40:00      -79.815      181.295       -8.876       88.570       92.594       53.257     7844.650     8573.620     2836.280        2.928        0.963      198.086       48.571        0.060      339.134       12.258      857.212
04/30/2013  01:41:00      -87.758      104.712       -4.930       53.412       70.641       39.506     2852.889     4990.104     1560.746        1.405        0.470      136.623       38.475        0.079      339.165       12.311      857.187
04/30/2013  01:42:00      -56.292      116.620      -20.016       51.235       44.829       27.419     2625.001     2009.598      751.819        1.128        0.269      129.495       28.122        0.047      339.193       12.357      857.163
04/30/2013  01:43:00      -83.063      113.500      -15.399       55.754       69.681       29.068     3108.483     4855.457      844.938        1.441        0.440      140.647       33.528        0.057      339.143       12.273      857.134
04/30/2013  01:44:00      -89.318      118.135       -9.403       54.979       74.962       44.004     3022.736     5619.230     1936.378        1.630        0.529      148.100       47.855        0.104      339.147       12.280      857.121
04/30/2013  01:45:00     -119.711      160.035      -20.496       63.088       56.993       45.697     3980.076     3248.234     2088.212        2.484        0.466      199.855       36.126        0.033      339.093       12.189      857.104
04/30/2013  01:46:00      -81.993       84.861       -5.614       93.280       75.127       37.212     8701.224     5644.051     1384.750        1.484        0.787      118.001       40.680        0.119      339.134       12.257      857.088
04/30/2013  01:47:00      -71.469       25.673        4.902       43.492       33.715       24.048     1891.531     1136.697      578.327        0.470        0.180       75.940       18.525        0.060      339.146       12.279      857.077
04/30/2013  01:48:00      -48.174       48.848       -7.390       35.363       44.413       27.473     1250.549     1972.506      754.743        0.437        0.199       68.607       18.879        0.076      339.175       12.329      857.078
04/30/2013  01:49:00      -95.125       92.693      -29.036       20.219       34.589       17.925      408.816     1196.416      321.313        1.020        0.096      132.818       12.136        0.008      339.203       12.377      857.082
04/30/2013  01:50:00      -94.095       74.243      -26.333       31.108       33.554       21.826      967.690     1125.877      476.386        0.881        0.128      119.858       18.720        0.024      339.160       12.304      857.089
04/30/2013  01:51:00     -116.224       12.915      -18.845       33.515       36.290       24.443     1123.279     1316.987      597.456        0.853        0.152      116.939       10.744        0.008      339.224       12.410      857.089
04/30/2013  01:52:00     -149.419      -74.968      -14.754       75.574       53.268       32.578     5711.503     2837.508     1061.341        1.889        0.481      167.171       24.347        0.021      339.122       12.238      857.081
04/30/2013  01:53:00     -161.675      -27.903       -4.765       68.699       55.090       36.825     4719.544     3034.881     1356.044        1.802        0.456      164.065       31.792        0.038      339.053       12.122      857.086
04/30/2013  01:54:00      -97.409      -41.129      -11.552       57.755       34.483       29.033     3335.612     1189.075      842.898        0.834        0.268      105.736       20.025        0.036      339.060       12.134      857.103
04/30/2013  01:55:00      -68.347       25.218        2.169       46.666       35.449       33.913     2177.744     1256.663     1150.079        0.495        0.229       72.851       32.299        0.197      339.041       12.102      857.109
04/30/2013  01:56:00      -46.154        2.992       -1.844       42.342       30.097       19.512     1792.814      905.803      380.733        0.261        0.154       46.251       17.449        0.142      339.075       12.161      857.098
04/30/2013  01:57:00     -106.505      -49.607       -3.774       64.545       48.558       28.267     4165.993     2357.924      799.039        1.057        0.366      117.491       25.584        0.047      339.077       12.162      857.083
04/30/2013  01:58:00      -90.337      -33.681      -13.044       69.013       56.268       30.765     4762.739     3166.055      946.473        0.917        0.444       96.412       31.989        0.110      339.030       12.085      857.068
04/30/2013  01:59:00      -86.775       19.971       -2.399       76.899       65.206       31.264     5913.382     4251.850      977.429        0.954        0.557       89.044       21.990        0.061      339.011       12.052      857.086
04/30/2013  02:00:00     -169.428      -43.785      -10.851       72.391       63.580       33.694     5240.397     4042.443     1135.297        2.058        0.521      174.994       28.808        0.027      339.084       12.174      857.074
04/30/2013  02:01:00     -126.968       22.839       -2.481       75.882       93.034       41.002     5758.035     8655.251     1681.183        1.637        0.805      129.006       37.471        0.084      339.062       12.137      857.073
04/30/2013  02:02:00      -70.909       37.058      -15.589       61.008       35.586       26.616     3722.033     1266.386      708.413        0.617        0.285       80.009       23.277        0.085      339.065       12.142      857.061
04/30/2013  02:03:00     -137.781       30.814      -20.128       73.757       35.800       32.981     5440.061     1281.633     1087.759        1.407        0.390      141.185       29.143        0.043      339.075       12.159      857.054
04/30/2013  02:04:00     -117.935       78.492      -24.546       40.647       64.775       32.745     1652.142     4195.806     1072.233        1.379        0.346      141.668       20.246        0.020      339.022       12.069      857.047
04/30/2013  02:05:00     -165.011      150.773      -42.829       39.032       51.476       36.644     1523.508     2649.754     1342.802        2.865        0.276      223.520       23.637        0.011      339.008       12.044      857.065
04/30/2013  02:06:00     -117.029      110.255       11.094      108.695      132.427       68.793    11814.622    17536.972     4732.506        3.002        1.704      160.785       60.262        0.140      339.096       12.193      857.061
04/30/2013  02:07:00     -132.480      -29.822       -7.427      109.257       78.859       59.937    11937.123     6218.804     3592.435        2.012        1.087      135.796       62.947        0.215      339.103       12.205      857.034
04/30/2013  02:08:00     -151.802       93.483      -27.362       54.805       57.127       40.640     3003.595     3263.451     1651.614        2.022        0.396      178.278       22.638        0.016      339.059       12.131      857.062
04/30/2013  02:09:00     -136.613       96.343      -32.215       50.000       68.863       30.211     2500.028     4742.175      912.733        1.857        0.408      167.168       22.053        0.017      339.010       12.050      857.076
04/30/2013  02:10:00      -89.549       81.156      -15.718       63.503      104.919       38.906     4032.666    11008.055     1513.676        1.570        0.828      120.853       41.057        0.115      338.979       12.000      857.101
04/30/2013  02:11:00     -130.793      -31.185      -12.118       80.822       48.585       29.124     6532.190     2360.503      848.198        1.398        0.487      134.459       29.811        0.049      339.023       12.072      857.098
04/30/2013  02:12:00     -172.167       15.781      -25.659       92.324      102.589       47.675     8523.795    10524.424     2272.879        2.593        1.066      172.889       41.028        0.056      339.007       12.044      857.117
04/30/2013  02:13:00      -48.914       14.596      -10.842       62.773       77.884       35.743     3940.474     6065.916     1277.577        0.700        0.564       51.045       34.547        0.458      339.018       12.064      857.148
04/30/2013  02:14:00     -103.993      127.756      -23.109       57.878       77.806       40.489     3349.909     6053.702     1639.378        1.935        0.552      164.730       47.507        0.083      338.963       11.970      857.176
04/30/2013  02:15:00     -111.946      124.717      -23.756       34.663       58.087       34.311     1201.497     3374.114     1177.257        1.720        0.288      167.589       25.395        0.023      338.915       11.889      857.172
04/30/2013  02:16:00     -203.333       77.619      -38.923       72.745       56.502       42.535     5291.779     3192.509     1809.237        2.959        0.515      217.644       32.606        0.022      338.994       12.020      857.193
04/30/2013  02:17:00     -242.281       60.261      -26.934       72.709       59.104       37.253     5286.650     3493.262     1387.751        3.661        0.508      249.663       36.828        0.022      338.959       11.963      857.181
04/30/2013  02:18:00     -107.349      -12.063       15.462       74.710       65.150       37.045     5581.651     4244.510     1372.297        1.155        0.560      108.024       37.006        0.117      339.007       12.046      857.169
04/30/2013  02:19:00     -119.775       76.140      -19.951       63.509       92.576       38.209     4033.346     8570.273     1459.952        1.730        0.703      141.928       37.465        0.070      338.971       11.985      857.180
04/30/2013  02:20:00      -69.182       16.819      -15.360       45.215       47.148       37.406     2044.418     2222.914     1399.237        0.548        0.283       71.197       20.228        0.081      338.922       11.903      857.204
04/30/2013  02:21:00     -156.617       46.976      -22.191      104.350      110.586       48.622    10888.819    12229.366     2364.090        2.635        1.274      163.510       51.281        0.098      338.918       11.894      857.203
04/30/2013  02:22:00      -50.449       45.706       -6.181       82.483       62.813       41.151     6803.461     3945.447     1693.386        0.855        0.622       68.074       37.567        0.305      338.921       11.901      857.209
04/30/2013  02:23:00      -79.961       40.869      -23.158      112.694      118.136       63.936    12699.845    13956.118     4087.751        1.967        1.537       89.800       75.771        0.712      338.966       11.975      857.195
04/30/2013  02:24:00     -130.332       44.997      -20.584       65.725       83.875       37.088     4319.763     7034.955     1375.525        1.608        0.637      137.881       31.244        0.051      338.931       11.916      857.175
04/30/2013  02:25:00     -145.989       32.220      -14.352       80.761       98.936       56.835     6522.294     9788.257     3230.236        2.104        0.977      149.502       46.744        0.098      338.971       11.984      857.180
04/30/2013  02:26:00     -114.063      106.869      -17.760      147.773      132.065       63.108    21836.773    17441.110     3982.650        3.400        2.163      156.305       94.167        0.363      338.999       12.031      857.176
04/30/2013  02:27:00     -106.180       85.209      -11.008       71.872       89.933       43.759     5165.534     8087.965     1914.883        1.691        0.758      136.143       33.238        0.060      338.990       12.016      857.170
04/30/2013  02:28:00      -48.065       51.127      -15.895       59.475       75.586       38.517     3537.244     5713.296     1483.573        0.795        0.537       70.173       21.447        0.093      338.991       12.019      857.176
04/30/2013  02:29:00     -131.460      126.303      -30.595       87.384       95.657       40.777     7635.877     9150.306     1662.780        2.631        0.922      182.302       36.889        0.041      339.001       12.033      857.170
04/30/2013  02:30:00     -109.675       37.781      -18.681       85.534       72.955       46.548     7316.052     5322.496     2166.698        1.430        0.740      116.000       36.089        0.097      339.072       12.156      857.154
04/30/2013  02:31:00     -157.661       17.746       -9.249       84.713       86.654       62.397     7176.339     7508.941     3893.398        2.191        0.929      158.656       50.486        0.101      339.094       12.190      857.138
04/30/2013  02:32:00     -190.488       83.909      -24.675      109.421      104.652       51.898    11973.014    10952.099     2693.453        3.477        1.281      208.150       51.424        0.061      339.047       12.112      857.148
04/30/2013  02:33:00     -168.843       68.322      -26.707      100.305      112.617       57.869    10061.178    12682.513     3348.867        2.999        1.305      182.143       47.348        0.068      339.063       12.138      857.153
04/30/2013  02:34:00     -136.883       90.833      -24.756       67.018      101.821       53.181     4491.445    10367.500     2828.205        2.264        0.884      164.279       45.891        0.078      339.078       12.162      857.165
04/30/2013  02:35:00     -138.038       22.811      -27.742       64.415       89.000       38.958     4149.268     7920.913     1517.729        1.696        0.679      139.910       29.056        0.043      339.080       12.168      857.185
04/30/2013  02:36:00     -104.349       67.970       -2.289       96.389       89.475       39.820     9290.849     8005.799     1585.636        1.719        0.944      124.534       43.320        0.121      339.075       12.158      857.199
04/30/2013  02:37:00     -122.150       98.626       -7.277       80.468       75.996       49.809     6475.161     5775.323     2480.969        1.971        0.737      156.996       37.175        0.056      339.085       12.176      857.209
04/30/2013  02:38:00     -163.397      105.202      -26.048       69.085      147.094       56.959     4772.767    21636.624     3244.275        3.404        1.483      194.334       70.495        0.132      339.082       12.169      857.210
04/30/2013  02:39:00     -112.057       65.640      -17.408       98.621      117.869       50.862     9726.014    13892.997     2586.978        2.168        1.310      129.867       55.148        0.180      339.093       12.188      857.206
04/30/2013  02:40:00     -179.563       38.804      -22.805      108.412      118.096       63.861    11753.107    13946.634     4078.231        3.202        1.489      183.708       30.934        0.028      339.097       12.193      857.191
04/30/2013  02:41:00     -257.471       51.807      -44.884       88.616       89.853       60.322     7852.865     8073.567     3638.735        4.527        0.978      262.631       49.772        0.036      339.098       12.195      857.207
04/30/2013  02:42:00     -163.322        4.957      -12.589      118.067      113.905       56.586    13939.843    12974.344     3201.946        2.848        1.506      163.397       48.943        0.090      339.129       12.249      857.205
04/30/2013  02:43:00     -327.721     -114.075      -34.344      148.349      117.121       62.387    22007.367    13717.385     3892.152        8.060        1.981      347.007       50.834        0.021      339.112       12.220      857.138
04/30/2013  02:44:00     -196.773       91.748      -47.476      116.811      140.626       71.877    13644.873    19775.600     5166.279        4.398        1.929      217.111       79.594        0.134      339.130       12.250      857.197
04/30/2013  02:45:00     -152.896      143.659      -36.931       84.863      125.921       53.377     7201.688    15856.171     2849.075        3.564        1.295      209.798       46.477        0.049      339.153       12.288      857.240
04/30/2013  02:46:00     -160.983      -17.047      -32.260       65.242       56.248       38.306     4256.568     3163.826     1467.380        1.807        0.444      161.884       26.433        0.027      339.136       12.261      857.224
04/30/2013  02:47:00     -118.592      -56.378       -5.847      132.639      104.738       50.723    17593.235    10970.032     2572.806        2.420        1.557      131.311       52.281        0.159      339.128       12.248      857.220
04/30/2013  02:48:00     -135.169       86.002       -9.314      103.237      114.643       62.662    10657.855    13143.072     3926.481        2.674        1.386      160.209       61.805        0.149      339.135       12.260      857.246
04/30/2013  02:49:00     -192.871      223.290      -46.520       83.209       97.628       63.463     6923.776     9531.248     4027.603        5.485        1.024      295.056       50.224        0.029      339.142       12.270      857.246
04/30/2013  02:50:00     -164.845       96.305      -20.446      119.709       79.420       41.452    14330.282     6307.512     1718.288        2.961        1.118      190.915       38.187        0.040      339.109       12.213      857.204
04/30/2013  02:51:00     -107.738      111.112       -9.887       65.850      112.408       45.180     4336.186    12635.520     2041.195        2.153        0.951      154.768       31.390        0.041      339.149       12.282      857.174
04/30/2013  02:52:00     -130.618        9.676        2.398       98.596       82.104       52.653     9721.106     6741.051     2772.338        1.819        0.962      130.976       49.368        0.142      339.150       12.283      857.141
04/30/2013  02:53:00     -148.211      -71.305       -1.470      137.276       75.310       53.949    18844.566     5671.557     2910.516        2.723        1.371      164.472       41.045        0.062      339.093       12.187      857.124
04/30/2013  02:54:00      -65.054       37.525       -7.505       63.327       76.692       40.443     4010.251     5881.737     1635.648        0.861        0.576       75.101       47.436        0.399      339.115       12.226      857.118
04/30/2013  02:55:00      -81.084      107.988      -25.620       55.223       78.585       47.141     3049.542     6175.671     2222.243        1.517        0.572      135.041       34.078        0.064      339.134       12.257      857.098
04/30/2013  02:56:00     -129.764       60.080       -9.031       97.781       75.930       45.908     9561.197     5765.335     2107.546        1.898        0.872      142.997       50.004        0.122      339.130       12.251      857.078
04/30/2013  02:57:00     -161.534       20.861      -22.308       79.994      101.204       49.856     6399.108    10242.234     2485.605        2.307        0.956      162.875       40.477        0.062      339.099       12.199      857.062
04/30/2013  02:58:00     -129.093      -20.556      -13.737       45.632       49.325       28.717     2082.311     2432.996      824.658        1.131        0.267      130.720       23.504        0.032      339.077       12.163      857.036
04/30/2013  02:59:00     -247.316      -38.275       -8.467      130.293      106.430       40.784    16976.361    11327.304     1663.358        4.633        1.498      250.261       45.609        0.033      338.989       12.014      857.022
04/30/2013  03:00:00     -209.712      -90.621       -2.767       93.824       83.010       48.297     8802.852     6890.609     2332.575        3.511        0.901      228.454       40.521        0.031      338.942       11.933      857.025
04/30/2013  03:01:00     -256.134      -61.349       -7.104       89.283       87.602       48.360     7971.427     7674.046     2338.675        4.370        0.899      263.378       36.784        0.020      338.925       11.904      857.020
04/30/2013  03:02:00     -236.939      -32.361      -28.897       86.248       73.918       41.085     7438.693     5463.854     1687.956        3.630        0.730      239.139       34.129        0.020      338.909       11.877      857.009
04/30/2013  03:03:00     -263.580       59.113      -16.268       95.007       61.545       33.358     9026.373     3787.767     1112.730        4.358        0.696      270.127       30.481        0.013      338.841       11.765      857.014
04/30/2013  03:04:00     -121.912      -66.831        8.130       71.086       62.821       37.257     5053.286     3946.416     1388.120        1.489        0.519      139.029       40.002        0.083      338.818       11.725      857.016
04/30/2013  03:05:00     -216.935      -14.881      -17.619       65.735       40.442       35.179     4321.097     1635.577     1237.595        2.739        0.360      217.445       34.344        0.025      338.747       11.605      857.020
04/30/2013  03:06:00     -204.288      -45.350      -13.989       78.693       65.534       36.260     6192.635     4294.725     1314.817        2.789        0.590      209.262       31.251        0.022      338.724       11.568      857.036
04/30/2013  03:07:00     -161.526      -15.616       -8.192       81.964       67.090       40.206     6718.143     4501.086     1616.548        1.962        0.642      162.279       43.751        0.073      338.706       11.538      857.041
04/30/2013  03:08:00     -112.902      -28.856        3.597       76.159       55.513       43.707     5800.125     3081.665     1910.324        1.219        0.540      116.532       47.675        0.167      338.720       11.564      857.052
04/30/2013  03:09:00     -168.864      -10.488      -16.938       94.558       51.732       46.319     8941.235     2676.207     2145.437        2.133        0.688      169.189       47.043        0.077      338.720       11.561      857.062
04/30/2013  03:10:00     -183.177       14.805      -25.127       67.548       43.405       29.804     4562.779     1884.019      888.284        2.087        0.367      183.774       29.278        0.025      338.676       11.489      857.069
04/30/2013  03:11:00     -188.819      -28.198      -28.315       58.841       52.564       39.424     3462.209     2762.958     1554.257        2.251        0.389      190.913       25.313        0.018      338.664       11.467      857.069
04/30/2013  03:12:00     -205.798      -65.930       -1.918       81.951       69.492       47.804     6715.913     4829.128     2285.214        3.026        0.692      216.101       39.594        0.034      338.598       11.355      857.057
04/30/2013  03:13:00     -247.852       42.287      -25.004       93.044       77.732       40.932     8657.232     6042.197     1675.465        4.011        0.819      251.433       44.283        0.031      338.596       11.352      857.033
04/30/2013  03:14:00     -263.521        8.581      -21.340       85.736       69.033       41.372     7350.666     4765.495     1711.630        4.190        0.691      263.661       46.522        0.031      338.624       11.398      857.013
04/30/2013  03:15:00     -138.234       16.208       -5.189       62.665       77.120       44.522     3926.930     5947.486     1982.235        1.563        0.593      139.181       37.613        0.073      338.619       11.393      856.975
04/30/2013  03:16:00     -106.835      171.071      -11.838       83.874      109.960       54.922     7034.807    12091.171     3016.468        3.148        1.107      201.690       73.414        0.132      338.557       11.287      856.930
04/30/2013  03:17:00     -136.038      150.637      -28.641       94.622       74.051       45.851     8953.326     5483.565     2102.279        2.928        0.827      202.973       45.842        0.051      338.624       11.399      856.903
04/30/2013  03:18:00      -90.115      178.362      -21.212       64.840      113.295       49.207     4204.163    12835.796     2421.317        2.992        0.973      199.834       54.767        0.075      338.621       11.394      856.898
04/30/2013  03:19:00     -206.800      193.250      -27.317      141.012      100.842       64.956    19884.251    10169.190     4219.252        5.756        1.714      283.040       67.373        0.057      338.716       11.554      856.902
04/30/2013  03:20:00     -181.191      239.025      -45.271       83.693       83.365       52.020     7004.527     6949.781     2706.095        5.433        0.833      299.938       50.018        0.028      338.759       11.625      856.906
04/30/2013  03:21:00     -155.031      273.218      -43.676       83.122      120.706       65.122     6909.199    14569.976     4240.931        6.315        1.286      314.137       62.956        0.040      338.790       11.677      856.889
04/30/2013  03:22:00     -172.555      162.042      -26.900       70.790      107.470       44.761     5011.287    11549.696     2003.581        3.766        0.928      236.712       42.095        0.032      338.804       11.701      856.888
04/30/2013  03:23:00     -190.639      156.586      -29.421       87.577       92.650       51.394     7669.698     8584.070     2641.343        4.031        0.945      246.703       48.960        0.039      338.842       11.766      856.894
04/30/2013  03:24:00     -203.950      224.342      -37.044       98.798      119.335       64.752     9761.064    14240.916     4192.826        6.074        1.410      303.191       63.572        0.044      338.840       11.761      856.895
04/30/2013  03:25:00     -236.494      199.322      -58.386      105.838      116.868       62.586    11201.637    13658.041     3917.046        6.392        1.439      309.287       65.489        0.045      338.841       11.764      856.895
04/30/2013  03:26:00     -177.243      228.541      -33.344      104.089      102.677       50.705    10834.614    10542.536     2571.013        5.435        1.197      289.216       40.001        0.019      338.825       11.735      856.902
04/30/2013  03:27:00     -191.321      154.955      -47.532       86.532       83.632       45.943     7487.742     6994.369     2110.789        3.973        0.830      246.201       37.860        0.024      338.836       11.755      856.918
04/30/2013  03:28:00     -175.479      191.539      -25.476       83.645      165.769       68.868     6996.438    27479.417     4742.845        5.367        1.961      259.769       72.251        0.077      338.854       11.785      856.921
04/30/2013  03:29:00     -144.091      202.543      -26.508       86.314       78.492       48.788     7450.136     6160.958     2380.228        3.924        0.800      248.567       41.274        0.028      338.815       11.720      856.922
04/30/2013  03:30:00     -191.212      122.559      -28.156       91.691      114.058       49.929     8407.260    13009.191     2492.877        3.814        1.195      227.119       49.743        0.048      338.847       11.774      856.903
04/30/2013  03:31:00     -176.452       27.229      -11.076       63.031       66.271       44.272     3972.903     4391.816     1960.038        2.116        0.516      178.541       17.642        0.010      338.855       11.790      856.903
04/30/2013  03:32:00     -183.946        1.410      -28.323      102.308       52.065       44.712    10467.017     2710.748     1999.173        2.491        0.759      183.952       39.994        0.047      338.835       11.755      856.881
04/30/2013  03:33:00     -103.613       18.196       -3.165       53.434       76.802       36.161     2855.162     5898.526     1307.602        1.057        0.503      105.198       24.593        0.055      338.845       11.773      856.846
04/30/2013  03:34:00      -72.534       -5.002        2.088       59.914       43.035       32.935     3589.628     1851.969     1084.710        0.591        0.326       72.706       21.818        0.090      338.811       11.714      856.836
04/30/2013  03:35:00      -99.725      -40.762       -4.825       56.565       49.275       37.927     3199.550     2428.063     1438.426        0.935        0.353      107.734       23.825        0.049      338.836       11.758      856.840
04/30/2013  03:36:00     -126.040      -54.382       -7.140       63.068       54.147       35.962     3977.548     2931.856     1293.296        1.355        0.410      137.272       29.852        0.047      338.752       11.616      856.842
04/30/2013  03:37:00     -128.244       -0.938      -16.977       35.982       59.591       28.808     1294.693     3551.121      829.914        1.120        0.284      128.247       25.596        0.040      338.771       11.651      856.864
04/30/2013  03:38:00      -96.016       48.713       -9.768       35.257       48.126       28.426     1243.077     2316.128      808.061        0.803        0.218      107.666       12.536        0.014      338.728       11.577      856.889
04/30/2013  03:39:00      -75.343       10.901      -22.920       34.498       45.425       29.100     1190.091     2063.419      846.805        0.521        0.205       76.127       25.551        0.113      338.757       11.625      856.900
04/30/2013  03:40:00     -134.103       76.757      -19.146       45.876       65.710       39.114     2104.621     4317.845     1529.914        1.610        0.398      154.516       33.817        0.048      338.751       11.616      856.914
04/30/2013  03:41:00      -97.381       96.442      -12.362       57.616       86.984       40.271     3319.611     7566.269     1621.722        1.572        0.625      137.056       37.615        0.075      338.735       11.588      856.935
04/30/2013  03:42:00     -153.178       85.264      -22.031       53.796       49.567       28.944     2894.002     2456.911      837.738        1.870        0.309      175.310       27.343        0.024      338.766       11.640      856.975
04/30/2013  03:43:00     -126.611       28.916      -11.503       51.186       44.963       24.483     2620.041     2021.661      599.424        1.112        0.262      129.871       19.526        0.023      338.708       11.543      856.993
04/30/2013  03:44:00      -89.967      136.443      -19.814       59.603       81.969       45.356     3552.510     6718.991     2057.173        1.971        0.616      163.434       37.614        0.053      338.715       11.553      857.006
04/30/2013  03:45:00     -104.910       93.704      -24.071       75.489       63.149       47.063     5698.661     3987.779     2214.944        1.613        0.595      140.665       45.867        0.106      338.753       11.618      857.006
04/30/2013  03:46:00      -59.967      145.282       -2.211       56.666      105.100       51.884     3210.997    11045.964     2691.971        2.083        0.847      157.172       53.983        0.118      338.685       11.504      857.016
04/30/2013  03:47:00     -140.002      138.825      -19.111       79.752       62.587       45.798     6360.408     3917.190     2097.469        2.580        0.619      197.162       47.906        0.059      338.702       11.528      857.035
04/30/2013  03:48:00     -156.281       74.525      -17.248       86.529      136.000       46.803     7487.257    18496.047     2190.488        2.922        1.409      173.140       42.776        0.061      338.710       11.544      857.043
04/30/2013  03:49:00     -156.980       -2.956       -0.267       71.293       73.520       47.962     5082.716     5405.138     2300.337        1.872        0.639      157.007       43.911        0.078      338.766       11.640      857.045
04/30/2013  03:50:00     -156.089       -2.722        4.865       82.235       87.854       43.786     6762.619     7718.241     1917.249        2.039        0.820      156.113       40.407        0.067      338.770       11.646      857.049
04/30/2013  03:51:00     -115.916       11.102      -15.384       55.066       63.548       36.073     3032.213     4038.338     1301.243        1.108        0.419      116.446       33.888        0.085      338.786       11.675      857.044
04/30/2013  03:52:00     -121.340       52.013      -17.926       60.287       75.610       40.010     3634.560     5716.917     1600.771        1.435        0.548      132.018       28.288        0.046      338.785       11.672      857.039
04/30/2013  03:53:00     -118.175       38.273      -25.038       52.344       73.075       32.596     2739.851     5339.911     1062.515        1.260        0.457      124.218       24.191        0.038      338.817       11.726      857.033
04/30/2013  03:54:00      -99.262       26.951      -17.412       48.852       65.855       31.738     2386.559     4336.825     1007.296        0.931        0.387      102.856       36.604        0.127      338.811       11.716      857.029
04/30/2013  03:55:00      -91.930        3.929      -15.183       49.056       36.507       27.822     2406.456     1332.766      774.071        0.660        0.226       92.014       20.165        0.048      338.802       11.701      857.014
04/30/2013  03:56:00      -62.770      -18.768      -15.721       48.633       46.076       37.127     2365.128     2123.002     1378.389        0.520        0.293       65.516       30.602        0.218      338.725       11.572      856.999
04/30/2013  03:57:00      -79.376       62.265      -21.657       56.748       37.653       30.262     3220.303     1417.777      915.792        0.810        0.278      100.884       22.013        0.048      338.740       11.597      856.987
04/30/2013  03:58:00     -120.044       44.277      -29.249       50.886       64.783       33.597     2589.409     4196.822     1128.738        1.257        0.396      127.950       28.410        0.049      338.770       11.648      856.969
04/30/2013  03:59:00      -93.486       60.636       -1.177       54.793       54.115       45.376     3002.245     2928.437     2058.989        1.020        0.399      111.429       36.519        0.107      338.734       11.588      856.960
04/30/2013  04:00:00     -154.600      -20.098      -17.524       50.545       54.816       30.049     2554.848     3004.834      902.912        1.554        0.323      155.901       28.156        0.033      338.788       11.677      856.958
04/30/2013  04:01:00      -83.737       -6.466       -7.062       52.261       35.175       21.317     2731.183     1237.278      454.409        0.576        0.221       83.987       28.615        0.116      338.716       11.557      856.954
04/30/2013  04:02:00      -58.911        6.682       -8.374       35.742       23.438       18.981     1277.511      549.340      360.274        0.289        0.109       59.288       18.268        0.095      338.802       11.702      856.945
04/30/2013  04:03:00      -84.088       60.811      -22.522       43.722       40.393       26.990     1911.595     1631.630      728.483        0.777        0.214      103.772       21.760        0.044      338.818       11.729      856.939
04/30/2013  04:04:00      -67.627       42.607       -9.359       29.529       33.195       15.901      871.958     1101.884      252.849        0.435        0.111       79.930       10.913        0.019      338.775       11.656      856.933
04/30/2013  04:05:00      -26.677        1.367      -12.343       28.781       28.190       18.000      828.360      794.676      324.000        0.141        0.097       26.712       12.638        0.224      338.703       11.535      856.934
04/30/2013  04:06:00      -62.614       19.829       -4.356       41.920       23.162       21.241     1757.326      536.480      451.159        0.354        0.137       65.679       18.630        0.080      338.766       11.639      856.942
04/30/2013  04:07:00      -83.705       72.412      -13.359       51.861       36.057       33.121     2689.552     1300.124     1097.024        0.876        0.254      110.680       27.555        0.062      338.739       11.597      856.959
04/30/2013  04:08:00     -118.715      114.632      -24.177       59.047       41.739       25.487     3486.575     1742.133      649.572        1.685        0.294      165.026       15.185        0.008      338.801       11.698      856.972
04/30/2013  04:09:00     -119.062       99.883      -26.448       69.326       42.720       25.807     4806.136     1825.022      666.010        1.607        0.365      155.410       34.439        0.049      338.795       11.689      856.989
04/30/2013  04:10:00      -83.547      122.318      -26.585       64.837       57.976       31.155     4203.860     3361.160      970.610        1.559        0.427      148.127       33.553        0.051      338.831       11.750      857.002
04/30/2013  04:11:00      -70.732      133.706      -18.892       44.335       42.751       27.961     1965.632     1827.610      781.827        1.391        0.229      151.263       25.421        0.028      338.796       11.692      857.016
04/30/2013  04:12:00      -40.885      103.017      -12.586       50.668       28.337       21.655     2567.280      802.968      468.960        0.814        0.192      110.834       16.111        0.021      338.778       11.659      857.024
04/30/2013  04:13:00       10.895      138.056      -18.396       35.613       56.177       26.946     1268.288     3155.886      726.101        1.233        0.258      138.485       31.162        0.051      338.668       11.476      857.026
04/30/2013  04:14:00        9.505      136.730      -17.024       40.527       49.867       30.397     1642.447     2486.711      923.999        1.206        0.253      137.060       21.374        0.024      338.546       11.270      857.031
04/30/2013  04:15:00       -7.511       94.179       -5.509       33.479       54.895       21.308     1120.813     3013.473      454.049        0.677        0.229       94.478       23.298        0.061      338.566       11.305      857.037
04/30/2013  04:16:00       13.894       87.639      -14.797       21.736       31.962       17.635      472.473     1021.578      311.010        0.495        0.090       88.733       17.716        0.040      338.450       11.109      857.041
04/30/2013  04:17:00        2.990       71.817       -5.390       22.314       28.330       18.939      497.905      802.607      358.671        0.343        0.083       71.880       12.685        0.031      338.525       11.236      857.036
04/30/2013  04:18:00       13.724       57.716       -7.143       14.957       23.967       12.603      223.711      574.420      158.834        0.226        0.048       59.325       12.117        0.042      338.460       11.128      857.035
04/30/2013  04:19:00      -21.015       60.281       -5.851       27.810       29.621       19.787      773.385      877.387      391.513        0.308        0.102       63.839       18.091        0.080      338.542       11.265      857.029
04/30/2013  04:20:00      -22.961       35.140        2.647       29.799       25.161       13.943      887.986      633.059      194.411        0.174        0.086       41.977        7.497        0.032      338.515       11.218      857.021
04/30/2013  04:21:00      -20.528       84.268       -6.840       24.634       39.113       16.243      606.820     1529.789      263.844        0.498        0.120       86.733       18.643        0.046      338.420       11.059      857.012
04/30/2013  04:22:00      -41.761       62.545       -7.217       27.311       26.153       17.287      745.884      683.982      298.823        0.372        0.086       75.206       12.298        0.027      338.492       11.179      856.992
04/30/2013  04:23:00      -62.864       15.323       -9.303       16.332       20.438       15.185      266.742      417.725      230.573        0.259        0.046       64.704       13.791        0.045      338.494       11.182      856.972
04/30/2013  04:24:00      -86.555       21.288      -12.187       31.470       24.334       18.852      990.358      592.148      355.402        0.502        0.097       89.134       18.964        0.045      338.410       11.041      856.947
04/30/2013  04:25:00      -92.493       46.554      -17.235       23.255       18.403       16.660      540.776      338.671      277.553        0.609        0.058      103.548       14.396        0.019      338.391       11.011      856.940
04/30/2013  04:26:00      -83.109       63.921      -20.101       16.499       27.760       14.086      272.233      770.614      198.415        0.632        0.062      104.848       13.238        0.016      338.426       11.069      856.949
04/30/2013  04:27:00      -46.211       79.122      -16.403       31.753       28.026       16.090     1008.272      785.469      258.878        0.536        0.103       91.628       17.690        0.037      338.507       11.206      856.960
04/30/2013  04:28:00      -16.406      134.607      -15.684       19.792       44.499       16.210      391.743     1980.140      262.763        1.063        0.132      135.603       15.354        0.013      338.354       10.948      856.966
04/30/2013  04:29:00      -59.419      115.706      -11.462       35.278       63.010       30.709     1244.535     3970.308      943.020        1.160        0.308      130.071       36.555        0.079      338.419       11.058      856.961
04/30/2013  04:30:00      -67.135       90.514      -14.657       41.660       40.532       28.325     1735.517     1642.823      802.310        0.855        0.209      112.694       21.529        0.036      338.385       11.001      856.960
04/30/2013  04:31:00      -73.320       58.658       -9.250       37.383       34.203       28.521     1397.497     1169.826      813.428        0.614        0.169       93.897       22.484        0.057      338.320       10.891      856.940
04/30/2013  04:32:00     -113.664       47.809      -15.397       28.675       32.005       24.002      822.245     1024.336      576.090        0.893        0.121      123.309       16.223        0.017      338.314       10.881      856.920
04/30/2013  04:33:00     -117.741       -0.267      -12.239       34.861       44.956       25.506     1215.300     2021.064      650.559        0.895        0.194      117.741       24.178        0.042      338.327       10.905      856.907
04/30/2013  04:34:00     -105.073        0.013      -10.718       36.144       60.138       25.233     1306.418     3616.604      636.698        0.836        0.278      105.073       17.134        0.027      338.308       10.871      856.883
04/30/2013  04:35:00     -117.209      -47.692       -3.737       44.305       39.405       25.306     1962.960     1552.747      640.406        1.009        0.208      126.540       25.729        0.041      338.319       10.890      856.876
04/30/2013  04:36:00     -107.042      -58.949        2.207       57.232       41.556       31.203     3275.555     1726.894      973.604        1.046        0.299      122.201       24.410        0.040      338.389       11.008      856.878
04/30/2013  04:37:00      -99.769      -45.555       -1.640       43.721       36.543       24.255     1911.512     1335.395      588.286        0.793        0.192      109.678       18.876        0.030      338.310       10.875      856.886
04/30/2013  04:38:00     -131.290      -55.987      -10.383       46.819       43.536       25.772     2191.986     1895.371      664.215        1.261        0.238      142.729       23.953        0.028      338.298       10.854      856.896
04/30/2013  04:39:00     -154.019      -16.208      -16.794       34.258       31.469       25.257     1173.589      990.304      637.898        1.353        0.140      154.870       19.154        0.015      338.235       10.746      856.896
04/30/2013  04:40:00     -117.892      -10.307      -21.619       27.150       25.773       17.521      737.106      664.270      307.000        0.809        0.085      118.342       13.935        0.014      338.251       10.777      856.882
04/30/2013  04:41:00      -68.983      -17.620       -4.754       35.532       22.853       16.651     1262.540      522.265      277.249        0.358        0.103       71.198       17.524        0.061      338.196       10.683      856.871
04/30/2013  04:42:00     -121.083       -1.585      -14.159       28.016       45.959       22.796      784.879     2112.193      519.655        0.914        0.171      121.094       14.118        0.014      338.280       10.824      856.857
04/30/2013  04:43:00      -53.608       30.808      -17.438       24.376       24.518       13.230      594.184      601.109      175.030        0.275        0.069       61.831        8.907        0.021      338.278       10.821      856.842
04/30/2013  04:44:00      -62.353      -21.494       -6.762       31.730       33.594       16.815     1006.814     1128.541      282.734        0.341        0.121       65.954       11.163        0.029      338.174       10.646      856.830
04/30/2013  04:45:00      -73.123      -44.124       -1.447       27.471       25.938       14.519      754.645      672.784      210.805        0.447        0.082       85.404        8.565        0.010      338.127       10.567      856.811
04/30/2013  04:46:00      -69.996      -13.541       -9.070       17.376       21.906       13.045      301.914      479.861      170.181        0.306        0.048       71.294        4.900        0.005      338.190       10.672      856.794
04/30/2013  04:47:00      -62.524      -28.377      -10.437       35.385       17.861       14.336     1252.073      319.014      205.509        0.330        0.089       68.662        7.609        0.012      338.228       10.736      856.787
04/30/2013  04:48:00      -39.950      -26.861        4.759       52.052       26.700       28.432     2709.415      712.867      808.358        0.328        0.212       48.141       28.984        0.362      338.223       10.729      856.794
04/30/2013  04:49:00      -73.764      -27.593       -1.076       42.828       37.860       17.494     1834.245     1433.388      306.049        0.489        0.179       78.756       16.120        0.042      338.173       10.644      856.813
04/30/2013  04:50:00     -149.611      -56.486       -7.549       53.299       35.230       24.146     2840.775     1241.125      583.051        1.515        0.233      159.919       24.833        0.024      338.098       10.518      856.832
04/30/2013  04:51:00     -118.779      -28.848       -4.496       55.967       43.787       27.616     3132.308     1917.295      762.631        1.039        0.291      122.232       22.580        0.034      338.055       10.446      856.862
04/30/2013  04:52:00     -169.711       -2.546      -14.405       65.089       49.630       30.658     4236.543     2463.112      939.883        1.833        0.382      169.730       33.033        0.038      337.980       10.320      856.883
04/30/2013  04:53:00     -149.719       -0.994      -18.947       43.512       45.438       19.027     1893.259     2064.623      362.011        1.355        0.216      149.722       19.802        0.017      337.948       10.266      856.902
04/30/2013  04:54:00     -163.865      -58.981       -5.509       56.171       49.935       31.673     3155.168     2493.504     1003.165        1.851        0.333      174.156       29.992        0.030      337.877       10.146      856.909
04/30/2013  04:55:00      -84.066      -36.865       -6.014       72.246       33.785       26.599     5219.461     1141.400      707.492        0.776        0.353       91.794       30.839        0.113      337.882       10.157      856.913
04/30/2013  04:56:00      -62.735      -14.942       -2.323       60.407       38.007       24.651     3649.036     1444.548      607.652        0.493        0.285       64.490       16.892        0.069      337.822       10.055      856.919
04/30/2013  04:57:00      -78.969      -57.305       -2.679       33.874       37.059       26.360     1147.460     1373.379      694.874        0.637        0.161       97.570       15.910        0.027      337.768        9.966      856.928
04/30/2013  04:58:00      -73.138      -10.921       -2.245       44.360       38.186       26.702     1967.779     1458.202      712.984        0.481        0.207       73.949       20.688        0.078      337.735        9.910      856.919
04/30/2013  04:59:00      -60.819       34.293      -16.072       22.959       49.767       23.592      527.129     2476.790      556.567        0.435        0.178       69.821       19.926        0.081      337.760        9.954      856.920
04/30/2013  05:00:00      -42.852       27.294       -8.972       27.620       37.800       19.885      762.879     1428.866      395.401        0.262        0.129       50.806       23.102        0.207      337.743        9.923      856.912
04/30/2013  05:01:00      -50.738       51.220       -8.683       29.957       28.344       24.027      897.407      803.355      577.312        0.378        0.114       72.096       20.604        0.082      337.745        9.927      856.919
04/30/2013  05:02:00        1.177       58.380       -1.768       25.512       39.782       21.777      650.857     1582.626      474.230        0.306        0.135       58.392       24.430        0.175      337.762        9.955      856.922
04/30/2013  05:03:00       12.942       50.662       -1.231       16.908       22.260       14.660      285.879      495.513      214.903        0.187        0.050       52.289       10.291        0.039      337.675        9.811      856.935
04/30/2013  05:04:00       36.460       33.277       -1.187       27.389       20.267       17.290      750.151      410.745      298.937        0.195        0.073       49.363       15.691        0.101      337.748        9.932      856.935
04/30/2013  05:05:00       35.945       57.325       -9.758       30.094       27.321       31.295      905.624      746.444      979.358        0.365        0.132       67.662       23.870        0.124      337.714        9.875      856.936
04/30/2013  05:06:00       27.199       75.496       -2.246       26.360       24.922       23.818      694.847      621.085      567.302        0.416        0.094       80.246       16.880        0.044      337.647        9.763      856.929
04/30/2013  05:07:00       94.798      103.728      -15.225       41.314       31.675       36.646     1706.881     1003.305     1342.921        1.201        0.203      140.522       24.841        0.031      337.574        9.640      856.942
04/30/2013  05:08:00       70.451       89.447       -1.887       42.953       38.550       33.263     1844.926     1486.110     1106.443        0.870        0.222      113.860       27.306        0.058      337.515        9.541      856.970
04/30/2013  05:09:00      100.027       79.340        2.297       49.332       31.716       28.356     2433.640     1005.910      804.077        1.027        0.212      127.672       21.341        0.028      337.482        9.485      857.006
04/30/2013  05:10:00       83.861       60.816        7.593       48.399       39.427       34.419     2342.460     1554.467     1184.693        0.793        0.254      103.591       19.240        0.034      337.534        9.571      857.028
04/30/2013  05:11:00       76.779       69.438       10.854       49.922       34.694       32.286     2492.176     1203.640     1042.382        0.779        0.237      103.521       20.763        0.040      337.518        9.546      857.043
04/30/2013  05:12:00       73.584      105.315        1.239       66.532       56.648       39.559     4426.529     3209.004     1564.896        1.285        0.460      128.475       37.438        0.085      337.604        9.690      857.060
04/30/2013  05:13:00      100.651       50.059        8.258       52.652       56.514       34.346     2772.258     3193.833     1179.637        0.992        0.357      112.413       27.489        0.060      337.649        9.764      857.075
04/30/2013  05:14:00       81.325       65.383       -7.156       55.409       37.004       32.499     3070.199     1369.272     1056.160        0.822        0.275      104.349       18.222        0.030      337.481        9.484      857.076
04/30/2013  05:15:00       50.091       34.739        5.839       35.521       24.990       22.874     1261.770      624.524      523.208        0.308        0.120       60.959       15.362        0.064      337.518        9.545      857.062
04/30/2013  05:16:00       81.746       43.543        3.147       40.964       18.847       19.390     1678.025      355.228      375.976        0.550        0.120       92.620       15.242        0.027      337.547        9.595      857.044
04/30/2013  05:17:00       90.580       66.047        7.284       25.958       21.274       23.814      673.829      452.597      567.121        0.716        0.085      112.102       12.829        0.013      337.519        9.547      857.039
04/30/2013  05:18:00       30.042       45.897        4.093       46.197       33.377       22.802     2134.117     1114.027      519.935        0.340        0.188       54.855       15.764        0.083      337.503        9.519      857.058
04/30/2013  05:19:00       12.922      100.763       -7.561       18.903       49.542       23.608      357.305     2454.434      557.318        0.687        0.168      101.589       28.477        0.079      337.516        9.543      857.080
04/30/2013  05:20:00       40.830      146.544      -28.643       24.023       44.925       21.999      577.084     2018.247      483.964        1.352        0.154      152.125       22.050        0.021      337.564        9.622      857.105
04/30/2013  05:21:00       30.706       45.012        8.995       34.687       30.788       26.451     1203.163      947.931      699.659        0.295        0.143       54.488       21.987        0.163      337.601        9.685      857.131
04/30/2013  05:22:00       35.273       74.736       -5.018       36.198       41.769       30.539     1310.319     1744.683      932.656        0.542        0.199       82.642       24.748        0.090      337.571        9.634      857.151
04/30/2013  05:23:00       47.290       60.698       -2.160       35.726       32.906       20.540     1276.316     1082.781      421.885        0.435        0.139       76.946       16.674        0.047      337.647        9.763      857.157
04/30/2013  05:24:00       37.461       58.261       -1.492       28.200       30.705       22.395      795.238      942.814      501.524        0.352        0.112       69.265       17.899        0.067      337.616        9.712      857.172
04/30/2013  05:25:00       19.878       49.540       -4.368       19.220       28.303       19.524      369.398      801.056      381.185        0.221        0.078       53.379       19.731        0.137      337.517        9.543      857.175
04/30/2013  05:26:00        7.984       39.421       -7.286       22.932       29.121       12.492      525.894      848.018      156.041        0.160        0.076       40.221       14.535        0.131      337.518        9.545      857.172
04/30/2013  05:27:00       15.824       30.312       -8.645       15.740       24.669        9.443      247.735      608.581       89.165        0.109        0.047       34.194        6.607        0.037      337.527        9.560      857.180
04/30/2013  05:28:00      -52.492        1.396       -6.587       28.697       21.159       12.811      823.499      447.684      164.119        0.212        0.072       52.511        4.307        0.007      337.602        9.687      857.174
04/30/2013  05:29:00      -27.426       19.271       -1.449       19.938       16.545       14.206      397.518      273.749      201.798        0.100        0.044       33.520       12.567        0.141      337.592        9.670      857.190
04/30/2013  05:30:00       40.258       41.901       18.893       31.368       21.581       12.273      983.953      465.757      150.618        0.267        0.080       58.107        4.901        0.007      337.585        9.657      857.223
04/30/2013  05:31:00       83.224       62.227       -8.976       37.627       48.959       21.177     1415.781     2396.977      448.460        0.757        0.213      103.916       26.868        0.067      337.689        9.832      857.254
04/30/2013  05:32:00       14.976       31.532        4.143       37.380       28.122       27.625     1397.234      790.865      763.114        0.209        0.148       34.908       18.003        0.266      337.599        9.682      857.306
04/30/2013  05:33:00       36.977       49.879       -3.314       27.740       30.388       20.068      769.513      923.402      402.719        0.298        0.105       62.090       14.110        0.052      337.551        9.601      857.363
04/30/2013  05:34:00       20.938       78.863       -5.819       27.614       41.072       24.587      762.519     1686.947      604.497        0.487        0.153       81.595       22.722        0.078      337.478        9.479      857.406
04/30/2013  05:35:00       40.462       95.565      -10.211       75.248       56.694       33.780     5662.335     3214.193     1141.073        1.044        0.501      103.778       35.545        0.117      337.488        9.496      857.431
04/30/2013  05:36:00      -29.070      150.626      -25.756       41.318       55.618       24.120     1707.158     3093.410      581.794        1.479        0.269      153.405       25.780        0.028      337.532        9.568      857.460
04/30/2013  05:37:00      -60.138      162.464      -37.937       61.623       62.720       23.532     3797.446     3933.821      553.738        1.987        0.414      173.237       26.078        0.023      337.608        9.694      857.488
04/30/2013  05:38:00       -1.399      118.268      -18.933       36.772       50.645       17.611     1352.156     2564.880      310.152        0.929        0.211      118.277       18.114        0.023      337.474        9.472      857.521
04/30/2013  05:39:00      -50.905       38.344      -14.277       48.361       42.147       28.662     2338.792     1776.391      821.513        0.460        0.247       63.731       20.351        0.102      337.632        9.736      857.529
04/30/2013  05:40:00      -42.900      113.246      -20.806       79.393       64.879       47.587     6303.225     4209.227     2264.526        1.393        0.639      121.099       34.066        0.079      337.574        9.639      857.555
04/30/2013  05:41:00     -101.115       82.182       -5.872       91.268       46.234       39.635     8329.920     2137.600     1570.966        1.452        0.602      130.300       30.863        0.056      337.604        9.688      857.573
04/30/2013  05:42:00      -80.209      206.588      -46.245       80.010      105.147       41.697     6401.553    11055.845     1738.669        3.522        0.960      221.613       36.903        0.028      337.612        9.699      857.582
04/30/2013  05:43:00     -132.263      113.301      -21.603       93.189       65.551       46.249     8684.123     4296.935     2138.930        2.296        0.756      174.157       30.256        0.030      337.647        9.761      857.589
04/30/2013  05:44:00     -134.296      109.109      -23.288       81.079       54.330       32.564     6573.792     2951.718     1060.445        2.053        0.529      173.032       26.332        0.023      337.648        9.763      857.590
04/30/2013  05:45:00      -32.169       88.602      -12.641       54.765       59.129       26.042     2999.249     3496.271      678.167        0.811        0.359       94.262       20.704        0.048      337.715        9.877      857.602
04/30/2013  05:46:00      -70.083      139.389       -6.670      110.826       89.046       57.270    12282.293     7929.217     3279.799        2.393        1.175      156.016       60.530        0.151      337.627        9.727      857.618
04/30/2013  05:47:00     -194.578       92.425       -5.119      127.993       85.537       65.795    16382.224     7316.596     4329.032        3.722        1.401      215.414       55.145        0.066      337.730        9.899      857.615
04/30/2013  05:48:00     -178.197      167.725      -20.150      127.286      100.919       57.264    16201.797    10184.704     3279.113        4.497        1.483      244.715       75.711        0.096      337.686        9.826      857.614
04/30/2013  05:49:00     -183.269      216.134      -31.595      109.559      136.014       57.125    12003.093    18499.864     3263.215        5.753        1.688      283.375       57.723        0.041      337.655        9.773      857.626
04/30/2013  05:50:00     -118.256      130.202       -3.309       95.417       99.274       44.993     9104.391     9855.279     2024.396        2.596        1.049      175.889       40.843        0.054      337.804       10.024      857.648
04/30/2013  05:51:00     -177.005      280.572      -57.747      104.433      141.229       62.678    10906.156    19945.665     3928.477        7.408        1.739      331.740       65.372        0.039      337.661        9.783      857.688
04/30/2013  05:52:00     -143.448      268.892      -39.319      105.631      123.632       71.146    11157.995    15284.780     5061.770        6.296        1.575      304.762       69.605        0.052      337.663        9.787      857.699
04/30/2013  05:53:00     -102.826      203.394      -28.348       66.460       74.252       47.084     4416.983     5513.293     2216.876        3.244        0.607      227.908       38.642        0.029      337.663        9.787      857.709
04/30/2013  05:54:00      -77.043      250.889      -24.161       54.191      130.436       47.094     2936.623    17013.494     2217.810        4.581        1.108      262.452       58.320        0.049      337.720        9.883      857.715
04/30/2013  05:55:00     -123.884      265.184      -40.422       85.476      101.314       54.166     7306.081    10264.621     2933.966        5.390        1.025      292.694       49.653        0.029      337.649        9.763      857.737
04/30/2013  05:56:00     -118.325      155.884      -27.635       62.266       73.940       42.173     3877.114     5467.146     1778.573        2.509        0.556      195.705       34.007        0.030      337.688        9.829      857.767
04/30/2013  05:57:00      -30.578      137.710      -12.653       86.180      117.542       51.350     7427.030    13816.122     2636.839        2.196        1.194      141.064       62.007        0.193      337.667        9.796      857.779
04/30/2013  05:58:00      -83.632      213.315      -37.717       85.257      130.663       60.026     7268.777    17072.826     3603.131        4.093        1.397      229.124       73.436        0.103      337.698        9.847      857.783
04/30/2013  05:59:00      -36.720      308.681      -45.853       85.161       95.535       54.644     7252.337     9126.883     2985.949        5.905        0.968      310.858       51.491        0.027      337.661        9.782      857.783
04/30/2013  06:00:00      -19.375      271.268      -46.095       92.987      163.377       54.511     8646.574    26691.947     2971.466        5.719        1.915      271.959       68.633        0.064      337.686        9.826      857.809
04/30/2013  06:01:00       -5.070      300.581      -41.132       94.594      115.769       61.079     8948.070    13402.549     3730.677        5.907        1.304      300.624       64.429        0.046      337.670        9.798      857.845
04/30/2013  06:02:00      -64.421      355.497      -56.904       81.597      121.416       53.044     6658.150    14741.861     2813.681        7.899        1.211      361.287       66.956        0.034      337.680        9.814      857.882
04/30/2013  06:03:00     -204.522      374.915      -58.212      125.918      141.643       63.961    15855.442    20062.677     4091.017       11.289        2.000      427.072       71.408        0.028      337.664        9.789      857.910
04/30/2013  06:04:00      -75.759      295.532      -28.906      105.698      121.384       70.519    11172.122    14734.039     4972.993        6.239        1.544      305.087       67.816        0.049      337.723        9.888      857.896
04/30/2013  06:05:00     -112.078      272.081      -49.832       68.000       83.040       50.404     4624.014     6895.724     2540.516        5.156        0.703      294.261       48.041        0.027      337.689        9.829      857.892
04/30/2013  06:06:00      -97.883      157.097      -15.347       84.357      130.861       59.100     7116.035    17124.624     3492.868        3.111        1.387      185.096       47.602        0.066      337.882       10.156      857.863
04/30/2013  06:07:00     -107.677       27.830      -12.295       98.718      121.733       50.175     9745.229    14819.035     2517.490        1.980        1.354      111.215       50.161        0.203      337.717        9.878      857.857
04/30/2013  06:08:00     -156.867       62.861      -18.797      106.031      173.950       57.373    11242.634    30258.713     3291.708        3.684        2.240      168.993       43.844        0.067      337.755        9.940      857.852
04/30/2013  06:09:00     -177.869      109.618      -34.430      130.920      138.962       60.535    17140.025    19310.534     3664.537        4.247        2.006      208.934       72.224        0.119      337.762        9.952      857.852
04/30/2013  06:10:00     -172.596       51.950      -19.251      119.246      102.956       60.373    14219.513    10599.941     3644.905        3.066        1.423      180.245       54.627        0.092      337.831       10.068      857.851
04/30/2013  06:11:00     -165.661       71.684      -27.783      109.460       96.785       55.707    11981.426     9367.427     3103.262        2.890        1.223      180.505       59.085        0.107      337.816       10.043      857.843
04/30/2013  06:12:00     -228.072       21.884      -34.205      121.145       90.582       53.507    14676.196     8205.188     2862.959        3.970        1.287      229.120       56.695        0.061      337.903       10.189      857.854
04/30/2013  06:13:00     -188.993      158.096      -32.260       98.742      134.710       56.709     9750.007    18146.873     3215.916        4.643        1.556      246.399       48.247        0.038      337.840       10.082      857.883
04/30/2013  06:14:00     -163.630      124.437      -19.492      118.534      106.219       66.437    14050.240    11282.578     4413.855        3.619        1.487      205.571       70.288        0.117      337.821       10.052      857.907
04/30/2013  06:15:00     -216.318      169.467      -24.455      159.006      154.357       74.305    25282.911    23826.171     5521.211        6.536        2.732      274.796       95.419        0.121      337.770        9.967      857.914
04/30/2013  06:16:00     -237.089       94.902      -30.947      132.991      115.089       60.203    17686.654    13245.443     3624.379        5.036        1.728      255.378       61.454        0.058      337.810       10.033      857.912
04/30/2013  06:17:00     -153.271        0.418      -14.655       87.965       81.506       46.839     7737.897     6643.201     2193.917        2.014        0.829      153.272       47.350        0.095      337.871       10.135      857.898
04/30/2013  06:18:00     -196.549       30.665      -23.648       73.252      113.147       49.328     5365.896    12802.204     2433.236        3.036        1.030      198.926       40.966        0.042      337.878       10.146      857.904
04/30/2013  06:19:00     -192.386       -1.133      -24.168       59.877       93.011       48.418     3585.295     8651.124     2344.276        2.609        0.729      192.389       34.226        0.032      337.886       10.161      857.878
04/30/2013  06:20:00     -107.884      -22.481       14.953       79.745       89.950       49.557     6359.320     8090.997     2455.864        1.463        0.845      110.201       46.762        0.180      337.815       10.044      857.892
04/30/2013  06:21:00     -197.223       -0.081      -21.608       72.104      112.517       46.879     5199.030    12660.019     2197.608        2.971        1.003      197.223       43.599        0.049      337.799       10.013      857.908
04/30/2013  06:22:00     -199.255      -66.145      -25.009      102.826       76.972       48.672    10573.245     5924.686     2369.008        3.178        0.943      209.946       33.269        0.025      337.621        9.715      857.925
04/30/2013  06:23:00     -238.474      -16.464      -13.005      111.024      114.705       62.941    12326.311    13157.154     3961.561        4.337        1.472      239.042       71.170        0.089      337.587        9.659      857.973
04/30/2013  06:24:00     -167.129        0.862      -15.196      104.722      148.556       61.844    10966.661    22068.944     3824.694        3.250        1.843      167.131       50.813        0.092      337.648        9.761      858.008
04/30/2013  06:25:00     -194.245       30.933      -27.422       98.954       93.459       70.218     9791.824     8734.542     4930.568        3.144        1.173      196.693       63.354        0.104      337.813       10.039      858.040
04/30/2013  06:26:00     -238.090       30.742      -23.230      123.607       99.592       73.603    15278.677     9918.470     5417.341        4.439        1.531      240.066       74.472        0.096      337.726        9.891      858.070
04/30/2013  06:27:00     -265.837      120.615      -34.604       81.944      129.987       61.880     6714.773    16896.603     3829.185        5.692        1.372      291.920       59.747        0.042      337.715        9.871      858.080
04/30/2013  06:28:00     -275.958      279.452      -56.450      121.715      102.657       62.800    14814.590    10538.469     3943.831        9.336        1.465      392.742       56.125        0.020      337.575        9.639      858.077
04/30/2013  06:29:00     -216.537      193.093      -38.760      104.606      125.201       58.981    10942.445    15675.252     3478.797        5.788        1.505      290.126       56.521        0.038      337.744        9.922      858.057
04/30/2013  06:30:00     -226.507      329.626      -52.627       92.876      113.796       61.463     8625.901    12949.540     3777.715        9.404        1.268      399.948       62.199        0.024      337.574        9.636      858.066
04/30/2013  06:31:00     -139.280      171.416      -15.849       95.520       92.025       61.026     9124.073     8468.623     3724.215        3.517        1.066      220.867       57.763        0.068      337.702        9.852      858.046
04/30/2013  06:32:00     -191.990      309.879      -49.236      123.629      148.400       59.337    15284.162    22022.608     3520.826        8.806        2.041      364.534       58.927        0.026      337.678        9.812      858.047
04/30/2013  06:33:00     -134.418      177.488      -21.271       67.216      129.472       52.496     4517.949    16763.047     2755.843        3.702        1.202      222.644       60.001        0.073      337.792       10.004      858.057
04/30/2013  06:34:00     -175.225      131.496      -13.905       76.521       76.572       56.087     5855.532     5863.252     3145.773        3.152        0.743      219.078       46.313        0.045      337.790       10.000      858.086
04/30/2013  06:35:00     -195.982      110.193      -25.473       82.223       76.477       44.208     6760.640     5848.732     1954.314        3.288        0.728      224.836       42.501        0.036      337.783        9.988      858.123
04/30/2013  06:36:00     -123.461      100.251      -20.590       65.322       76.698       42.642     4266.904     5882.600     1818.303        1.884        0.598      159.037       39.267        0.061      337.953       10.273      858.140
04/30/2013  06:37:00     -123.066      150.107      -17.996       67.399      148.903       40.231     4542.650    22172.087     1618.537        3.316        1.417      194.107       42.891        0.049      337.909       10.198      858.142
04/30/2013  06:38:00     -168.087      186.152      -15.987       97.092      103.556       59.502     9426.941    10723.761     3540.535        4.342        1.185      250.810       37.234        0.022      337.831       10.067      858.137
04/30/2013  06:39:00     -184.348      171.443      -36.784       84.004       92.477       50.021     7056.656     8552.046     2502.098        4.142        0.906      251.747       49.951        0.039      337.795       10.008      858.147
04/30/2013  06:40:00     -209.925      145.223      -37.070       65.932      143.877       46.842     4347.047    20700.511     2194.218        4.688        1.362      255.261       57.652        0.051      337.828       10.062      858.171
04/30/2013  06:41:00     -112.676      113.143        2.887       58.944      115.012       59.562     3474.342    13227.823     3547.607        2.287        1.012      159.679       44.783        0.079      338.057       10.449      858.202
04/30/2013  06:42:00     -189.612      128.376      -37.346       66.614       86.353       37.510     4437.485     7456.781     1407.006        3.356        0.665      228.983       29.549        0.017      337.876       10.142      858.256
04/30/2013  06:43:00     -115.535      183.603      -26.844       52.832       78.491       46.344     2791.242     6160.799     2147.774        2.944        0.555      216.929       44.199        0.042      337.918       10.214      858.292
04/30/2013  06:44:00     -173.975       18.468      -13.306      127.725      108.177       41.682    16313.662    11702.213     1737.371        3.026        1.488      174.953       50.717        0.084      338.011       10.373      858.314
04/30/2013  06:45:00      -78.214       50.875      -10.018       58.285       72.568       32.866     3397.145     5266.089     1080.155        0.927        0.487       93.304       25.828        0.077      338.076       10.483      858.327
04/30/2013  06:46:00     -100.005       18.746        0.956       41.114       82.475       29.363     1690.344     6802.098      862.198        0.985        0.468      101.747       17.090        0.028      338.161       10.623      858.334
04/30/2013  06:47:00     -145.271       48.323      -24.018       50.542       80.910       39.268     2554.542     6546.409     1541.978        1.733        0.532      153.097       34.582        0.051      338.154       10.612      858.339
04/30/2013  06:48:00      -48.831       62.660      -19.005       46.410       71.991       24.492     2153.881     5182.667      599.878        0.730        0.397       79.440       32.813        0.171      338.268       10.803      858.356
04/30/2013  06:49:00      -65.475      189.174      -21.741       42.471       72.143       38.935     1803.754     5204.662     1515.942        2.453        0.426      200.184       37.902        0.036      338.083       10.492      858.368
04/30/2013  06:50:00      -88.389      126.721       -8.021       59.724       80.681       30.055     3566.977     6509.379      903.296        1.746        0.549      154.502       34.495        0.050      338.219       10.720      858.366
04/30/2013  06:51:00      -26.851      122.473        5.791       54.218       99.250       57.363     2939.560     9850.505     3290.555        1.591        0.804      125.382       46.999        0.141      338.224       10.729      858.383
04/30/2013  06:52:00     -132.145      213.841      -21.388       97.994      107.258       57.162     9602.829    11504.212     3267.498        4.401        1.219      251.377       44.262        0.031      338.053       10.439      858.394
04/30/2013  06:53:00     -152.980      158.539      -29.287       76.055       95.098       48.315     5784.437     9043.627     2334.378        3.328        0.858      220.313       48.671        0.049      338.092       10.507      858.431
04/30/2013  06:54:00     -164.840      130.404      -13.348       98.596       78.981       53.617     9721.231     6237.993     2874.793        3.159        0.942      210.184       53.527        0.065      338.175       10.645      858.476
04/30/2013  06:55:00     -119.274      118.329      -14.073       54.313       86.373       39.584     2949.940     7460.313     1566.926        2.020        0.599      168.013       19.958        0.014      338.185       10.663      858.487
04/30/2013  06:56:00      -87.995       87.788      -16.057       62.148       78.037       42.244     3862.398     6089.810     1784.560        1.372        0.587      124.297       42.900        0.119      338.187       10.668      858.484
04/30/2013  06:57:00     -123.700      150.669      -33.323       49.818       58.063       35.570     2481.837     3371.317     1265.232        2.311        0.356      194.943       26.467        0.018      338.204       10.695      858.489
04/30/2013  06:58:00     -137.242      159.859      -31.229       78.651       76.537       46.138     6185.978     5857.873     2128.702        2.977        0.709      210.690       48.329        0.053      338.222       10.725      858.512
04/30/2013  06:59:00     -135.920      174.198      -32.608       64.871       69.822       43.170     4208.203     4875.151     1863.671        3.041        0.547      220.951       37.094        0.028      338.191       10.671      858.534
04/30/2013  07:00:00      -89.866       41.774       -1.925       76.745       51.828       39.884     5889.737     2686.141     1590.748        0.999        0.508       99.101       33.937        0.117      338.375       10.984      858.542
04/30/2013  07:01:00     -145.697       31.623      -16.292       78.231       69.245       40.525     6120.023     4794.892     1642.243        1.752        0.628      149.089       24.865        0.028      338.405       11.034      858.549
04/30/2013  07:02:00     -102.541       37.393      -16.311       61.971       93.902       28.852     3840.397     8817.669      832.433        1.283        0.675      109.146       19.360        0.031      338.270       10.809      858.548
04/30/2013  07:03:00      -85.305       23.817      -19.344       67.354       55.899       31.054     4536.551     3124.744      964.364        0.842        0.431       88.567       22.415        0.064      338.404       11.033      858.547
04/30/2013  07:04:00      -56.006      -14.141       -2.849       78.011       54.025       37.021     6085.686     2918.736     1370.519        0.686        0.519       57.763       23.236        0.162      338.485       11.169      858.575
04/30/2013  07:05:00      -66.119       20.622       -9.263       45.691       56.566       30.351     2087.659     3199.663      921.181        0.554        0.310       69.260       17.731        0.066      338.524       11.235      858.593
04/30/2013  07:06:00     -124.380      -20.745      -18.556       41.702       64.530       29.541     1739.091     4164.068      872.668        1.151        0.339      126.098       22.163        0.031      338.486       11.168      858.634
04/30/2013  07:07:00      -72.289       62.303        3.757       68.218       90.814       42.271     4653.683     8247.134     1786.847        1.190        0.734       95.432       38.163        0.160      338.520       11.227      858.657
04/30/2013  07:08:00      -87.440      111.791      -25.610       49.461       79.073       41.552     2446.439     6252.501     1726.609        1.561        0.521      141.926       33.221        0.055      338.432       11.079      858.676
04/30/2013  07:09:00      -33.819      160.706      -15.743       49.803      117.706       43.797     2480.378    13854.707     1918.177        2.273        0.913      164.225       55.121        0.113      338.332       10.911      858.696
04/30/2013  07:10:00     -118.709      263.941      -30.193       67.307       83.909       45.440     4530.243     7040.757     2064.824        4.915        0.682      289.408       39.472        0.019      338.154       10.609      858.724
04/30/2013  07:11:00     -111.168      198.487      -31.604       69.577       73.473       45.314     4840.926     5398.240     2053.399        3.252        0.615      227.499       44.202        0.038      338.196       10.681      858.726
04/30/2013  07:12:00      -35.542       99.122       12.502       51.842       93.285       48.506     2687.545     8702.116     2352.879        1.249        0.687      105.301       54.329        0.266      338.362       10.960      858.729
04/30/2013  07:13:00     -105.677      121.292      -24.764       55.817       92.006       36.962     3115.525     8465.118     1366.181        1.972        0.647      160.871       43.034        0.072      338.221       10.724      858.720
04/30/2013  07:14:00      -92.227      107.242       -3.352       82.430      110.773       52.695     6794.750    12270.687     2776.777        2.093        1.092      141.444       38.546        0.074      338.263       10.795      858.700
04/30/2013  07:15:00     -132.220      105.693      -32.098       37.877       53.689       23.056     1434.649     2882.472      531.558        1.727        0.242      169.272       18.190        0.012      338.051       10.440      858.689
04/30/2013  07:16:00      -67.422      182.221       -7.627       36.165       97.244       47.459     1307.931     9456.430     2252.325        2.541        0.651      194.294       47.132        0.059      338.247       10.767      858.673
04/30/2013  07:17:00      -72.168       85.729        4.433       53.259       88.653       40.416     2836.536     7859.385     1633.490        1.245        0.616      112.061       33.474        0.089      338.324       10.898      858.657
04/30/2013  07:18:00      -41.590      108.647       -9.677       46.680       86.660       45.472     2178.977     7509.948     2067.677        1.269        0.588      116.336       53.892        0.215      338.359       10.954      858.656
04/30/2013  07:19:00        3.872      295.446      -48.848       74.470       70.674       38.325     5545.761     4994.780     1468.806        5.085        0.600      295.471       39.322        0.018      338.104       10.526      858.655
04/30/2013  07:20:00      -35.992      297.589      -47.773       49.656       93.439       39.166     2465.695     8730.932     1534.009        5.243        0.637      299.758       43.305        0.021      338.007       10.361      858.651
04/30/2013  07:21:00      -57.072      232.217      -34.411       49.325       69.192       35.073     2432.942     4787.485     1230.111        3.341        0.423      239.128       38.354        0.026      337.967       10.295      858.656
04/30/2013  07:22:00      -51.485      238.192      -39.410       51.298       52.844       26.580     2631.475     2792.505      706.481        3.353        0.307      243.693       22.954        0.009      338.010       10.368      858.663
04/30/2013  07:23:00      -25.963      187.800      -22.398       32.138       62.903       30.101     1032.880     3956.747      906.045        2.117        0.295      189.586       37.535        0.039      337.983       10.324      858.649
04/30/2013  07:24:00        4.972      118.762      -12.784       32.903       32.557       25.614     1082.586     1059.971      656.052        0.855        0.140      118.866       18.248        0.024      338.152       10.610      858.626
04/30/2013  07:25:00      -59.198      162.227      -14.568       54.419       55.610       31.152     2961.445     3092.520      970.462        1.853        0.351      172.691       17.921        0.011      338.340       10.923      858.628
04/30/2013  07:26:00      -53.114      164.639      -11.769       63.394       88.341       42.245     4018.823     7804.151     1784.657        2.183        0.680      172.995       46.580        0.073      338.371       10.974      858.621
04/30/2013  07:27:00      -96.089      144.971      -17.118       65.241       85.912       41.139     4256.401     7380.845     1692.418        2.193        0.666      173.924       40.836        0.055      338.538       11.256      858.611
04/30/2013  07:28:00      -75.961      112.121      -12.067       65.317       69.275       49.966     4266.349     4799.033     2496.571        1.502        0.578      135.430       32.954        0.059      338.568       11.307      858.593
04/30/2013  07:29:00      -82.338      121.165      -12.011       52.250       64.701       49.494     2730.081     4186.169     2449.681        1.548        0.468      146.494       45.941        0.098      338.601       11.363      858.585
04/30/2013  07:30:00      -49.191      185.696       -4.849       69.467      129.035       54.011     4825.725    16650.134     2917.241        3.065        1.220      192.101       69.543        0.131      338.476       11.152      858.573
04/30/2013  07:31:00     -163.094      231.950      -43.129       89.277      106.384       51.556     7970.314    11317.609     2658.053        5.210        1.097      283.550       42.239        0.022      338.292       10.841      858.575
04/30/2013  07:32:00      -96.989      120.100      -10.956       64.697       82.411       45.073     4185.766     6791.522     2031.617        1.848        0.650      154.372       46.255        0.090      338.432       11.078      858.563
04/30/2013  07:33:00     -133.679      118.353      -17.647       84.521       98.929       52.801     7143.748     9787.023     2787.991        2.595        0.986      178.542       62.251        0.122      338.444       11.098      858.551
04/30/2013  07:34:00     -170.236      182.795      -29.867       75.389       94.016       52.320     5683.509     8839.009     2737.335        4.027        0.863      249.788       45.785        0.034      338.365       10.962      858.547
04/30/2013  07:35:00     -103.294      139.526      -10.733       54.575       74.376       46.693     2978.400     5531.828     2180.198        2.047        0.535      173.601       44.409        0.065      338.435       11.083      858.532
04/30/2013  07:36:00      -44.652      219.683      -14.712       50.747      122.601       42.953     2575.216    15031.009     1844.984        3.496        0.973      224.175       53.341        0.057      338.412       11.045      858.534
04/30/2013  07:37:00      -53.330      142.154       -1.312       59.280       60.344       38.231     3514.141     3641.440     1461.593        1.583        0.431      151.829       36.604        0.058      338.613       11.383      858.541
04/30/2013  07:38:00      -13.467      195.355      -24.518       65.181       95.826       52.160     4248.550     9182.576     2720.619        2.755        0.808      195.818       54.639        0.078      338.567       11.304      858.558
04/30/2013  07:39:00      -95.183      218.024      -17.621       68.892      114.235       54.299     4746.141    13049.722     2948.338        3.882        1.037      237.896       59.076        0.062      338.425       11.066      858.583
04/30/2013  07:40:00      -50.608      236.560      -24.124       70.757       83.974       39.875     5006.561     7051.593     1589.989        3.637        0.682      241.913       30.612        0.016      338.372       10.974      858.605
04/30/2013  07:41:00      -99.498      249.176      -28.949       66.248       74.715       41.797     4388.841     5582.319     1746.955        4.227        0.586      268.307       39.998        0.022      338.338       10.919      858.606
04/30/2013  07:42:00      -84.145      249.284      -26.106       83.927       89.140       48.438     7043.725     7945.984     2346.230        4.362        0.867      263.103       53.404        0.041      338.327       10.900      858.608
04/30/2013  07:43:00      -83.084      184.915      -23.981       81.698       81.465       42.182     6674.489     6636.543     1779.283        2.838        0.755      202.723       46.169        0.052      338.411       11.043      858.595
04/30/2013  07:44:00      -61.914      102.375       -5.255       79.789       77.096       47.526     6366.277     5943.757     2258.732        1.445        0.728      119.641       45.246        0.143      338.527       11.238      858.597
04/30/2013  07:45:00      -41.994      324.793      -38.939       56.218       62.071       36.750     3160.477     3852.864     1350.576        5.857        0.418      327.497       19.886        0.004      338.248       10.765      858.589
04/30/2013  07:46:00      -92.484      177.154      -23.691       78.573       88.661       46.956     6173.795     7860.702     2204.857        2.837        0.812      199.842       43.896        0.048      338.437       11.085      858.610
04/30/2013  07:47:00      -48.632      271.940      -22.272       57.759      119.609       45.747     3336.123    14306.308     2092.764        4.827        0.987      276.255       52.186        0.036      338.364       10.963      858.606
04/30/2013  07:48:00     -158.546       64.144      -23.756       76.206       80.997       39.531     5807.366     6560.466     1562.709        2.187        0.697      171.030       34.488        0.041      338.551       11.277      858.602
04/30/2013  07:49:00      -50.009       93.419      -18.518       55.655       67.789       29.920     3097.462     4595.349      895.224        1.008        0.429      105.962       27.948        0.070      338.475       11.151      858.610
04/30/2013  07:50:00      -44.226       92.700       -1.712       59.756       64.758       38.172     3570.823     4193.613     1457.081        0.989        0.461      102.710       33.433        0.106      338.676       11.489      858.609
04/30/2013  07:51:00      -58.726      166.019      -25.608       49.669       80.848       39.675     2467.048     6536.391     1574.130        2.112        0.529      176.100       38.227        0.047      338.524       11.233      858.613
04/30/2013  07:52:00      -66.019      155.887       -7.335       58.435       88.985       39.765     3414.644     7918.393     1581.279        2.081        0.646      169.291       34.076        0.041      338.719       11.561      858.609
04/30/2013  07:53:00     -151.619      144.560      -40.081       88.140       57.989       43.985     7768.587     3362.756     1934.714        2.928        0.653      209.490       46.757        0.050      338.517       11.219      858.624
04/30/2013  07:54:00      -85.540      209.733      -30.797       71.688      114.823       42.814     5139.217    13184.368     1833.057        3.620        1.008      226.507       54.789        0.059      338.583       11.330      858.624
04/30/2013  07:55:00      -93.555      -20.758      -13.985       74.930       50.001       22.558     5614.495     2500.133      508.877        0.900        0.431       95.830       25.490        0.071      338.795       11.690      858.615
04/30/2013  07:56:00      -68.142      198.709      -17.913       77.763      131.828       56.706     6047.051    17378.712     3215.588        3.554        1.332      210.068       67.021        0.102      338.761       11.633      858.634
04/30/2013  07:57:00     -102.234      191.565      -17.634       61.703      126.307       55.597     3807.206    15953.517     3091.017        3.515        1.143      217.138       60.838        0.079      338.711       11.547      858.647
04/30/2013  07:58:00     -131.904      151.420      -33.491       93.418       75.049       47.844     8727.006     5632.385     2289.043        2.905        0.832      200.815       50.811        0.064      338.892       11.849      858.656
04/30/2013  07:59:00      -36.635      189.796      -18.439       54.654       55.335       35.316     2987.027     3061.923     1247.246        2.250        0.365      193.299       31.679        0.027      338.904       11.870      858.645
04/30/2013  08:00:00      -92.289      189.148      -27.675       57.492       82.516       50.069     3305.291     6808.824     2506.935        2.884        0.631      210.462       42.094        0.040      338.946       11.941      858.661
04/30/2013  08:01:00      -63.967      187.413      -17.791       65.783       96.769       49.974     4327.466     9364.242     2497.444        2.786        0.809      198.029       54.914        0.077      338.923       11.902      858.656
04/30/2013  08:02:00      -52.672      297.585      -30.445       62.389      123.558       58.734     3892.431    15266.572     3449.661        5.743        1.130      302.210       70.151        0.054      338.848       11.776      858.630
04/30/2013  08:03:00       18.904      392.776      -54.398       67.174       71.363       41.085     4512.397     5092.704     1687.985        8.444        0.565      393.231       34.366        0.008      338.550       11.274      858.607
04/30/2013  08:04:00      -31.913      356.072      -43.979       87.039       98.094       48.808     7575.745     9622.400     2382.243        7.466        0.979      357.499       51.987        0.021      338.686       11.504      858.594
04/30/2013  08:05:00      -75.693      439.106      -67.589       76.042       77.859       40.467     5782.452     6062.012     1637.570       10.829        0.674      445.582       34.012        0.006      338.568       11.304      858.604
04/30/2013  08:06:00      -69.632      307.711      -45.300       77.742       91.131       44.162     6043.760     8304.818     1950.239        5.894        0.815      315.491       43.938        0.019      338.703       11.532      858.612
04/30/2013  08:07:00      -61.511      346.875      -51.704       74.583       89.655       51.543     5562.646     8037.956     2656.665        7.152        0.813      352.287       52.851        0.023      338.600       11.357      858.622
04/30/2013  08:08:00       14.851      365.596      -51.631       81.321      104.409       50.619     6613.059    10901.164     2562.262        7.831        1.004      365.898       53.593        0.021      338.655       11.451      858.620
04/30/2013  08:09:00      -68.598      389.367      -63.224       76.309       94.718       43.147     5823.090     8971.582     1861.626        8.848        0.833      395.364       36.725        0.009      338.543       11.262      858.611
04/30/2013  08:10:00     -115.890      225.222      -28.631       95.230       87.431       55.762     9068.750     7644.134     3109.456        4.239        0.991      253.289       48.368        0.036      338.892       11.850      858.610
04/30/2013  08:11:00      -50.156      240.264      -30.225       88.336       90.504       47.233     7803.293     8190.926     2230.995        3.969        0.911      245.443       36.356        0.022      338.910       11.881      858.594
04/30/2013  08:12:00       65.122      272.590      -31.118      104.422      155.851       76.561    10904.052    24289.543     5861.580        6.028        2.053      280.261       86.508        0.095      338.915       11.889      858.590
04/30/2013  08:13:00        8.608      314.778      -25.099      102.058      117.950       70.444    10415.811    13912.318     4962.383        6.453        1.465      314.895       71.924        0.052      338.862       11.800      858.622
04/30/2013  08:14:00      -25.217      339.085      -41.128       84.651      100.955       47.498     7165.717    10191.956     2256.036        6.846        0.981      340.021       41.880        0.015      338.757       11.622      858.652
04/30/2013  08:15:00      -85.333      374.662      -53.758       61.939       89.344       42.795     3836.416     7982.311     1831.405        8.209        0.683      384.257       44.913        0.014      338.551       11.276      858.689
04/30/2013  08:16:00     -106.376      259.565      -40.140       71.670       81.883       42.240     5136.638     6704.903     1784.234        4.696        0.681      280.517       47.811        0.029      338.808       11.709      858.712
04/30/2013  08:17:00       72.428      173.327       -6.326      101.382      128.639       72.824    10278.226    16548.022     5303.379        3.372        1.606      187.852       75.439        0.161      339.094       12.190      858.754
04/30/2013  08:18:00       42.497      378.268      -44.038      124.777      158.534       78.634    15569.334    25133.147     6183.278        9.685        2.344      380.648       92.165        0.059      338.699       11.524      858.791
04/30/2013  08:19:00       19.639      271.285      -12.752      114.800      127.494       80.588    13179.060    16254.661     6494.455        5.503        1.796      271.995       81.309        0.089      338.910       11.878      858.798
04/30/2013  08:20:00     -106.242      380.690      -51.151       88.083      124.448       59.602     7758.530    15487.361     3552.444        9.281        1.340      395.237       65.592        0.028      338.704       11.533      858.841
04/30/2013  08:21:00     -146.280      350.628      -51.081      111.979      158.706       59.337    12539.283    25187.706     3520.920        9.409        2.062      379.919       69.658        0.034      338.706       11.536      858.841
04/30/2013  08:22:00     -161.650      362.872      -54.041       96.068      123.839       67.960     9229.035    15335.993     4618.552        9.495        1.459      397.249       72.978        0.034      338.669       11.475      858.863
04/30/2013  08:23:00     -133.268      311.143      -42.091      110.665      120.064       53.303    12246.753    14415.353     2841.172        7.292        1.475      338.483       56.996        0.028      338.889       11.844      858.863
04/30/2013  08:24:00      -71.667      282.853      -27.537      109.185      116.192       58.551    11921.340    13500.499     3428.215        5.737        1.443      291.791       55.493        0.036      338.941       11.932      858.901
04/30/2013  08:25:00     -176.773      335.029      -51.210      115.126      124.553       79.332    13254.092    15513.509     6293.582        9.058        1.753      378.805       74.315        0.038      338.696       11.520      858.938
04/30/2013  08:26:00     -124.775      322.847      -46.511      107.462      166.830       62.470    11548.047    27832.127     3902.475        8.261        2.164      346.120       77.888        0.051      338.755       11.620      858.967
04/30/2013  08:27:00      -28.182      411.591      -49.960      104.601      126.701       57.446    10941.411    16053.053     3300.009       10.149        1.515      412.555       61.080        0.022      338.692       11.513      858.974
04/30/2013  08:28:00     -114.177      353.051      -32.507      108.603      207.712       73.977    11794.542    43144.441     5472.534        9.956        3.021      371.054       85.356        0.053      338.729       11.577      859.000
04/30/2013  08:29:00     -109.209      220.792      -16.864      101.435      134.321       67.816    10289.098    18042.258     4598.977        4.694        1.647      246.324       64.455        0.068      338.835       11.753      859.018
04/30/2013  08:30:00     -130.491      428.075      -57.071       97.568      165.169       63.930     9519.434    27280.748     4087.011       12.220        2.044      447.522       75.579        0.029      338.516       11.217      859.038
04/30/2013  08:31:00       -9.020      314.129      -24.557      105.159      151.636       73.210    11058.508    22993.393     5359.769        6.938        1.971      314.259       78.504        0.062      338.701       11.528      859.012
04/30/2013  08:32:00      -66.880      296.438      -32.970      107.453      177.287       69.803    11546.098    31430.814     4872.436        7.063        2.392      303.889       88.642        0.085      338.766       11.638      859.016
04/30/2013  08:33:00      -98.959      422.813      -48.043       89.329      155.756       54.552     7979.669    24260.040     2975.879       11.304        1.761      434.240       54.843        0.016      338.654       11.449      859.037
04/30/2013  08:34:00      -93.821      231.557      -29.881       57.878       99.099       47.272     3349.833     9820.672     2234.646        3.936        0.770      249.842       47.647        0.036      338.814       11.718      859.045
04/30/2013  08:35:00      -66.423      206.016      -25.651       68.133      120.955       48.872     4642.044    14630.074     2388.472        3.458        1.083      216.459       60.736        0.079      338.880       11.830      859.054
04/30/2013  08:36:00     -148.049      172.692      -18.271       94.272      105.642       60.155     8887.128    11160.322     3618.591        3.787        1.183      227.467       57.062        0.063      338.810       11.711      859.048
04/30/2013  08:37:00     -105.705      251.276      -30.260       75.411      142.298       59.731     5686.751    20248.846     3567.815        5.236        1.475      272.605       68.422        0.063      338.779       11.660      859.034
04/30/2013  08:38:00     -115.196      376.313      -48.065      115.435      148.601       56.286    13325.317    22082.205     3168.080        9.788        1.929      393.550       64.202        0.027      338.596       11.352      859.040
04/30/2013  08:39:00     -170.637      297.035      -44.523      103.937      165.458       60.279    10802.799    27376.383     3633.546        8.056        2.091      342.559       65.073        0.036      338.628       11.406      859.059
04/30/2013  08:40:00     -168.777      371.395      -61.810      118.476      159.862       71.617    14036.535    25555.809     5129.062       10.747        2.236      407.946       76.701        0.035      338.554       11.281      859.086
04/30/2013  08:41:00     -181.293      419.092      -55.171      114.607      157.502       68.850    13134.757    24807.023     4740.371       12.711        2.134      456.624       67.257        0.022      338.446       11.101      859.090
04/30/2013  08:42:00     -201.371      362.833      -53.401      107.583      106.421       58.110    11574.012    11325.411     3376.816       10.066        1.314      414.968       62.189        0.022      338.531       11.241      859.105
04/30/2013  08:43:00     -277.690      244.841      -62.651      132.940      160.747       78.453    17672.948    25839.478     6154.810        9.532        2.483      370.215       85.672        0.054      338.645       11.433      859.108
04/30/2013  08:44:00     -165.773      167.365      -27.828       86.519      102.125       56.367     7485.492    10429.493     3177.260        3.868        1.055      235.567       43.566        0.034      338.684       11.500      859.124
04/30/2013  08:45:00     -174.015      243.553      -45.259      101.651      111.033       57.118    10332.910    12328.399     3262.522        5.878        1.296      299.332       64.117        0.046      338.658       11.457      859.118
04/30/2013  08:46:00     -214.086      265.552      -54.437       93.701      147.657       77.182     8779.856    21802.520     5957.063        7.792        1.827      341.102       78.372        0.053      338.766       11.637      859.129
04/30/2013  08:47:00      -77.602      476.186      -69.514       97.283      118.680       59.204     9463.892    14084.865     3505.090       13.233        1.353      482.468       51.742        0.012      338.649       11.442      859.138
04/30/2013  08:48:00     -149.491      264.169      -33.673      114.699      108.996       64.653    13155.816    11880.176     4179.994        6.124        1.461      303.534       76.575        0.064      338.705       11.536      859.125
04/30/2013  08:49:00     -116.167      251.764      -11.652       81.602      133.146       60.063     6658.902    17727.924     3607.529        5.250        1.400      277.273       50.693        0.033      338.854       11.785      859.122
04/30/2013  08:50:00     -159.472      192.429      -35.172      118.381      122.913       58.596    14014.090    15107.532     3433.493        4.812        1.628      249.921       48.820        0.038      338.955       11.956      859.126
04/30/2013  08:51:00     -211.358      183.407      -31.948      115.092       87.943       60.328    13246.104     7733.926     3639.444        5.197        1.231      279.840       55.110        0.039      338.964       11.971      859.144
04/30/2013  08:52:00     -210.154      207.099      -38.262       82.467      128.586       58.059     6800.790    16534.312     3370.835        5.761        1.335      295.051       72.393        0.060      338.913       11.885      859.157
04/30/2013  08:53:00     -197.656      245.338      -36.740      139.118      118.501       60.490    19353.681    14042.440     3659.081        6.882        1.853      315.053       56.386        0.032      338.940       11.929      859.188
04/30/2013  08:54:00     -182.864      271.236      -26.048      113.868      146.433       68.890    12965.878    21442.479     4745.803        7.341        1.958      327.121       63.937        0.038      338.734       11.585      859.221
04/30/2013  08:55:00     -155.332      108.135      -16.831       62.400       87.793       39.153     3893.798     7707.543     1532.936        2.462        0.657      189.265       23.755        0.016      339.004       12.039      859.219
04/30/2013  08:56:00     -173.969       62.457      -36.748       99.882       74.267       47.854     9976.317     5515.649     2289.997        2.665        0.889      184.841       38.763        0.044      338.925       11.906      859.217
04/30/2013  08:57:00      -62.490       68.704        1.903       82.106       54.752       42.644     6741.352     2997.833     1818.546        1.009        0.578       92.873       43.593        0.220      339.033       12.090      859.214
04/30/2013  08:58:00      -51.909      166.782      -27.751       55.715       57.113       34.289     3104.154     3261.852     1175.764        1.941        0.377      174.673       31.157        0.032      338.984       12.006      859.209
04/30/2013  08:59:00      -13.533      188.176      -17.667       45.652       74.678       39.344     2084.149     5576.765     1547.988        2.256        0.460      188.662       39.873        0.045      339.200       12.369      859.215
04/30/2013  09:00:00      -68.716      195.632      -27.010       56.405       96.705       42.200     3181.552     9351.874     1780.862        2.902        0.716      207.349       50.078        0.058      339.316       12.565      859.239
04/30/2013  09:01:00      -80.130      216.654      -18.026       80.333       96.814       53.010     6453.366     9372.907     2810.019        3.616        0.932      230.998       54.354        0.055      339.207       12.378      859.236
04/30/2013  09:02:00      -20.616      175.503      -10.869       65.928       81.136       48.271     4346.558     6583.108     2330.124        2.230        0.663      176.709       49.989        0.080      339.405       12.714      859.221
04/30/2013  09:03:00     -103.378      130.016       -3.372       78.418       94.768       61.602     6149.409     8980.988     3794.801        2.326        0.946      166.107       54.562        0.108      339.419       12.737      859.223
04/30/2013  09:04:00     -172.776      153.649      -28.022      104.444      164.509       71.194    10908.649    27063.238     5068.610        4.863        2.152      231.213       71.105        0.095      339.254       12.460      859.220
04/30/2013  09:05:00     -174.603      274.589      -47.750       79.884      108.352       62.649     6381.471    11740.175     3924.882        6.510        1.102      325.400       63.363        0.038      338.934       11.920      859.274
04/30/2013  09:06:00      -96.032      328.910      -44.299       61.704       85.083       44.754     3807.325     7239.173     2002.949        6.621        0.652      342.643       42.492        0.015      338.840       11.761      859.277
04/30/2013  09:07:00      -22.927      251.749      -37.973       49.708       77.215       32.874     2470.915     5962.215     1080.708        3.743        0.476      252.791       31.153        0.015      338.903       11.868      859.275
04/30/2013  09:08:00       16.642      414.297      -55.338       92.222      110.526       54.225     8504.920    12215.909     2940.329        9.932        1.183      414.631       39.559        0.009      338.834       11.752      859.275
04/30/2013  09:09:00      -87.235      175.811      -32.897      136.212      100.340       55.216    18553.627    10068.108     3048.845        3.563        1.584      196.264       56.907        0.084      339.178       12.331      859.282
04/30/2013  09:10:00     -157.611      210.345      -33.774      110.596      133.541       59.433    12231.365    17833.303     3532.314        5.191        1.680      262.842       47.965        0.033      339.079       12.163      859.321
04/30/2013  09:11:00     -112.341      181.202      -17.605       66.211      102.470       49.335     4383.869    10500.005     2433.959        3.154        0.866      213.201       52.873        0.062      339.171       12.320      859.326
04/30/2013  09:12:00     -162.712      144.400      -41.293      118.103       72.058       46.289    13948.375     5192.315     2142.681        3.515        1.064      217.547       34.187        0.025      339.008       12.045      859.307
04/30/2013  09:13:00      -76.635       65.343      -10.350       92.307       62.297       49.526     8520.568     3880.934     2452.793        1.255        0.743      100.711       38.690        0.148      339.518       12.907      859.295
04/30/2013  09:14:00        7.700      151.862      -17.541       29.853       92.732       29.437      891.186     8599.285      866.565        1.689        0.518      152.058       41.881        0.076      339.534       12.930      859.304
04/30/2013  09:15:00       14.806      449.059      -70.677       75.586      100.210       48.791     5713.235    10042.077     2380.515       11.250        0.907      449.303       43.463        0.009      339.205       12.378      859.302
04/30/2013  09:16:00     -109.052      274.147      -26.289       71.944      146.869       49.008     5175.985    21570.376     2401.782        5.844        1.457      295.040       41.984        0.020      339.226       12.412      859.333
04/30/2013  09:17:00      -50.511      138.537      -22.524       64.847       57.861       31.850     4205.082     3347.877     1014.445        1.541        0.428      147.459       28.480        0.037      339.222       12.408      859.342
04/30/2013  09:18:00      -19.826       84.968       31.242       49.541       76.094       40.249     2454.307     5790.295     1620.013        0.922        0.493       87.251       35.657        0.167      339.720       13.246      859.352
04/30/2013  09:19:00     -150.896       49.516      -16.241       76.556       57.249       48.154     5860.770     3277.449     2318.819        1.847        0.573      158.812       32.255        0.041      339.520       12.908      859.365
04/30/2013  09:20:00     -111.344      175.232       -6.734      131.272      124.808       63.591    17232.293    15577.144     4043.835        3.999        1.843      207.615       67.051        0.104      339.434       12.762      859.410
04/30/2013  09:21:00     -115.680      213.516      -51.095       92.135      113.274       51.795     8488.909    12830.914     2682.715        4.279        1.200      242.839       63.330        0.068      339.314       12.560      859.431
04/30/2013  09:22:00     -120.949      175.726      -19.475       80.598       65.620       41.594     6496.058     4305.976     1730.027        2.921        0.627      213.327       29.220        0.019      339.444       12.778      859.423
04/30/2013  09:23:00       -0.124      270.114      -26.564      115.311      136.608       78.536    13296.698    18661.656     6167.951        5.589        1.906      270.114       84.763        0.098      339.289       12.518      859.454
04/30/2013  09:24:00       77.190      101.286       -1.858       70.719       73.243       46.410     5001.244     5364.556     2153.877        1.437        0.626      127.347       39.362        0.096      339.349       12.621      859.453
04/30/2013  09:25:00       33.806       38.099        9.271       43.134       64.914       33.443     1860.556     4213.837     1118.438        0.494        0.360       50.935       24.988        0.241      339.480       12.842      859.427
04/30/2013  09:26:00      -62.635      214.563      -30.665       82.920      104.040       44.629     6875.754    10824.362     1991.757        3.529        0.985      223.519       54.753        0.060      339.510       12.890      859.446
04/30/2013  09:27:00       75.816      162.257      -11.172       92.983       98.505       67.271     8645.806     9703.315     4525.415        2.753        1.144      179.096       54.377        0.092      339.368       12.653      859.451
04/30/2013  09:28:00       49.331      158.778      -21.310       76.281       83.805       48.454     5818.847     7023.350     2347.795        2.164        0.759      166.265       49.893        0.090      339.221       12.405      859.455
04/30/2013  09:29:00       29.391      223.892      -28.539      113.690      142.368       78.318    12925.367    20268.698     6133.710        4.556        1.966      225.813       80.073        0.126      339.442       12.775      859.408
04/30/2013  09:30:00      -49.588      128.528      -28.504      104.422       87.770       47.779    10904.054     7703.632     2282.837        2.034        1.045      137.762       49.780        0.131      339.612       13.063      859.447
04/30/2013  09:31:00      -94.251      133.490      -27.502       68.928       84.803       41.282     4751.058     7191.499     1704.228        2.055        0.682      163.410       47.595        0.085      339.370       12.656      859.459
04/30/2013  09:32:00      -16.642      127.567       16.314       71.840       95.650       58.878     5160.939     9148.854     3466.612        1.729        0.889      128.648       52.508        0.167      339.632       13.097      859.435
04/30/2013  09:33:00       12.109      192.758      -18.536       94.937      115.260       61.871     9013.049    13284.852     3828.028        3.188        1.306      193.138       63.773        0.109      339.648       13.125      859.453
04/30/2013  09:34:00      -48.789      146.034       -1.179      152.102       88.891       70.449    23135.128     7901.676     4963.008        2.985        1.800      153.968       67.114        0.190      339.438       12.770      859.474
04/30/2013  09:35:00     -101.267      303.049      -55.734       91.686      109.498       44.420     8406.333    11989.715     1973.174        6.378        1.118      319.521       30.920        0.009      339.287       12.513      859.494
04/30/2013  09:36:00      -25.483      232.232      -29.519      120.204      107.751       62.721    14449.016    11610.210     3933.899        4.272        1.500      233.626       64.770        0.077      339.430       12.755      859.487
04/30/2013  09:37:00       67.640      107.079       17.200       84.721       74.478       53.042     7177.671     5546.919     2813.464        1.593        0.777      126.653       42.592        0.113      339.494       12.864      859.465
04/30/2013  09:38:00      -62.178      182.599      -37.797      143.387      105.639       57.345    20559.695    11159.513     3288.424        3.682        1.750      192.895       68.368        0.126      339.633       13.098      859.461
04/30/2013  09:39:00     -110.498       92.979      -16.616       91.809       77.674       43.020     8428.940     6033.279     1850.743        1.872        0.816      144.413       43.728        0.092      339.762       13.315      859.480
04/30/2013  09:40:00     -196.895      201.666      -30.342      146.070       80.532       47.758    21336.348     6485.348     2280.845        5.522        1.505      281.845       43.085        0.023      339.679       13.173      859.490
04/30/2013  09:41:00     -143.698      282.907      -39.343      107.164      121.861       70.754    11484.166    14850.053     5006.177        6.678        1.567      317.310       68.274        0.046      339.370       12.655      859.530
04/30/2013  09:42:00      -74.271      294.702      -38.410       65.415       88.996       49.986     4279.063     7920.282     2498.582        5.427        0.735      303.917       45.971        0.023      339.342       12.606      859.563
04/30/2013  09:43:00      -24.063      330.108      -42.930       88.035       97.054       50.312     7750.147     9419.444     2531.259        6.554        0.985      330.983       51.385        0.024      339.241       12.436      859.585
04/30/2013  09:44:00     -157.461      222.306      -43.593       97.167      102.977       53.356     9441.339    10604.331     2846.849        4.950        1.145      272.423       66.943        0.060      339.501       12.876      859.627
04/30/2013  09:45:00     -138.708      315.101      -43.414      114.040      115.052       63.354    13005.098    13236.973     4013.726        7.533        1.513      344.280       60.811        0.031      339.386       12.680      859.676
04/30/2013  09:46:00      -30.985      338.796      -39.765       53.608      102.322       47.964     2873.855    10469.807     2300.562        6.648        0.782      340.210       50.947        0.022      339.178       12.330      859.706
04/30/2013  09:47:00      -25.581      306.429      -39.096       69.365      112.627       45.096     4811.530    12684.865     2033.661        5.780        0.977      307.495       51.353        0.028      339.144       12.274      859.721
04/30/2013  09:48:00       41.392      292.446      -40.569       49.792      108.913       39.661     2479.197    11862.037     1572.987        5.240        0.796      295.361       53.103        0.032      339.177       12.329      859.712
04/30/2013  09:49:00      -47.605      209.977      -30.333       70.875       71.004       37.455     5023.304     5041.524     1402.903        2.937        0.573      215.306       36.089        0.028      339.279       12.498      859.696
04/30/2013  09:50:00     -200.775      177.733      -39.159       75.837       74.773       48.055     5751.277     5591.056     2309.330        4.354        0.683      268.141       44.772        0.028      339.211       12.387      859.700
04/30/2013  09:51:00     -121.435      153.477      -21.653       57.843       90.081       49.933     3345.796     8114.587     2493.302        2.636        0.698      195.708       37.473        0.037      339.330       12.586      859.689
04/30/2013  09:52:00     -176.963       44.124      -16.192      115.439       64.633       43.550    13326.173     4177.482     1896.595        2.646        0.970      182.381       45.792        0.063      339.709       13.227      859.679
04/30/2013  09:53:00      -28.247       95.903       -5.138       53.736      139.356       53.463     2887.563    19420.091     2858.339        1.759        1.258       99.977       59.296        0.352      339.736       13.273      859.693
04/30/2013  09:54:00       25.389      224.259      -19.835       67.127       75.067       50.701     4506.083     5635.043     2570.601        3.202        0.636      225.692       47.270        0.044      339.716       13.236      859.701
04/30/2013  09:55:00       49.093      135.580       -8.309       65.482       73.512       56.050     4287.956     5404.067     3141.560        1.684        0.642      144.194       54.496        0.143      339.785       13.356      859.713
04/30/2013  09:56:00       47.933      164.270      -15.118       77.515      113.857       47.049     6008.549    12963.327     2213.647        2.534        1.059      171.120       55.054        0.104      339.556       12.967      859.737
04/30/2013  09:57:00       41.674      220.596       -8.024       95.337      111.679       70.344     9089.160    12472.306     4948.333        3.848        1.325      224.498       65.042        0.084      339.733       13.266      859.743
04/30/2013  09:58:00      -49.908      192.538      -26.066       55.488       62.116       37.258     3078.935     3858.345     1388.182        2.428        0.416      198.902       28.763        0.021      339.821       13.417      859.733
04/30/2013  09:59:00       -9.945      412.322      -63.669       90.981      168.114       53.448     8277.607    28262.252     2856.668       10.677        1.970      412.442       79.742        0.037      339.552       12.962      859.739
04/30/2013  10:00:00      -31.668      422.359      -66.471      107.998      117.833       54.445    11663.497    13884.615     2964.268       10.615        1.426      423.545       49.732        0.014      339.539       12.939      859.738
04/30/2013  10:01:00     -135.306      232.572      -26.385       86.497      127.959       64.782     7481.671    16373.627     4196.686        5.057        1.403      269.068       70.038        0.068      339.652       13.129      859.777
04/30/2013  10:02:00     -144.557      242.019      -28.588       74.718      119.135       55.992     5582.848    14193.046     3135.080        5.159        1.146      281.904       50.633        0.032      339.708       13.223      859.765
04/30/2013  10:03:00      -78.533      194.980      -24.849       65.577       51.589       45.680     4300.306     2661.381     2086.655        2.692        0.452      210.201       31.519        0.022      339.798       13.376      859.738
04/30/2013  10:04:00      -38.804      199.912      -26.011       58.083       71.153       45.515     3373.637     5062.783     2071.589        2.633        0.525      203.643       27.319        0.018      339.592       13.028      859.738
04/30/2013  10:05:00     -169.417       39.912      -14.481       93.682       74.315       41.155     8776.392     5522.769     1693.757        2.325        0.800      174.055       19.303        0.012      339.668       13.156      859.734
04/30/2013  10:06:00      -80.512      129.150       -9.164       86.568       96.948       50.316     7493.987     9398.926     2531.675        2.133        0.971      152.191       27.389        0.032      339.885       13.523      859.715
04/30/2013  10:07:00      -84.505      174.877      -13.414       72.737      125.259       55.838     5290.654    15689.801     3117.850        3.100        1.205      194.225       66.931        0.119      340.046       13.796      859.749
04/30/2013  10:08:00      -58.995      206.224        1.582       67.466      133.087       58.755     4551.626    17712.248     3452.141        3.586        1.286      214.496       65.350        0.093      339.987       13.694      859.761
04/30/2013  10:09:00      -44.587       30.446        4.338       78.979       76.438       60.350     6237.741     5842.752     3642.162        0.933        0.786       53.990       34.144        0.400      340.183       14.030      859.740
04/30/2013  10:10:00       14.383       25.948       12.684       46.213       40.121       39.471     2135.642     1609.693     1557.979        0.317        0.265       29.668       19.238        0.420      340.398       14.391      859.734
04/30/2013  10:11:00      148.075      158.980        2.844       99.816       77.122       57.334     9963.331     5947.797     3287.148        3.320        0.960      217.257       44.054        0.041      340.166       13.997      859.734
04/30/2013  10:12:00      228.408      167.323       46.204      129.500      112.541       94.795    16770.245    12665.453     8986.043        6.035        1.921      283.138       49.376        0.030      340.020       13.749      859.710
04/30/2013  10:13:00       26.753       61.114       -6.366       86.541       72.558       56.091     7489.365     5264.675     3146.204        1.019        0.795       66.713       32.900        0.243      340.385       14.369      859.732
04/30/2013  10:14:00       -1.910      184.737      -23.738      106.073       92.947       39.621    11251.460     8639.115     1569.809        2.807        1.073      184.747       40.241        0.047      339.949       13.631      859.725
04/30/2013  10:15:00      -20.524      251.373      -23.294       60.792      135.641       53.537     3695.670    18398.379     2866.204        4.455        1.248      252.210       71.955        0.081      339.884       13.522      859.714
04/30/2013  10:16:00      -53.190      185.351       -1.248      115.761      133.370       83.645    13400.499    17787.432     6996.424        3.768        1.909      192.832       82.380        0.183      340.278       14.186      859.716
04/30/2013  10:17:00       50.466      161.798      -20.382       62.297      118.582       57.633     3880.961    14061.796     3321.579        2.520        1.063      169.486       54.081        0.102      339.867       13.491      859.708
04/30/2013  10:18:00      152.057      112.011       -1.210      156.873       88.982       74.498    24609.288     7917.715     5550.023        3.687        1.904      188.859       44.240        0.055      340.054       13.807      859.693
04/30/2013  10:19:00       -3.705      198.222      -23.349       96.594      113.134       54.606     9330.318    12799.240     2981.763        3.248        1.256      198.257       63.894        0.104      339.870       13.498      859.709
04/30/2013  10:20:00      -36.901      171.084      -16.674       65.086       84.993       36.246     4236.234     7223.794     1313.742        2.184        0.639      175.018       37.646        0.046      339.799       13.377      859.703
04/30/2013  10:21:00     -140.998      226.312      -26.264       84.207       93.925       53.551     7090.900     8821.877     2867.742        4.528        0.939      266.641       48.945        0.034      339.816       13.406      859.686
04/30/2013  10:22:00      -81.430      341.108      -55.836       87.484      101.964       55.495     7653.441    10396.679     3079.693        7.361        1.056      350.693       49.024        0.020      339.492       12.861      859.684
04/30/2013  10:23:00       -5.496      170.395        9.850       51.020      109.408       59.489     2603.068    11970.036     3538.952        2.363        0.906      170.484       63.405        0.138      340.062       13.824      859.677
04/30/2013  10:24:00       -0.782       32.904       14.113       26.398       47.904       23.778      696.847     2294.801      565.376        0.242        0.178       32.914       24.253        0.543      339.956       13.646      859.635
04/30/2013  10:25:00      -34.355      111.941       -0.203       70.853       77.398       48.226     5020.099     5990.477     2325.771        1.352        0.667      117.094       36.169        0.095      339.912       13.570      859.632
04/30/2013  10:26:00       22.863      152.004      -18.434       81.581      112.935       42.914     6655.486    12754.426     1841.609        2.261        1.063      153.713       39.133        0.065      340.168       14.002      859.638
04/30/2013  10:27:00       13.466      147.811      -28.968       46.140      103.011       29.032     2128.932    10611.173      842.874        1.822        0.679      148.423       44.174        0.089      339.537       12.936      859.668
04/30/2013  10:28:00       21.248       50.444       32.804       33.040       36.666       47.909     1091.652     1344.370     2295.266        0.440        0.237       54.737       31.959        0.341      340.137       13.951      859.665
04/30/2013  10:29:00       11.342      -28.617       36.687       28.507       74.960       47.959      812.625     5619.002     2300.049        0.551        0.437       30.783       54.899        3.181      340.019       13.751      859.658
04/30/2013  10:30:00      -21.305       45.030        5.638       39.905       47.262       33.082     1592.429     2233.733     1094.397        0.372        0.246       49.816       21.475        0.186      340.241       14.127      859.688
04/30/2013  10:31:00       97.583       72.186       29.784       87.388       66.922       40.973     7636.662     4478.596     1678.772        1.470        0.690      121.381       13.763        0.013      340.154       13.980      859.727
04/30/2013  10:32:00       98.126       72.654       29.211      102.561       65.160       62.730    10518.670     4245.873     3935.089        1.723        0.935      122.095       52.349        0.184      340.057       13.814      859.693
04/30/2013  10:33:00       80.600      149.185       50.229       78.128       86.309       88.753     6104.016     7449.262     7877.151        2.635        1.072      169.566       69.031        0.166      339.878       13.511      859.679
04/30/2013  10:34:00       27.521      304.077      -47.780       94.151       92.304       48.611     8864.401     8520.034     2363.020        5.762        0.987      305.320       49.229        0.026      339.877       13.508      859.713
04/30/2013  10:35:00      -13.866      285.202      -33.881       89.501      107.004       53.996     8010.364    11449.811     2915.618        5.252        1.119      285.539       55.097        0.037      339.849       13.463      859.744
04/30/2013  10:36:00        2.995      239.736      -32.922       59.666       58.605       41.785     3559.986     3434.603     1745.951        3.365        0.437      239.755       33.156        0.019      339.875       13.504      859.745
04/30/2013  10:37:00       47.036       97.405      -17.798       89.929       77.604       45.968     8087.186     6022.417     2113.043        1.412        0.811      108.167       20.154        0.035      340.210       14.073      859.742
04/30/2013  10:38:00      -34.624      112.663       -3.684       71.727       98.271       50.734     5144.774     9657.155     2573.913        1.564        0.869      117.863       47.187        0.160      340.415       14.420      859.768
04/30/2013  10:39:00      -70.084       67.737      -15.574       39.130       49.934       28.649     1531.142     2493.430      820.739        0.729        0.242       97.468       27.881        0.082      339.876       13.510      859.776
04/30/2013  10:40:00      -28.812      -53.452       -8.411       38.656       33.108       24.623     1494.275     1096.108      606.317        0.348        0.160       60.723        9.399        0.024      339.752       13.301      859.738
04/30/2013  10:41:00      -51.527      -50.885        8.714       61.569       41.135       30.213     3790.775     1692.066      912.847        0.586        0.320       72.417       32.782        0.205      339.931       13.603      859.718
04/30/2013  10:42:00     -115.382      -96.673        3.069       85.042       94.146       38.287     7232.156     8863.377     1465.884        2.011        0.878      150.529       41.163        0.075      339.912       13.569      859.711
04/30/2013  10:43:00      -52.685       50.510      -13.173       77.182      114.688       57.031     5956.999    13153.381     3252.534        1.393        1.118       72.986       71.014        0.947      340.256       14.152      859.696
04/30/2013  10:44:00      -18.750      215.718      -34.428       58.451       69.327       36.469     3416.574     4806.264     1330.007        2.881        0.478      216.532       29.036        0.018      340.048       13.796      859.702
04/30/2013  10:45:00      -24.859      355.209      -45.827       57.745      123.208       50.089     3334.526    15180.195     2508.897        7.495        1.051      356.078       64.750        0.033      340.086       13.861      859.699
04/30/2013  10:46:00      -17.879      220.064      -14.733       67.977       71.083       59.102     4620.913     5052.791     3493.056        3.106        0.658      220.789       53.143        0.058      340.178       14.016      859.708
04/30/2013  10:47:00       -9.185      255.812      -35.095       89.610       85.778       50.364     8029.949     7357.877     2536.485        4.234        0.896      255.977       50.684        0.039      340.168       13.999      859.727
04/30/2013  10:48:00     -179.598      206.429      -32.481       81.726      100.056       60.492     6679.156    10011.278     3659.285        4.813        1.017      273.621       57.861        0.045      340.343       14.296      859.755
04/30/2013  10:49:00     -184.984       50.801      -33.152       57.727       88.233       43.973     3332.452     7785.141     1933.633        2.547        0.653      191.833       42.974        0.050      340.079       13.851      859.770
04/30/2013  10:50:00      -74.218       95.674       -0.925       69.839       57.706       42.082     4877.474     3329.988     1770.930        1.232        0.499      121.087       15.215        0.016      340.639       14.797      859.766
04/30/2013  10:51:00      -76.303       48.995      -18.175       31.499       67.684       24.570      992.206     4581.058      603.663        0.736        0.309       90.679       20.183        0.050      339.799       13.380      859.756
04/30/2013  10:52:00      -10.106        8.535       11.534       38.487       60.067       23.862     1481.268     3608.101      569.405        0.298        0.283       13.228       20.540        2.411      340.224       14.098      859.723
04/30/2013  10:53:00       30.977      165.522       -9.944       45.632       81.538       44.883     2082.274     6648.412     2014.451        1.960        0.537      168.395       19.312        0.013      340.372       14.347      859.732
04/30/2013  10:54:00      105.017      267.057      -43.328       81.994      125.900       63.302     6722.962    15850.811     4007.110        5.540        1.329      286.963       62.561        0.048      340.254       14.147      859.772
04/30/2013  10:55:00       91.581      186.607      -19.844       88.861       92.278       51.061     7896.221     8515.305     2607.275        3.131        0.951      207.868       55.785        0.072      340.138       13.950      859.755
04/30/2013  10:56:00       75.443      198.132      -10.174       77.931       97.743       62.045     6073.234     9553.706     3849.520        3.226        0.974      212.009       57.323        0.073      340.337       14.287      859.754
04/30/2013  10:57:00       85.987      286.745      -24.009       98.046      165.352       80.197     9613.028    27341.332     6431.582        6.678        2.169      299.360       88.643        0.088      340.621       14.764      859.751
04/30/2013  10:58:00      160.077      301.981      -21.887      130.545      166.616      101.012    17041.941    27760.961    10203.455        8.614        2.750      341.785      103.628        0.092      340.219       14.086      859.745
04/30/2013  10:59:00      205.881      202.121        2.980      130.575      105.792       88.860    17049.833    11191.889     7896.154        5.969        1.807      288.513       61.143        0.045      340.218       14.085      859.754
04/30/2013  11:00:00      150.678      103.331       35.534      118.165       76.242       59.514    13963.003     5812.894     3541.945        2.898        1.166      182.705       45.501        0.062      340.439       14.458      859.726
04/30/2013  11:01:00      251.757      154.309       43.186      179.291      112.009       71.413    32145.303    12545.938     5099.783        6.941        2.490      295.284       54.834        0.034      340.692       14.886      859.704
04/30/2013  11:02:00      255.399      180.876       49.649      120.092       85.300       75.095    14422.053     7276.152     5639.290        6.387        1.367      312.961       60.592        0.037      340.577       14.690      859.711
04/30/2013  11:03:00       99.394      121.832       85.602      114.233       90.074       75.755    13049.166     8113.412     5738.785        2.947        1.345      157.233       63.581        0.164      340.483       14.532      859.711
04/30/2013  11:04:00      112.535      127.846       -1.599       95.807       67.657       48.612     9179.038     4577.510     2363.162        2.256        0.806      170.320       35.825        0.044      340.288       14.202      859.724
04/30/2013  11:05:00       42.808      155.835      -13.147       66.195      110.254       42.969     4381.805    12155.984     1846.307        2.233        0.919      161.608       50.250        0.097      340.280       14.189      859.705
04/30/2013  11:06:00      121.183       85.259       19.700      113.334       54.952       50.178    12844.485     3019.684     2517.853        2.036        0.919      148.170       39.046        0.069      340.472       14.516      859.697
04/30/2013  11:07:00      166.727      105.134       39.099       84.111       52.925       42.234     7074.726     2801.044     1783.691        2.602        0.583      197.107       23.111        0.014      340.221       14.089      859.679
04/30/2013  11:08:00       52.222       66.235       56.577       53.297       36.945       35.224     2840.563     1364.938     1240.735        0.788        0.272       84.346       35.955        0.182      340.507       14.575      859.676
04/30/2013  11:09:00      138.195       88.963       37.755       58.289       45.558       38.940     3397.602     2075.572     1516.360        1.771        0.349      164.355       19.302        0.014      340.194       14.044      859.670
04/30/2013  11:10:00      186.435      113.069       38.695      166.165      102.929       79.030    27610.704    10594.339     6245.734        4.674        2.223      218.043       62.761        0.083      340.633       14.787      859.649
04/30/2013  11:11:00       81.605       65.758        2.878       88.886       63.424       51.214     7900.644     4022.637     2622.828        1.277        0.727      104.802       35.521        0.115      341.066       15.520      859.676
04/30/2013  11:12:00       54.404       76.636       41.006       59.820       56.262       53.705     3578.384     3165.415     2884.235        1.007        0.481       93.984       34.683        0.136      340.906       15.252      859.681
04/30/2013  11:13:00      -15.388       53.519      -17.850       40.126       50.263       28.039     1610.065     2526.358      786.189        0.417        0.246       55.687       24.606        0.195      340.377       14.356      859.685
04/30/2013  11:14:00       38.373      -25.899       13.286       61.869       87.835       43.240     3827.810     7715.056     1869.676        0.786        0.671       46.295       49.193        1.129      340.127       13.933      859.664
04/30/2013  11:15:00       89.718      108.455       16.164       59.728       71.654       55.117     3567.382     5134.367     3037.845        1.590        0.587      140.754       45.488        0.104      340.567       14.677      859.654
04/30/2013  11:16:00      195.153      181.729       20.275      117.444      120.767       91.496    13792.988    14584.740     8371.563        5.413        1.837      266.665       73.994        0.077      340.657       14.826      859.633
04/30/2013  11:17:00      164.886      189.074      -20.993       74.391      101.487       71.073     5533.999    10299.690     5051.330        4.213        1.044      250.872       69.309        0.076      340.236       14.114      859.650
04/30/2013  11:18:00      121.051      237.888      -18.925      112.925      132.810       77.524    12751.946    17638.449     6010.013        5.399        1.820      266.916       75.265        0.080      340.587       14.708      859.629
04/30/2013  11:19:00      136.622      164.199        1.766      110.879      110.098       67.015    12294.260    12121.569     4491.058        3.726        1.445      213.605       63.034        0.087      340.446       14.470      859.638
04/30/2013  11:20:00       93.439      142.875        7.199       63.271       86.283       49.848     4003.235     7444.749     2484.774        2.156        0.697      170.717       48.714        0.081      340.295       14.216      859.610
04/30/2013  11:21:00      124.228      178.734       -7.723      121.763      107.684       70.279    14826.348    11595.943     4939.113        3.939        1.568      217.666       65.852        0.092      340.721       14.935      859.599
04/30/2013  11:22:00      100.601      222.127      -31.378      101.061      132.272       53.640    10213.387    17495.890     2877.299        4.551        1.529      243.846       62.351        0.065      340.578       14.693      859.606
04/30/2013  11:23:00      101.124      265.679      -38.129       83.330      136.325       68.232     6943.968    18584.387     4655.566        5.622        1.509      284.273       71.627        0.063      340.727       14.945      859.621
04/30/2013  11:24:00      111.662      230.946      -18.730       90.429      131.677       70.633     8177.389    17338.777     4989.066        4.832        1.525      256.524       69.092        0.073      340.397       14.387      859.605
04/30/2013  11:25:00      137.372      157.752        8.750      112.440       97.484       80.051    12642.797     9503.184     6408.130        3.619        1.428      209.181       50.376        0.058      340.693       14.886      859.557
04/30/2013  11:26:00      130.818       69.261       18.505       91.764       70.631       58.867     8420.587     4988.713     3465.299        1.956        0.844      148.022       42.428        0.082      340.863       15.176      859.548
04/30/2013  11:27:00       34.239      204.694      -33.600       49.938      106.188       42.238     2493.821    11275.983     1784.025        2.987        0.778      207.538       53.779        0.067      340.916       15.263      859.546
04/30/2013  11:28:00      -32.065      342.186      -39.768       60.625       78.756       45.403     3675.358     6202.550     2061.409        6.582        0.597      343.685       36.784        0.011      340.424       14.432      859.569
04/30/2013  11:29:00        7.994      318.809      -49.953       79.169       79.862       29.617     6267.759     6377.889      877.146        5.886        0.676      318.909       27.593        0.007      340.236       14.113      859.549
04/30/2013  11:30:00       27.089      227.161      -22.932       66.635       88.519       56.230     4440.269     7835.671     3161.767        3.415        0.772      228.770       53.838        0.055      340.438       14.456      859.543
04/30/2013  11:31:00      -29.744      206.929       -9.068       55.300      105.195       46.786     3058.136    11065.951     2188.935        3.005        0.816      209.055       42.633        0.042      340.574       14.688      859.524
04/30/2013  11:32:00      -62.787       84.104      -20.776       33.681       53.795       26.862     1134.442     2893.926      721.575        0.810        0.237      104.956       20.418        0.038      340.430       14.446      859.501
04/30/2013  11:33:00        9.100       18.576       10.892       27.884       28.378       27.882      777.515      805.292      777.392        0.145        0.118       20.685       18.891        0.834      340.840       15.139      859.479
04/30/2013  11:34:00       18.037        5.015       32.155       28.465       35.457       23.403      810.279     1257.206      547.707        0.200        0.131       18.721       21.368        1.303      341.054       15.501      859.447
04/30/2013  11:35:00       96.889       82.952       20.167       44.344       44.119       45.914     1966.395     1946.490     2108.095        1.135        0.301      127.548       29.554        0.054      340.696       14.895      859.428
04/30/2013  11:36:00      -11.748       77.078      -14.916       31.775       49.628       29.425     1009.670     2462.901      865.832        0.532        0.217       77.969       19.011        0.059      340.495       14.554      859.401
04/30/2013  11:37:00        2.600       93.689       -4.623       36.377       43.870       31.990     1323.312     1924.606     1023.345        0.654        0.214       93.725       26.825        0.082      340.758       15.000      859.377
04/30/2013  11:38:00       -0.228       25.244        7.501       20.357       31.891       26.314      414.415     1017.043      692.415        0.141        0.106       25.245       22.532        0.797      341.023       15.449      859.377
04/30/2013  11:39:00       14.179       49.592        3.958       44.080       30.509       29.749     1943.024      930.772      884.978        0.322        0.188       51.579       21.202        0.169      340.976       15.368      859.389
04/30/2013  11:40:00      -28.041       83.071       -4.697       48.563       58.526       34.016     2358.354     3425.321     1157.113        0.732        0.347       87.676       35.118        0.160      341.152       15.667      859.397
04/30/2013  11:41:00      -64.022       72.725        6.161       58.748       70.280       38.614     3451.355     4939.331     1491.003        0.965        0.494       96.890       48.216        0.248      341.256       15.844      859.414
04/30/2013  11:42:00       47.681       83.369        5.035       59.618       43.712       46.966     3554.247     1910.712     2205.772        0.846        0.384       96.040       35.386        0.136      341.295       15.909      859.394
04/30/2013  11:43:00      112.477       70.930       10.426       43.387       42.869       36.701     1882.445     1837.735     1346.978        1.143        0.253      132.974       17.419        0.017      340.852       15.158      859.374
04/30/2013  11:44:00       38.644      224.489      -37.491       88.186      124.004       41.886     7776.694    15376.980     1754.473        3.910        1.245      227.790       57.740        0.064      340.971       15.357      859.370
04/30/2013  11:45:00      134.073      159.138        7.866      118.796       87.595       68.169    14112.500     7672.957     4646.977        3.489        1.322      208.088       43.229        0.043      341.065       15.517      859.382
04/30/2013  11:46:00      120.672       91.613       21.438       93.581       83.908       59.666     8757.493     7040.605     3559.982        2.138        0.968      151.507       33.932        0.050      341.467       16.197      859.352
04/30/2013  11:47:00      108.946      217.130      -29.050       86.790      106.267       76.048     7532.535    11292.589     5783.255        4.223        1.230      242.930       61.479        0.064      340.939       15.304      859.369
04/30/2013  11:48:00      104.014      197.792        2.217       90.025      123.931       68.706     8104.449    15358.963     4720.487        3.906        1.409      223.474       71.652        0.103      340.991       15.392      859.339
04/30/2013  11:49:00      106.476      166.247      -26.737       61.532      117.549       56.937     3786.162    13817.728     3241.831        3.026        1.042      197.421       56.737        0.083      340.903       15.242      859.342
04/30/2013  11:50:00      -16.186      133.040      -13.191       46.151       68.338       34.528     2129.960     4670.044     1192.175        1.306        0.400      134.021       34.364        0.066      340.992       15.395      859.323
04/30/2013  11:51:00      -26.982       95.247       -9.000       25.871       37.178       31.366      669.301     1382.240      983.833        0.646        0.152       98.995       18.475        0.035      341.312       15.938      859.334
04/30/2013  11:52:00      -52.465       -4.158        0.245      165.180      100.222       48.265    27284.586    10044.473     2329.467        2.121        1.983       52.629       61.207        1.353      341.197       15.742      859.310
04/30/2013  11:53:00      -65.404       28.505        7.011      101.067      101.317       53.508    10214.600    10265.226     2863.096        1.424        1.167       71.346       28.361        0.158      341.481       16.224      859.306
04/30/2013  11:54:00      -41.264      297.680      -28.163       99.492      192.397       57.699     9898.716    37016.749     3329.181        7.067        2.512      300.526       63.851        0.045      341.076       15.534      859.315
04/30/2013  11:55:00      -61.458      275.525      -43.726       46.430      110.248       39.918     2155.743    12154.645     1593.416        4.875        0.795      282.296       44.297        0.025      340.782       15.039      859.321
04/30/2013  11:56:00        4.293       25.678       41.104      114.409       52.469       43.237    13089.491     2753.015     1869.437        1.004        0.886       26.035       32.215        1.531      341.546       16.334      859.302
04/30/2013  11:57:00      -73.028       20.309       10.832       73.671       96.107       46.070     5427.353     9236.589     2122.410        1.132        0.839       75.799       38.362        0.256      341.479       16.220      859.304
04/30/2013  11:58:00      -38.225      134.194        8.686       90.543       77.458       44.600     8198.116     5999.686     1989.121        1.786        0.809      139.533       38.885        0.078      341.551       16.342      859.309
04/30/2013  11:59:00      -41.013      289.844      -39.992       71.043      155.413       45.162     5047.046    24153.260     2039.595        5.926        1.562      292.732       65.380        0.050      341.100       15.575      859.325
04/30/2013  12:00:00      -43.294      180.175      -15.545       81.048      109.738       53.252     6568.773    12042.441     2835.748        2.801        1.072      185.304       58.912        0.101      341.150       15.662      859.329
04/30/2013  12:01:00      -32.263       77.546       12.722       45.116       41.007       37.815     2035.483     1681.584     1429.952        0.618        0.257       83.990       26.515        0.100      341.435       16.147      859.309
04/30/2013  12:02:00      -67.423      304.711      -32.942       75.975       94.970       35.193     5772.145     9019.298     1238.576        5.725        0.802      312.081       31.397        0.010      340.778       15.030      859.277
04/30/2013  12:03:00     -126.303      153.095      -28.666       73.359       96.139       48.819     5381.613     9242.769     2383.268        2.861        0.850      198.470       52.598        0.070      341.198       15.742      859.287
04/30/2013  12:04:00      -17.305      -53.275      -21.695       23.064       66.859       26.057      531.955     4470.127      678.956        0.464        0.284       56.015       18.763        0.112      340.800       15.072      859.226
04/30/2013  12:05:00       29.413      -16.000       38.005       70.216      112.822       62.528     4930.244    12728.762     3909.703        1.206        1.078       33.483       68.501        4.185      341.352       16.004      859.149
04/30/2013  12:06:00       22.292      223.275       22.146       67.324      145.218       85.174     4532.483    21088.239     7254.655        4.185        1.644      224.385       87.672        0.153      341.392       16.071      859.128
04/30/2013  12:07:00       37.233      187.528       -9.013       67.498      150.209       68.160     4555.987    22562.627     4645.825        3.419        1.588      191.189       86.747        0.206      341.583       16.396      859.167
04/30/2013  12:08:00     -123.333      288.402      -33.490      102.511      109.055       61.984    10508.576    11893.061     3841.973        6.287        1.312      313.667       67.479        0.046      341.036       15.466      859.182
04/30/2013  12:09:00     -187.585      165.421      -40.822      105.956      115.641       57.097    11226.727    13372.846     3260.106        4.603        1.393      250.105       52.318        0.044      341.070       15.525      859.163
04/30/2013  12:10:00     -136.230       80.992      -24.371       69.154      103.246       44.425     4782.244    10659.664     1973.585        2.156        0.871      158.487       37.488        0.056      341.501       16.255      859.134
04/30/2013  12:11:00      -97.652       94.446      -11.614       91.420       66.678       47.064     8357.694     4445.898     2215.021        1.680        0.751      135.853       48.174        0.126      341.566       16.366      859.130
04/30/2013  12:12:00      -90.044       24.716      -19.064       76.871       64.014       45.620     5909.091     4097.856     2081.162        1.058        0.604       93.374       46.292        0.246      341.459       16.187      859.112
04/30/2013  12:13:00       11.096      107.193       11.361       48.365      105.606       49.902     2339.192    11152.539     2490.242        1.386        0.799      107.766       56.955        0.279      341.588       16.404      859.097
04/30/2013  12:14:00      112.013       85.353       60.283       96.298      105.954       63.392     9273.266    11226.176     4018.603        2.399        1.226      140.826       43.182        0.094      341.590       16.405      859.072
04/30/2013  12:15:00      176.264      118.035       53.171      129.813       85.481       65.448    16851.475     7307.038     4283.393        3.813        1.422      212.135       26.495        0.016      341.655       16.516      859.078
04/30/2013  12:16:00      215.685      146.747       13.986      104.720      103.175       81.589    10966.317    10645.054     6656.754        4.825        1.413      260.873       49.281        0.036      341.439       16.150      859.073
04/30/2013  12:17:00      260.400      187.056       18.652       98.266       87.354       76.633     9656.153     7630.771     5872.683        6.315        1.158      320.621       45.484        0.020      341.122       15.612      859.077
04/30/2013  12:18:00      209.020      112.216        9.663      115.472       84.302       62.738    13333.769     7106.869     3936.004        4.037        1.219      237.238       49.592        0.044      341.142       15.647      859.068
04/30/2013  12:19:00      120.580      179.644      -26.669       71.201       65.724       54.099     5069.546     4319.639     2926.711        2.992        0.616      216.359       44.570        0.042      341.145       15.651      859.092
04/30/2013  12:20:00      159.560      124.637       21.574       95.165       64.605       48.587     9056.349     4173.793     2360.721        2.852        0.780      202.469       36.006        0.032      341.275       15.872      859.094
04/30/2013  12:21:00      120.333      102.943       17.972       72.671       53.828       50.854     5281.127     2897.427     2586.161        1.808        0.538      158.358       38.275        0.058      341.124       15.617      859.092
04/30/2013  12:22:00       12.793        5.950        7.119       50.853       97.891       44.664     2586.072     9582.745     1994.829        0.720        0.708       14.109       37.962        7.240      341.825       16.807      859.076
04/30/2013  12:23:00       17.067      241.838      -36.008      135.255      111.098       60.319    18293.869    12342.803     3638.435        4.717        1.714      242.439       60.530        0.062      341.313       15.935      859.090
04/30/2013  12:24:00      117.090      128.621        2.536       72.576      125.220       75.193     5267.239    15680.057     5653.921        2.843        1.330      173.935       69.008        0.157      341.245       15.822      859.047
04/30/2013  12:25:00       23.859       48.622       -3.839       61.893       43.056       39.361     3830.737     1853.825     1549.300        0.509        0.362       54.161       25.045        0.214      341.719       16.627      859.007
04/30/2013  12:26:00       77.469      107.473        9.169       43.418       69.495       41.071     1885.096     4829.496     1686.791        1.302        0.420      132.483       25.306        0.036      342.048       17.185      859.007
04/30/2013  12:27:00       92.230      216.220       -2.560       91.995      118.835       67.617     8463.085    14121.818     4572.069        4.121        1.358      235.069       73.047        0.097      341.385       16.058      858.989
04/30/2013  12:28:00      -27.726      315.141      -35.070       99.057      140.442       57.136     9812.268    19723.978     3264.505        6.705        1.640      316.359       71.393        0.051      341.323       15.953      858.971
04/30/2013  12:29:00     -130.764      198.050      -33.843       94.364      107.077       52.905     8904.478    11465.486     2798.980        4.031        1.158      237.324       55.664        0.055      341.440       16.151      858.985
04/30/2013  12:30:00       15.834      171.714        2.373       73.964      118.949       66.882     5470.623    14148.784     4473.235        2.691        1.205      172.442       71.695        0.173      341.538       16.319      858.965
04/30/2013  12:31:00      -45.855      303.402      -28.380      112.726      114.849       64.374    12707.239    13190.400     4144.055        6.250        1.502      306.848       57.783        0.035      341.339       15.981      858.932
04/30/2013  12:32:00     -123.309      223.977      -38.467       70.434       67.947       48.009     4961.006     4616.812     2304.843        3.936        0.594      255.677       48.121        0.035      341.523       16.292      858.934
04/30/2013  12:33:00      -57.570      229.937       -9.479       64.656       94.144       50.253     4180.421     8863.118     2525.350        3.592        0.778      237.035       40.066        0.029      341.804       16.768      858.905
04/30/2013  12:34:00      -24.472      319.741      -40.032       70.844       94.706       57.357     5018.911     8969.297     3289.772        6.085        0.864      320.676       48.472        0.023      341.593       16.410      858.903
04/30/2013  12:35:00      -40.268      112.240       -1.099       65.150       94.457       51.509     4244.578     8922.157     2653.213        1.502        0.791      119.245       44.810        0.141      341.390       16.068      858.886
04/30/2013  12:36:00      -31.532      220.975      -13.345       81.606       96.663       56.853     6659.512     9343.717     3232.267        3.462        0.962      223.213       57.876        0.067      341.555       16.346      858.880
04/30/2013  12:37:00       16.922      142.606        5.152       59.605      107.159       51.729     3552.745    11483.138     2675.918        1.918        0.886      143.606       55.471        0.149      341.850       16.847      858.870
04/30/2013  12:38:00       53.675       69.661        0.831       64.768       59.679       47.674     4194.936     3561.616     2272.805        0.888        0.501       87.941       37.015        0.177      341.881       16.901      858.855
04/30/2013  12:39:00       33.166       95.642        0.897       67.809       58.851       40.467     4597.996     3463.428     1637.552        0.997        0.485      101.229       36.819        0.132      341.870       16.883      858.835
04/30/2013  12:40:00       22.705       71.041       40.582       54.020       43.516       57.741     2918.118     1893.653     3333.973        0.768        0.407       74.581       36.345        0.237      342.022       17.141      858.796
04/30/2013  12:41:00      112.310      100.940       62.977      126.091       82.695       87.955    15898.841     6838.455     7736.054        2.861        1.524      151.005       65.473        0.188      341.881       16.900      858.777
04/30/2013  12:42:00      -55.583      391.476       -3.080      202.437      137.379      129.777    40980.572    18872.888    16841.957       11.651        3.835      395.402      120.288        0.093      341.882       16.903      858.736
04/30/2013  12:43:00      115.682      169.140        3.551      140.399      119.360       74.856    19711.923    14246.822     5603.378        4.077        1.978      204.916       72.149        0.124      341.741       16.663      858.822
04/30/2013  12:44:00      328.643      167.160       28.378      187.512      108.804       80.955    35160.834    11838.269     6553.792        9.514        2.678      368.712       57.999        0.025      341.616       16.449      858.773
04/30/2013  12:45:00      177.192      281.314      -34.963      193.293      124.674       61.141    37362.374    15543.730     3738.249        8.419        2.832      332.468       62.509        0.035      341.818       16.792      858.787
04/30/2013  12:46:00      133.960      267.292       -6.476      131.403      155.927       98.247    17266.768    24313.197     9652.474        7.032        2.562      298.983       92.332        0.095      341.803       16.767      858.839
04/30/2013  12:47:00      -19.706      245.254      -28.762       58.446      111.514       62.673     3415.889    12435.471     3927.876        4.057        0.989      246.044       70.031        0.081      341.652       16.510      858.895
04/30/2013  12:48:00      -67.011      234.788      -27.538       57.319       77.638       51.166     3285.439     6027.696     2617.983        3.615        0.597      244.164       49.404        0.041      341.462       16.188      858.888
04/30/2013  12:49:00      -63.839      205.569      -30.033       41.075       52.938       39.908     1687.170     2802.389     1592.639        2.666        0.304      215.253       26.598        0.015      341.369       16.031      858.860
04/30/2013  12:50:00       68.675      277.190      -37.323      108.307      116.103       71.571    11730.464    13479.926     5122.404        5.663        1.517      285.570       59.065        0.043      341.985       17.075      858.856
04/30/2013  12:51:00      134.553      215.359       -5.597      101.389      131.362       78.332    10279.679    17255.863     6135.861        4.909        1.684      253.937       75.463        0.088      341.872       16.883      858.861
04/30/2013  12:52:00      -37.833      216.926      -21.414       89.433      127.947       68.611     7998.315    16370.358     4707.419        3.901        1.454      220.201       81.015        0.135      341.956       17.027      858.889
04/30/2013  12:53:00     -104.255       97.240      -24.488       70.216       47.068       42.824     4930.229     2215.382     1833.913        1.495        0.449      142.565       42.279        0.088      341.851       16.852      858.845
04/30/2013  12:54:00      -85.703      -36.624       17.248      111.481       45.689       46.194    12427.952     2087.509     2133.928        1.281        0.832       93.201       56.400        0.366      342.242       17.515      858.799
04/30/2013  12:55:00      -47.973       35.025        4.116       46.344       71.708       36.208     2147.734     5142.066     1311.007        0.607        0.430       59.398       29.585        0.248      342.048       17.187      858.813
04/30/2013  12:56:00      208.095      206.564       28.320      153.576       87.666       77.890    23585.548     7685.329     6066.842        6.205        1.867      293.210       59.714        0.041      341.787       16.740      858.847
04/30/2013  12:57:00      150.489      176.889        6.400       96.101       90.262       73.873     9235.317     8147.284     5457.206        3.840        1.142      232.242       57.991        0.062      341.535       16.311      858.871
04/30/2013  12:58:00      192.343      144.152       18.838       74.916       68.175       45.569     5612.435     4647.829     2076.535        3.523        0.617      240.366       30.544        0.016      341.443       16.157      858.841
04/30/2013  12:59:00       23.563       69.241        1.615       43.371       61.671       34.158     1881.008     3803.286     1166.751        0.610        0.343       73.141       31.930        0.191      341.858       16.864      858.810
04/30/2013  13:00:00       19.652      -52.490        4.310       68.916      105.495       42.065     4749.454    11129.210     1769.500        1.040        0.882       56.048       18.120        0.105      342.126       17.318      858.774
04/30/2013  13:01:00      125.095       52.735       40.769      110.905       86.483       59.597    12299.855     7479.268     3551.850        2.171        1.167      135.756       44.338        0.107      342.097       17.268      858.768
04/30/2013  13:02:00      135.077      117.191       24.088       82.779       57.306       51.903     6852.284     3283.995     2693.927        2.269        0.642      178.828       41.747        0.054      341.420       16.119      858.787
04/30/2013  13:03:00       68.352      118.265       13.408       61.379       85.384       41.624     3767.428     7290.450     1732.584        1.581        0.640      136.596       32.851        0.058      342.055       17.197      858.779
04/30/2013  13:04:00       51.023       72.521        8.605       48.146       41.732       36.556     2318.034     1741.528     1336.306        0.667        0.270       88.671       26.697        0.091      342.294       17.603      858.794
04/30/2013  13:05:00       58.917       62.243        6.502       53.768       56.637       30.150     2891.025     3207.711      909.028        0.720        0.350       85.706       26.848        0.098      342.188       17.422      858.794
04/30/2013  13:06:00       20.009      250.754      -36.790       67.807       82.630       48.266     4597.792     6827.744     2329.604        3.919        0.688      251.551       45.005        0.032      341.788       16.742      858.809
04/30/2013  13:07:00       -9.475      313.089      -49.309       71.086       78.957       40.994     5053.289     6234.144     1680.474        5.675        0.648      313.233       34.777        0.012      341.787       16.738      858.790
04/30/2013  13:08:00     -130.830      264.997      -35.925       94.629      143.634       61.402     8954.649    20630.707     3770.171        6.099        1.668      295.534       69.811        0.056      341.793       16.752      858.824
04/30/2013  13:09:00      -55.236      146.735      -12.294       55.763       54.280       43.063     3109.543     2946.304     1854.394        1.632        0.396      156.787       36.179        0.053      342.026       17.148      858.786
04/30/2013  13:10:00       96.255       95.718        7.944       83.294       53.649       41.170     6937.834     2878.219     1694.976        1.500        0.576      135.746       30.950        0.052      341.811       16.781      858.761
04/30/2013  13:11:00       -6.021      119.522        5.796      124.195       48.995       62.149    15424.448     2400.539     3862.550        1.802        1.084      119.673       73.057        0.373      341.712       16.613      858.726
04/30/2013  13:12:00      -26.642      243.427      -25.513      118.788      139.758       67.063    14110.633    19532.319     4497.491        4.937        1.907      244.881       77.208        0.099      342.136       17.331      858.742
04/30/2013  13:13:00     -195.917      266.098      -50.495       93.170      110.773       60.892     8680.629    12270.695     3707.827        6.820        1.233      330.441       58.965        0.032      341.899       16.930      858.779
04/30/2013  13:14:00     -141.362      266.873      -39.044      103.304      105.069       55.851    10671.624    11039.531     3119.376        5.877        1.242      302.000       53.655        0.032      342.044       17.175      858.780
04/30/2013  13:15:00       13.359      384.972      -55.707       77.500       80.264       43.860     6006.193     6442.295     1923.729        8.293        0.719      385.204       35.492        0.008      341.577       16.382      858.779
04/30/2013  13:16:00      -36.969      424.370      -62.609       72.419       96.958       40.946     5244.543     9400.879     1676.569       10.085        0.816      425.978       46.984        0.012      341.845       16.835      858.744
04/30/2013  13:17:00      -29.759      360.278      -57.874       76.238      125.844       43.254     5812.222    15836.827     1870.899        7.877        1.176      361.505       51.352        0.020      341.680       16.557      858.751
04/30/2013  13:18:00      -80.421      268.778      -40.483      131.156       87.379       53.072    17201.955     7635.072     2816.643        5.400        1.383      280.552       42.595        0.023      342.015       17.126      858.740
04/30/2013  13:19:00     -100.457      172.313      -15.716      115.934       86.522       60.088    13440.764     7486.031     3610.522        3.228        1.227      199.458       54.644        0.075      342.414       17.806      858.717
04/30/2013  13:20:00      -89.538       97.569       -0.180       69.693       70.060       54.339     4857.140     4908.409     2952.690        1.513        0.636      132.426       49.027        0.137      342.210       17.459      858.721
04/30/2013  13:21:00      -38.076       50.935       24.112       45.898       55.055       41.335     2106.654     3031.022     1708.580        0.573        0.342       63.594       35.404        0.310      342.653       18.213      858.714
04/30/2013  13:22:00       63.049       94.306        1.542       57.004       56.595       37.493     3249.471     3203.051     1405.695        1.036        0.393      113.441       36.992        0.106      342.437       17.846      858.700
04/30/2013  13:23:00       -7.172      174.282      -21.790       90.937       73.597       52.524     8269.468     5416.535     2758.747        2.367        0.822      174.430       44.244        0.064      341.976       17.061      858.677
04/30/2013  13:24:00      -45.535      379.898      -67.179       92.262      152.446       48.133     8512.310    23239.652     2316.802        9.248        1.703      382.617       53.614        0.020      341.697       16.587      858.667
04/30/2013  13:25:00       -1.901      294.804      -30.750      103.925      134.947       64.193    10800.423    18210.589     4120.733        6.049        1.657      294.810       76.310        0.067      342.035       17.160      858.661
04/30/2013  13:26:00        2.764      214.826      -23.962       89.085      103.138       49.299     7936.066    10637.357     2430.365        3.386        1.050      214.844       50.566        0.055      342.157       17.367      858.659
04/30/2013  13:27:00      -30.273      218.370       -2.600       69.576       94.152       53.473     4840.765     8864.600     2859.380        3.258        0.828      220.458       52.734        0.057      342.325       17.652      858.635
04/30/2013  13:28:00       98.482      142.529      -16.185       85.362       91.507       55.621     7286.643     8373.545     3093.679        2.451        0.938      173.243       54.300        0.098      341.960       17.035      858.631
04/30/2013  13:29:00       70.726       73.755       95.701       85.290       90.412       63.045     7274.390     8174.409     3974.706        1.951        0.971      102.186       56.245        0.303      341.971       17.054      858.598
04/30/2013  13:30:00      121.541      115.353       63.428       59.042       42.894       65.767     3485.924     1839.903     4325.281        2.087        0.483      167.566       39.279        0.055      342.212       17.461      858.592
04/30/2013  13:31:00       45.267       23.025       37.530       97.458       70.046       65.649     9498.047     4906.409     4309.754        1.135        0.936       50.786       43.771        0.743      342.465       17.892      858.576
04/30/2013  13:32:00       81.287       95.762      132.958      149.501      139.203      103.533    22350.514    19377.594    10719.143        4.294        2.622      125.610       98.300        0.612      342.499       17.949      858.557
04/30/2013  13:33:00       38.159       76.464       83.475      108.483      109.621       60.105    11768.621    12016.782     3612.603        2.083        1.370       85.457       36.998        0.187      342.633       18.177      858.540
04/30/2013  13:34:00       12.806      122.448      107.991      107.918      117.355      133.757    11646.210    13772.132    17890.859        3.506        2.165      123.115      108.085        0.771      342.248       17.523      858.551
04/30/2013  13:35:00        1.859       23.499       -2.184       63.996       61.457       45.213     4095.488     3776.931     2044.223        0.524        0.496       23.573       40.027        2.883      342.157       17.371      858.551
04/30/2013  13:36:00       -3.553      -91.977       -2.598       64.114       62.853       50.619     4110.661     3950.522     2562.332        0.955        0.531       92.046       34.301        0.139      342.482       17.922      858.512
04/30/2013  13:37:00       49.665      -17.053       60.931      106.356       90.117       53.716    11311.702     8121.116     2885.420        1.439        1.116       52.511       57.480        1.198      342.766       18.405      858.504
04/30/2013  13:38:00       64.603      -34.278       63.817       62.288      139.320       62.963     3879.733    19409.976     3964.335        1.833        1.363       73.133       72.067        0.971      342.285       17.586      858.490
04/30/2013  13:39:00       51.769      -11.259       27.067       74.832       87.031       61.615     5599.884     7574.449     3796.370        1.025        0.849       52.979       60.634        1.310      342.115       17.299      858.473
04/30/2013  13:40:00       94.025       90.643       92.252      105.817       78.020       62.676    11197.232     6087.106     3928.289        2.339        1.061      130.602       61.530        0.222      342.175       17.399      858.429
04/30/2013  13:41:00      267.320      209.831      105.744      157.601      141.641      131.332    24838.051    20062.312    17248.086        9.440        3.107      339.837       99.052        0.085      342.516       17.978      858.410
04/30/2013  13:42:00       46.215      385.037      -18.705      140.117      107.871      122.433    19632.638    11636.163    14989.850        9.849        2.313      387.800       69.502        0.032      342.335       17.670      858.413
04/30/2013  13:43:00      -42.369      316.707      -44.872       57.995      124.444       51.300     3363.430    15486.410     2631.652        6.279        1.074      319.528       62.623        0.038      342.213       17.462      858.493
04/30/2013  13:44:00        3.071      433.228      -64.248       78.682      106.032       42.448     6190.789    11242.723     1801.868       10.553        0.962      433.238       51.101        0.014      341.836       16.821      858.491
04/30/2013  13:45:00       14.552      287.375      -41.210       49.452       66.076       42.338     2445.540     4366.092     1792.504        4.655        0.430      287.744       40.595        0.020      342.066       17.213      858.483
04/30/2013  13:46:00     -140.006      182.600      -25.749      142.539       98.365       53.482    20317.434     9675.610     2860.327        4.322        1.643      230.096       52.961        0.053      342.509       17.965      858.479
04/30/2013  13:47:00     -143.146      118.139      -18.451       80.605       86.442       56.910     6497.155     7472.242     3238.742        2.599        0.860      185.601       45.409        0.060      342.358       17.710      858.499
04/30/2013  13:48:00     -199.838       46.935      -19.075      129.383      133.995       71.183    16739.942    17954.702     5066.988        4.112        1.988      205.275       91.045        0.197      342.377       17.743      858.469
04/30/2013  13:49:00     -199.312       40.153      -27.062       87.351       62.958       50.147     7630.280     3963.759     2514.733        2.809        0.705      203.316       36.566        0.032      342.413       17.804      858.495
04/30/2013  13:50:00     -101.824       23.652        3.613       77.455       52.810       35.029     5999.236     2788.918     1227.051        1.048        0.501      104.535       31.629        0.092      342.944       18.708      858.485
04/30/2013  13:51:00      -82.501       -2.762       -1.101       98.023      103.097       46.606     9608.588    10628.978     2172.155        1.461        1.120       82.547       47.488        0.331      342.883       18.605      858.485
04/30/2013  13:52:00      -57.491       13.797      -15.888       65.862       71.784       50.225     4337.787     5153.013     2522.557        0.788        0.601       59.124       38.094        0.415      342.578       18.086      858.483
04/30/2013  13:53:00     -133.923      -54.734        6.454      122.906       94.563       46.481    15105.989     8942.068     2160.478        2.359        1.310      144.676       60.966        0.178      342.627       18.168      858.462
04/30/2013  13:54:00     -223.524      -91.237       -3.067      124.348       92.757       47.749    15462.544     8603.863     2279.989        4.232        1.317      241.428       21.086        0.008      342.419       17.815      858.450
04/30/2013  13:55:00     -169.893       45.178      -22.839       63.703       60.979       29.915     4058.061     3718.444      894.910        2.005        0.434      175.797       23.722        0.018      342.705       18.300      858.457
04/30/2013  13:56:00      -53.849       48.268       -3.597       58.838       61.115       37.282     3461.861     3735.100     1389.950        0.691        0.429       72.316       34.864        0.232      343.373       19.440      858.470
04/30/2013  13:57:00      -26.062       92.700        0.279       49.208       58.138       46.550     2421.460     3380.038     2166.935        0.862        0.398       96.294       42.924        0.199      343.175       19.103      858.462
04/30/2013  13:58:00       34.595      142.522       17.075       75.861      124.420       61.831     5754.838    15480.409     3823.045        2.342        1.253      146.660       70.264        0.230      342.747       18.372      858.449
04/30/2013  13:59:00     -105.397      117.024       -8.279       77.980      105.171       43.910     6080.856    11060.990     1928.096        2.197        0.953      157.490       38.877        0.061      342.647       18.202      858.452
04/30/2013  14:00:00       77.401      141.515      -11.687       69.070       96.012       55.111     4770.683     9218.288     3037.275        2.159        0.851      161.300       50.745        0.099      342.981       18.769      858.437
04/30/2013  14:01:00       99.907      107.191       -3.705       34.481       59.858       43.801     1188.933     3582.979     1918.562        1.409        0.335      146.531       34.038        0.054      342.273       17.567      858.446
04/30/2013  14:02:00       50.875       60.239       54.017       38.259       44.567       26.743     1463.770     1986.196      715.176        0.665        0.208       78.848       11.077        0.020      342.281       17.580      858.403
04/30/2013  14:03:00       47.224       30.698       31.552       30.099       26.676       35.095      905.975      711.636     1231.692        0.351        0.142       56.325       26.919        0.228      342.271       17.564      858.373
04/30/2013  14:04:00       17.429       59.534       -8.670       46.317       61.150       25.185     2145.221     3739.368      634.278        0.522        0.326       62.033       25.095        0.164      342.339       17.679      858.366
04/30/2013  14:05:00       93.617      100.003        9.996       64.524       84.108       53.743     4163.391     7074.149     2888.294        1.649        0.706      136.984       47.972        0.123      342.632       18.178      858.354
04/30/2013  14:06:00       23.701      184.941      -11.596      119.510      122.582       65.773    14282.746    15026.349     4326.144        3.426        1.682      186.453       61.355        0.108      343.079       18.937      858.327
04/30/2013  14:07:00       96.319      108.951       21.903      124.225       96.629       62.062    15431.919     9337.168     3851.712        2.512        1.431      145.422       43.872        0.091      343.338       19.377      858.318
04/30/2013  14:08:00      -35.024      169.903      -12.845       44.917       74.277       42.734     2017.548     5517.079     1826.156        1.981        0.468      173.475       37.470        0.047      342.669       18.240      858.342
04/30/2013  14:09:00       13.304       52.859       13.572       57.799       54.011       35.731     3340.671     2917.137     1276.728        0.534        0.377       54.507       33.349        0.374      342.905       18.641      858.350
04/30/2013  14:10:00       49.529      117.534       -7.947       48.799       97.798       40.903     2381.382     9564.449     1673.018        1.497        0.681      127.543       44.294        0.121      342.851       18.550      858.350
04/30/2013  14:11:00      142.506      105.430       23.388      104.539       65.005       52.242    10928.461     4225.605     2729.188        2.492        0.894      177.267       22.309        0.016      343.019       18.835      858.355
04/30/2013  14:12:00       -4.501      145.737      -42.504       47.762       80.335       32.798     2281.221     6453.643     1075.706        1.644        0.491      145.807       35.549        0.059      342.574       18.078      858.370
04/30/2013  14:13:00      -65.069      170.036      -12.746       55.814       64.104       37.070     3115.248     4109.366     1374.221        2.095        0.430      182.061       25.914        0.020      342.866       18.574      858.362
04/30/2013  14:14:00      -51.067       86.405       -1.972       67.988       45.356       30.472     4622.427     2057.212      928.570        0.884        0.380      100.368       21.804        0.047      342.935       18.694      858.354
04/30/2013  14:15:00      -21.664      114.220       -3.014       37.202       50.909       43.075     1383.969     2591.753     1855.432        0.968        0.292      116.257       30.601        0.069      343.069       18.920      858.346
04/30/2013  14:16:00        4.933      104.228      -13.194       44.242       96.154       38.680     1957.393     9245.524     1496.116        1.188        0.635      104.345       26.233        0.063      342.669       18.240      858.331
04/30/2013  14:17:00      -19.814       75.128       25.386       98.135       77.870       41.424     9630.473     6063.775     1715.956        1.204        0.871       77.696       41.415        0.284      343.160       19.076      858.308
04/30/2013  14:18:00      -32.923      185.970      -17.035       81.794       88.664       48.065     6690.269     7861.260     2310.269        2.641        0.843      188.862       40.900        0.047      343.109       18.989      858.299
04/30/2013  14:19:00      100.310       91.926        9.122      102.860       69.199       66.051    10580.180     4788.465     4362.744        1.916        0.987      136.061       45.559        0.112      342.985       18.778      858.297
04/30/2013  14:20:00       47.751      117.753        3.520       87.590       82.574       59.948     7671.925     6818.455     3593.813        1.712        0.904      127.067       53.116        0.175      343.263       19.250      858.306
04/30/2013  14:21:00       47.797      107.622        2.665       80.539       75.552       58.822     6486.477     5708.069     3459.982        1.476        0.783      117.759       52.970        0.202      343.032       18.857      858.287
04/30/2013  14:22:00      196.775      158.246       16.092      122.154       76.976       72.071    14921.572     5925.260     5194.157        4.503        1.302      252.512       57.253        0.051      342.867       18.574      858.265
04/30/2013  14:23:00      206.119      127.257        6.273       81.838       56.748       48.411     6697.519     3220.380     2343.633        3.549        0.613      242.239       23.330        0.009      342.619       18.153      858.287
04/30/2013  14:24:00       37.906      177.770      -34.761       52.368       84.727       31.210     2742.396     7178.653      974.043        2.257        0.545      181.767       34.807        0.037      342.389       17.763      858.297
04/30/2013  14:25:00      -80.969       47.345      -15.763       56.497       70.931       25.504     3191.861     5031.274      650.462        0.896        0.444       93.796       20.145        0.046      342.662       18.229      858.290
04/30/2013  14:26:00      -14.978      -89.001       -6.538      109.155       75.462       52.191    11914.878     5694.444     2723.901        1.426        1.017       90.252       46.406        0.264      342.870       18.583      858.267
04/30/2013  14:27:00       37.881       -0.481       42.718       70.349       94.745       64.497     4949.009     8976.596     4159.851        1.067        0.904       37.884       59.281        2.449      342.922       18.669      858.261
04/30/2013  14:28:00       81.534       27.002       10.930       74.834       85.318       46.018     5600.186     7279.217     2117.641        1.124        0.750       85.889       25.739        0.090      342.663       18.229      858.256
04/30/2013  14:29:00      159.767       96.383       42.073      125.503      111.372       56.160    15751.035    12403.781     3153.903        3.394        1.565      186.588       21.106        0.013      342.744       18.366      858.243
04/30/2013  14:30:00      325.859      161.007       14.909      120.308      107.750       91.821    14473.955    11610.015     8431.106        8.342        1.726      363.466       49.701        0.019      342.718       18.321      858.243
04/30/2013  14:31:00      267.031      151.249       32.626       94.629       92.884       72.427     8954.710     8627.398     5245.640        5.903        1.141      306.890       56.477        0.034      342.525       17.994      858.264
04/30/2013  14:32:00      221.869      138.214       55.785      134.484       87.901       86.217    18085.918     7726.552     7433.379        5.234        1.662      261.399       67.873        0.067      342.811       18.478      858.247
04/30/2013  14:33:00      267.155      138.026       66.723      155.211      125.154       98.428    24090.529    15663.469     9688.062        7.215        2.472      300.705       65.769        0.048      342.656       18.215      858.235
04/30/2013  14:34:00      213.715      166.474       40.638       99.716       74.530       79.521     9943.318     5554.787     6323.624        4.843        1.091      270.902       69.831        0.066      342.791       18.444      858.230
04/30/2013  14:35:00      198.115      139.803       64.571       91.934       60.872       68.302     8451.933     3705.365     4665.203        3.989        0.841      242.475       50.127        0.043      342.309       17.624      858.224
04/30/2013  14:36:00      107.713       89.199       39.307       63.671       59.494       50.412     4053.942     3539.517     2541.412        1.562        0.507      139.852       28.602        0.042      342.657       18.218      858.203
04/30/2013  14:37:00       52.726       64.665        3.895       49.566       54.646       28.600     2456.795     2986.226      817.944        0.662        0.313       83.436       26.823        0.103      342.533       18.009      858.213
04/30/2013  14:38:00      -39.449      169.709      -18.959       63.009       94.575       41.287     3970.075     8944.375     1704.598        2.267        0.731      174.234       37.311        0.046      342.779       18.426      858.215
04/30/2013  14:39:00     -120.991      197.250        1.109       97.350      132.421       74.665     9477.062    17535.280     5574.893        4.306        1.629      231.401       87.958        0.144      343.044       18.877      858.174
04/30/2013  14:40:00     -106.877      181.708      -23.697       64.021       87.251       44.358     4098.730     7612.793     1967.631        2.934        0.684      210.809       44.423        0.044      342.755       18.384      858.164
04/30/2013  14:41:00       -7.119      292.500      -36.845       66.853       88.022       36.555     4469.364     7747.945     1336.232        5.026        0.678      292.587       42.434        0.021      342.793       18.447      858.180
04/30/2013  14:42:00       80.031      162.215       -3.786       78.557      127.124       60.623     6171.217    16160.522     3675.118        2.936        1.300      180.883       74.384        0.169      343.257       19.240      858.176
04/30/2013  14:43:00      -14.897      139.810       -2.780       70.791       77.170       53.551     5011.412     5955.231     2867.674        1.680        0.692      140.602       52.338        0.139      343.203       19.149      858.143
04/30/2013  14:44:00      197.929      147.246       30.501      162.002      105.092       79.982    26244.507    11044.271     6397.081        5.273        2.184      246.693       63.662        0.067      342.989       18.783      858.148
04/30/2013  14:45:00      331.062      236.437       24.387      125.305      108.390       86.382    15701.231    11748.312     7461.884       10.050        1.746      406.823       55.606        0.019      342.607       18.131      858.135
04/30/2013  14:46:00      254.050      185.974       24.650      145.251       86.423       74.496    21097.928     7469.015     5549.620        6.692        1.706      314.845       43.001        0.019      342.640       18.188      858.143
04/30/2013  14:47:00      154.878      153.938        2.704      114.610      118.641       84.516    13135.371    14075.753     7142.951        4.102        1.718      218.367       67.677        0.096      342.731       18.344      858.146
04/30/2013  14:48:00       79.556      104.585        2.169       85.019       53.459       42.006     7228.154     2857.915     1764.528        1.456        0.593      131.405       33.539        0.065      342.828       18.509      858.162
04/30/2013  14:49:00      192.944      145.878       26.313      104.764       78.775       70.831    10975.477     6205.432     5017.042        4.069        1.110      241.884       59.882        0.061      342.772       18.411      858.159
04/30/2013  14:50:00      133.336      192.732       -4.969      157.263      120.488       73.489    24731.619    14517.292     5400.704        4.979        2.232      234.359       77.177        0.108      342.635       18.180      858.120
04/30/2013  14:51:00       70.073      158.374        9.400      107.055      126.918       77.750    11460.847    16108.302     6045.054        3.184        1.681      173.183       68.053        0.154      343.171       19.093      858.116
04/30/2013  14:52:00      -55.405      198.353      -13.775       91.919      112.047       58.149     8449.110    12554.482     3381.309        3.349        1.219      205.946       52.497        0.065      343.286       19.290      858.148
04/30/2013  14:53:00      302.101      240.031       11.846      164.869      113.278      104.129    27181.841    12831.889    10842.931        9.993        2.543      385.850       79.731        0.043      342.863       18.565      858.148
04/30/2013  14:54:00      281.986      195.012       38.168      123.479       83.861       91.317    15247.111     7032.604     8338.807        7.480        1.531      342.850       58.397        0.029      342.622       18.157      858.136
04/30/2013  14:55:00      158.171       88.912       35.148      119.004       87.804       66.384    14161.878     7709.541     4406.872        3.021        1.314      181.448       45.277        0.062      342.852       18.549      858.118
04/30/2013  14:56:00      136.190       81.634       20.443       78.382       62.182       55.119     6143.709     3866.640     3038.099        1.934        0.652      158.782       37.665        0.056      343.132       19.027      858.104
04/30/2013  14:57:00      237.232      182.909       22.393      122.618      101.905       71.256    15035.218    10384.664     5077.426        6.036        1.525      299.557       48.688        0.026      343.085       18.944      858.093
04/30/2013  14:58:00      150.987       90.341       28.663       99.337       84.470       54.335     9867.902     7135.147     2952.253        2.586        0.998      175.951       20.622        0.014      343.328       19.360      858.089
04/30/2013  14:59:00      130.434       82.351       66.919      109.634       75.172       62.787    12019.598     5650.808     3942.237        2.494        1.081      154.255       38.217        0.061      343.080       18.937      858.059
04/30/2013  15:00:00      114.769       73.339       44.475      113.687       82.584       53.112    12924.686     6820.165     2820.844        2.154        1.128      136.200       56.608        0.173      342.665       18.231      858.078
04/30/2013  15:01:00       29.339      226.828      -30.727       47.275       81.797       41.401     2234.917     6690.799     1714.060        3.195        0.532      228.717       39.908        0.030      342.667       18.234      858.084
04/30/2013  15:02:00      -60.542      152.286       -4.029       84.368       83.693       47.983     7117.895     7004.518     2302.327        2.165        0.821      163.879       26.869        0.027      342.994       18.792      858.052
04/30/2013  15:03:00       57.389      230.132      -14.322       68.565      141.271       67.696     4701.213    19957.607     4582.706        4.284        1.462      237.179       70.954        0.089      343.354       19.405      858.065
04/30/2013  15:04:00       95.507      144.017       -5.594       90.953       77.782       63.901     8272.362     6050.065     4083.356        2.415        0.920      172.807       55.579        0.103      343.302       19.317      858.067
04/30/2013  15:05:00       25.547      371.985      -54.919       76.805      120.811       59.468     5899.015    14595.300     3536.395        8.303        1.202      372.862       56.201        0.023      342.846       18.538      858.074
04/30/2013  15:06:00      -38.546      278.931      -35.689       96.725       78.852       37.873     9355.676     6217.696     1434.353        4.878        0.850      281.582       27.598        0.010      342.874       18.586      858.085
04/30/2013  15:07:00       96.473      229.892      -23.085       79.748      125.237       68.120     6359.778    15684.343     4640.329        4.468        1.334      249.314       74.458        0.089      342.666       18.233      858.091
04/30/2013  15:08:00       66.691      173.705      -24.090       72.129       99.995       59.550     5202.598     9998.994     3546.187        2.697        0.937      186.068       60.203        0.105      342.585       18.094      858.088
04/30/2013  15:09:00      145.866      103.383        3.660       54.475       67.184       48.816     2967.485     4513.702     2382.969        2.092        0.493      178.787       41.058        0.053      342.523       17.990      858.069
04/30/2013  15:10:00      109.277      157.265      -10.687       82.777       81.806       55.815     6852.068     6692.201     3115.258        2.672        0.833      191.504       43.690        0.052      342.612       18.141      858.056
04/30/2013  15:11:00      167.145      149.868       16.796      101.197      106.496       74.884    10240.845    11341.414     5607.605        3.893        1.359      224.495       56.866        0.064      342.718       18.320      858.042
04/30/2013  15:12:00      177.722      159.540        9.426      136.602      141.704      112.708    18660.029    20080.014    12703.116        5.427        2.572      238.827       96.422        0.163      342.897       18.627      858.017
04/30/2013  15:13:00      301.166      214.393        6.864      181.586      133.105      117.574    32973.415    17716.855    13823.622       10.060        3.226      369.683       80.299        0.047      343.181       19.107      857.971
04/30/2013  15:14:00      133.743      101.533       44.757      111.971       87.688       82.309    12537.611     7689.270     6774.853        2.860        1.350      167.917       67.716        0.163      343.561       19.757      858.040
04/30/2013  15:15:00      192.926       93.511       30.074      151.476       93.150       71.236    22945.127     8676.854     5074.634        4.178        1.835      214.394       41.765        0.038      343.324       19.353      858.085
04/30/2013  15:16:00      107.956      149.578       14.128      173.533       97.508       65.757    30113.707     9507.863     4324.040        3.908        2.197      184.467       59.419        0.104      343.261       19.244      858.115
04/30/2013  15:17:00       44.038      150.695       -7.268      101.378       81.513       52.019    10277.501     6644.370     2706.023        2.216        0.981      156.998       51.186        0.106      343.344       19.388      858.109
04/30/2013  15:18:00      146.585      176.330       24.570      151.532      114.919       91.205    22961.996    13206.488     8318.402        4.883        2.224      229.302       73.697        0.103      343.125       19.013      858.090
04/30/2013  15:19:00      127.254      195.310       15.447      160.152      132.233       99.901    25648.774    17485.600     9980.269        5.384        2.656      233.109       88.803        0.145      343.033       18.857      858.048
04/30/2013  15:20:00      249.254      176.335       35.812      189.631      128.698       95.446    35959.795    16563.147     9109.930        7.806        3.082      305.323       68.939        0.051      343.195       19.133      858.014
04/30/2013  15:21:00      176.469      154.361       24.188      117.042      115.016       96.500    13698.878    13228.734     9312.223        4.589        1.812      234.454       39.043        0.028      343.412       19.504      858.018
04/30/2013  15:22:00      259.852      174.206       56.424      191.502      135.058       99.948    36673.011    18240.736     9989.515        8.297        3.245      312.844       63.279        0.041      343.379       19.446      858.038
04/30/2013  15:23:00      312.249      294.403       16.757      238.138      133.323      115.013    56709.562    17775.088    13227.922       13.607        4.386      429.153       67.078        0.024      342.791       18.444      858.059
04/30/2013  15:24:00       44.286      334.576      -34.874      103.407      189.794       82.411    10692.951    36021.648     6791.527        8.430        2.675      337.494       99.203        0.086      342.910       18.648      858.107
04/30/2013  15:25:00       46.653      351.973      -26.342      156.841      278.103      114.898    24599.044    77341.308    13201.550       12.093        5.757      355.051      143.461        0.163      343.009       18.816      858.079
04/30/2013  15:26:00      335.510      221.127        3.074      140.459      148.364       87.453    19728.642    22011.869     7648.015       10.542        2.469      401.826       78.280        0.038      342.963       18.737      858.098
04/30/2013  15:27:00      274.618      258.126       25.963      236.714      166.153      115.556    56033.313    27606.767    13353.276       11.984        4.850      376.887       90.726        0.058      342.729       18.339      858.083
04/30/2013  15:28:00      228.846      306.542      -24.087      175.699      246.698       93.440    30870.025    60860.149     8730.967       12.367        5.023      382.542      115.249        0.091      342.594       18.110      858.075
04/30/2013  15:29:00       69.941      308.308      -25.484       91.533      227.298       91.006     8378.244    51664.466     8282.031        8.445        3.416      316.142      116.402        0.136      342.896       18.624      858.046
04/30/2013  15:30:00      362.859      278.169       -3.495      195.853      175.061      113.466    38358.349    30646.357    12874.477       14.545        4.094      457.214       90.840        0.039      342.757       18.388      858.043
04/30/2013  15:31:00      108.923       90.907       53.365      155.724       91.979       89.807    24249.957     8460.067     8065.316        3.187        2.039      141.874       49.289        0.121      342.857       18.559      858.023
04/30/2013  15:32:00      147.284      159.520        4.955      157.420      119.237       84.246    24781.075    14217.415     7097.372        4.662        2.305      217.116       57.590        0.070      342.947       18.712      858.072
04/30/2013  15:33:00      184.646      258.922        9.766      175.996      176.987      125.812    30974.466    31324.287    15828.551        8.966        3.906      318.017      109.110        0.118      342.597       18.114      858.105
04/30/2013  15:34:00      104.032      327.076      -23.364      135.906      209.085      101.454    18470.576    43716.661    10292.825        9.540        3.624      343.222      119.967        0.122      342.538       18.015      858.131
04/30/2013  15:35:00       67.138      283.694      -21.333      125.455      175.974       86.653    15739.069    30966.983     7508.804        6.982        2.711      291.530       96.340        0.109      342.651       18.206      858.138
04/30/2013  15:36:00      115.932      374.491      -13.984      192.043      224.064      122.553    36880.599    50204.869    15019.235       12.797        5.105      392.025      120.129        0.094      342.842       18.531      858.162
04/30/2013  15:37:00       77.911      324.292      -11.940      162.291      216.552      122.868    26338.328    46894.660    15096.630        9.984        4.416      333.520      118.878        0.127      342.646       18.199      858.186
04/30/2013  15:38:00      -14.599      325.726      -45.177      104.451      115.914       56.361    10909.995    13435.941     3176.538        6.793        1.376      326.053       45.273        0.019      342.932       18.684      858.190
04/30/2013  15:39:00       55.833      320.440      -29.167       92.150      223.318       79.278     8491.653    49870.964     6285.002        8.564        3.232      325.268       95.427        0.086      342.956       18.727      858.196
04/30/2013  15:40:00       84.527      320.500      -15.846      110.131      195.640      105.729    12128.821    38275.152    11178.596        8.584        3.079      331.459      106.434        0.103      342.953       18.721      858.191
04/30/2013  15:41:00      184.579      182.625       22.073      149.361      122.759      101.596    22308.791    15069.780    10321.660        5.779        2.385      259.656       83.606        0.104      342.874       18.587      858.176
04/30/2013  15:42:00      207.447      203.469       -1.210      140.046      119.448       92.714    19612.818    14267.891     8595.961        6.345        2.124      290.575       70.441        0.059      342.721       18.326      858.137
04/30/2013  15:43:00      314.839      299.422       13.374      217.434      125.906       99.839    47277.332    15852.297     9967.841       13.101        3.655      434.485       95.187        0.048      342.695       18.281      858.138
04/30/2013  15:44:00      112.063      196.886        6.166      123.043      121.758       90.814    15139.461    14825.106     8247.184        4.478        1.911      226.545       76.600        0.114      342.905       18.639      858.146
04/30/2013  15:45:00      259.302      174.601       24.182      231.173      112.132       96.091    53441.038    12573.585     9233.504        8.676        3.762      312.607       55.485        0.032      342.860       18.562      858.133
04/30/2013  15:46:00       83.484      225.920       15.569      158.695      160.600      114.100    25184.183    25792.416    13018.914        6.111        3.200      240.851       99.174        0.170      342.898       18.628      858.186
04/30/2013  15:47:00      147.710      235.938        1.869      162.596      160.812      111.897    26437.607    25860.420    12520.904        7.114        3.241      278.361       96.510        0.120      342.884       18.602      858.195
04/30/2013  15:48:00      100.626      319.571      -27.318      147.068      189.976       98.839    21629.079    36091.063     9769.218        9.023        3.374      335.039      104.791        0.098      342.886       18.607      858.204
04/30/2013  15:49:00       18.549      282.077      -26.926      102.286      133.820       86.939    10462.472    17907.710     7558.407        5.828        1.796      282.686       76.703        0.074      342.999       18.797      858.215
04/30/2013  15:50:00       86.939      321.909      -34.147      118.491      159.791       96.079    14040.187    25533.283     9231.085        8.057        2.440      333.442       96.538        0.084      342.538       18.016      858.198
04/30/2013  15:51:00       91.464      262.129       -6.270      139.681      124.818       83.067    19510.903    15579.425     6900.159        5.955        2.100      277.628       68.022        0.060      342.746       18.368      858.185
04/30/2013  15:52:00      151.050      186.281        5.942      131.149      122.162      101.385    17200.186    14923.434    10278.908        4.997        2.120      239.826       81.034        0.114      342.932       18.684      858.187
04/30/2013  15:53:00      249.027      224.690       35.114      180.921      135.093      118.869    32732.460    18250.229    14129.747        8.941        3.256      335.410       78.193        0.054      342.933       18.686      858.198
04/30/2013  15:54:00      167.405      260.093       12.662      228.465      165.165      117.079    52196.053    27279.552    13707.576        9.449        4.659      309.310      100.911        0.106      342.691       18.275      858.209
04/30/2013  15:55:00       57.608      145.594       15.179      139.608      136.838       75.426    19490.434    18724.766     5689.140        3.432        2.195      156.576       82.117        0.275      342.909       18.646      858.264
04/30/2013  15:56:00       45.562      211.219       -5.174      127.288      139.930       82.853    16202.174    19580.508     6864.538        4.467        2.132      216.077       73.555        0.116      342.673       18.245      858.229
04/30/2013  15:57:00       64.534      391.480      -51.205       97.413      196.163       92.009     9489.285    38479.782     8465.727       10.823        2.822      396.763      102.347        0.067      342.616       18.146      858.190
04/30/2013  15:58:00       99.172      236.835      -12.955      132.570      186.830       97.813    17574.845    34905.596     9567.345        6.406        3.102      256.760       97.592        0.144      342.727       18.336      858.164
04/30/2013  15:59:00      159.538      165.314       68.834      175.003       93.762       99.984    30625.942     8791.257     9996.894        5.346        2.471      229.742       48.243        0.044      342.801       18.461      858.133
04/30/2013  16:00:00      269.342      146.290       55.294      227.917      123.953      125.537    51946.212    15364.403    15759.569        9.002        4.154      306.506       63.821        0.043      342.838       18.525      858.113
04/30/2013  16:01:00      322.276      201.735       32.936      195.393      149.582      104.431    38178.271    22374.723    10905.745       10.854        3.573      380.209       66.463        0.031      342.923       18.671      858.156
04/30/2013  16:02:00       74.246      310.599       -7.562      154.618      174.329       95.498    23906.674    30390.684     9119.815        8.272        3.171      319.350       95.671        0.090      342.948       18.713      858.185
04/30/2013  16:03:00       28.445      297.280      -22.736      166.478      168.236       93.059    27715.001    28303.468     8660.054        7.718        3.234      298.638       92.433        0.096      342.933       18.687      858.205
04/30/2013  16:04:00      151.075      267.416       -7.340      142.311      188.269      109.702    20252.368    35445.291    12034.453        8.105        3.387      307.140      104.021        0.115      342.685       18.264      858.210
04/30/2013  16:05:00      135.482      323.190      -18.428      159.838      223.979       92.160    25548.195    50166.432     8493.459       10.366        4.210      350.438      112.834        0.104      342.673       18.244      858.193
04/30/2013  16:06:00       49.128      373.495      -35.846      149.148      201.659      103.331    22245.039    40666.268    10677.263       10.838        3.679      376.712       96.321        0.065      342.718       18.322      858.193
04/30/2013  16:07:00      258.021      246.976       31.394      186.550      124.039       98.955    34800.852    15385.659     9792.001        9.426        2.999      357.172       58.129        0.026      342.467       17.894      858.193
04/30/2013  16:08:00      118.564      145.292       10.462      129.038       95.636       69.703    16650.827     9146.285     4858.571        3.296        1.533      187.529       70.096        0.140      342.517       17.979      858.146
04/30/2013  16:09:00      185.658      168.474       21.347      137.959      118.059      111.644    19032.789    13937.906    12464.286        5.436        2.272      250.704       77.967        0.097      342.447       17.860      858.123
04/30/2013  16:10:00       71.967      189.308       -2.001       94.114      122.373       71.169     8857.495    14975.035     5065.022        3.495        1.445      202.526       66.853        0.109      342.760       18.392      858.135
04/30/2013  16:11:00       73.228      134.855       -0.749      137.669       86.875       65.855    18952.831     7547.315     4336.834        2.719        1.542      153.454       51.013        0.111      343.141       19.043      858.160
04/30/2013  16:12:00       78.592      171.850       -0.781      123.335      153.364      107.344    15211.443    23520.428    11522.732        4.297        2.513      188.968       99.210        0.276      342.887       18.609      858.183
04/30/2013  16:13:00      212.636      258.259        1.230      185.352      118.791      100.777    34355.220    14111.323    10156.007        8.526        2.931      334.532       63.994        0.037      342.850       18.545      858.172
04/30/2013  16:14:00      205.139      199.337       21.208      163.804      128.929      100.846    26831.701    16622.619    10169.839        6.794        2.681      286.037       69.741        0.059      342.623       18.160      858.168
04/30/2013  16:15:00      182.664      171.303        1.498      159.990      113.961       93.383    25596.716    12987.030     8720.458        5.500        2.365      250.421       63.905        0.065      342.780       18.426      858.135
04/30/2013  16:16:00      322.935      217.652       38.285      195.027      131.350      101.383    38035.429    17252.826    10278.588       10.933        3.278      389.434       77.276        0.039      342.738       18.355      858.126
04/30/2013  16:17:00      260.704      259.556       25.983      173.181      145.016      104.124    29991.749    21029.516    10841.859        9.892        3.093      367.880       86.187        0.055      342.503       17.955      858.133
04/30/2013  16:18:00      264.884      193.793       47.902      156.266      127.209       88.542    24418.981    16182.131     7839.654        7.922        2.422      328.206       66.234        0.041      342.404       17.787      858.154
04/30/2013  16:19:00      158.524      168.444        9.832      161.165      120.454       69.878    25974.039    14509.196     4882.934        4.947        2.268      231.307       56.768        0.060      342.727       18.338      858.166
04/30/2013  16:20:00       81.178      355.512      -33.836      174.608      185.243       96.850    30487.937    34315.038     9379.844       10.414        3.709      364.662       97.687        0.072      342.693       18.277      858.199
04/30/2013  16:21:00      -40.854      454.051      -36.161      108.490      190.445       77.345    11770.036    36269.307     5982.314       13.157        2.701      455.885       79.641        0.031      342.673       18.244      858.228
04/30/2013  16:22:00      -35.496      361.657      -35.602      125.391      179.294       79.071    15722.895    32146.391     6252.164        9.371        2.706      363.395       89.775        0.061      342.763       18.398      858.227
04/30/2013  16:23:00      143.281      157.087       -4.624      115.308      124.144       76.917    13295.847    15411.637     5916.198        3.992        1.731      212.616       63.786        0.090      342.888       18.610      858.221
04/30/2013  16:24:00       59.773      183.020        0.586      119.786      124.279       96.157    14348.717    15445.356     9246.188        3.805        1.952      192.533       71.271        0.137      342.622       18.157      858.214
04/30/2013  16:25:00       21.351      275.000      -18.190      167.772      145.508       78.164    28147.461    21172.637     6109.633        6.591        2.771      275.828       86.368        0.098      342.610       18.137      858.225
04/30/2013  16:26:00      -98.927      307.545      -44.558      114.767      107.367       60.632    13171.423    11527.774     3676.192        6.736        1.419      323.064       51.682        0.026      342.836       18.521      858.245
04/30/2013  16:27:00      127.634      138.311       19.756      106.068      105.774       89.807    11250.499    11188.069     8065.295        3.315        1.525      188.203       66.961        0.127      342.785       18.435      858.236
04/30/2013  16:28:00      -71.488      220.430      -25.704      124.533      163.116       63.664    15508.451    26606.907     4053.072        5.026        2.308      231.732       67.877        0.086      342.870       18.580      858.247
04/30/2013  16:29:00     -138.958      467.025      -52.613      135.537      230.812       75.063    18370.201    53274.095     5634.408       15.872        3.864      487.259      104.775        0.046      342.803       18.464      858.280
04/30/2013  16:30:00     -180.864      487.173      -60.965      160.944      169.953       74.933    25902.875    28883.989     5614.922       16.707        3.020      519.663       71.014        0.019      342.657       18.217      858.317
04/30/2013  16:31:00     -139.275      307.416      -43.008       85.619      129.112       68.282     7330.554    16669.854     4662.439        7.220        1.433      337.494       64.491        0.037      342.673       18.244      858.350
04/30/2013  16:32:00      -46.089      446.771      -45.866       69.914      214.542       62.646     4887.979    46028.130     3924.568       12.933        2.742      449.142       90.228        0.040      342.509       17.966      858.352
04/30/2013  16:33:00     -159.036      407.243      -54.384      112.788       97.655       48.866    12721.181     9536.561     2387.921       10.937        1.232      437.195       36.347        0.007      342.435       17.839      858.338
04/30/2013  16:34:00      -87.046      248.109      -39.858       82.388       95.646       57.417     6787.817     9148.099     3296.723        4.497        0.962      262.935       54.922        0.044      342.802       18.462      858.330
04/30/2013  16:35:00       14.768      308.877      -37.065       88.492      194.408       65.071     7830.750    37794.483     4234.249        7.342        2.493      309.230       90.158        0.085      342.978       18.764      858.327
04/30/2013  16:36:00       72.492      368.278      -46.085      133.560      196.397       80.340    17838.243    38571.687     6454.565       10.292        3.143      375.345       98.212        0.068      342.736       18.351      858.314
04/30/2013  16:37:00       67.392      246.358       -8.695      124.888      130.503       94.685    15597.084    17031.036     8965.211        5.344        2.080      255.410       87.752        0.118      342.813       18.482      858.326
04/30/2013  16:38:00       93.526      366.322       -4.431      136.467      219.931      132.636    18623.317    48369.488    17592.260       11.375        4.229      378.073      137.807        0.133      342.689       18.271      858.345
04/30/2013  16:39:00      108.368      284.503       -9.713      153.322      194.670      120.993    23507.584    37896.412    14639.250        8.440        3.802      304.443      115.891        0.145      342.486       17.926      858.345
04/30/2013  16:40:00       39.400      337.209      -20.983      117.718      231.336       89.712    13857.470    53516.402     8048.213        9.555        3.771      339.503      120.831        0.127      342.704       18.297      858.371
04/30/2013  16:41:00      105.470      309.689       -9.897      142.047      185.735      131.177    20177.310    34497.408    17207.280        8.949        3.594      327.157      120.330        0.135      342.616       18.149      858.402
04/30/2013  16:42:00       66.058      350.345      -48.341      116.543      165.839       96.349    13582.282    27502.605     9283.035        8.989        2.518      356.518       94.861        0.071      342.547       18.030      858.428
04/30/2013  16:43:00      109.576      255.056      -12.365      153.587      150.585      108.534    23589.112    22675.936    11779.649        6.762        2.902      277.598       95.081        0.117      342.506       17.961      858.424
04/30/2013  16:44:00      -26.484      299.374      -25.644      128.308      159.507       82.822    16462.859    25442.335     6859.445        6.986        2.438      300.543       81.731        0.074      342.729       18.338      858.427
04/30/2013  16:45:00       68.601      227.576       -3.319      120.165      134.685       97.261    14439.567    18140.094     9459.708        4.927        2.102      237.691       90.230        0.144      342.717       18.319      858.424
04/30/2013  16:46:00      -42.562      330.650      -41.366       99.318       89.067       60.338     9864.127     7932.943     3640.638        6.714        1.072      333.378       46.663        0.020      342.965       18.741      858.452
04/30/2013  16:47:00       40.728      297.017      -27.683       87.045      186.729       75.112     7576.800    34867.770     5641.824        6.936        2.404      299.796       87.036        0.084      342.811       18.479      858.449
04/30/2013  16:48:00       61.817      253.195       -7.398      107.043      139.148       87.876    11458.134    19362.218     7722.116        5.326        1.927      260.632       89.527        0.118      342.675       18.248      858.427
04/30/2013  16:49:00      120.287      290.878      -14.883      141.988      169.912      117.627    20160.715    28870.109    13836.062        8.107        3.143      314.769      107.112        0.116      342.607       18.131      858.430
04/30/2013  16:50:00       41.654      268.605      -15.905      109.156      151.041       87.317    11914.980    22813.283     7624.300        5.824        2.118      271.815       87.093        0.103      342.776       18.418      858.438
04/30/2013  16:51:00       69.804      216.088      -18.109       70.374      153.946       59.812     4952.499    23699.342     3577.499        4.206        1.611      227.083       75.170        0.110      342.751       18.378      858.443
04/30/2013  16:52:00      117.663      140.160       14.802      129.539      147.950       79.173    16780.232    21889.283     6268.392        3.931        2.247      183.001       83.617        0.209      343.091       18.958      858.432
04/30/2013  16:53:00       77.046      218.609        5.700      111.820      180.502       98.973    12503.775    32581.090     9795.596        5.431        2.744      231.789      107.954        0.217      342.853       18.552      858.467
04/30/2013  16:54:00      106.638      469.440      -40.133      121.695      206.180      123.449    14809.688    42510.235    15239.656       15.294        3.628      481.400      127.139        0.070      342.544       18.026      858.468
04/30/2013  16:55:00      -29.240      357.685      -21.298      148.535      248.619      100.818    22062.722    61811.196    10164.199       11.162        4.702      358.878      126.643        0.125      342.645       18.197      858.490
04/30/2013  16:56:00     -151.761      422.687      -47.962      152.643      147.797       86.190    23299.899    21843.865     7428.795       12.827        2.629      449.105       79.342        0.031      342.544       18.024      858.485
04/30/2013  16:57:00       61.710      307.039      -31.775      159.631      166.561       96.241    25482.115    27742.553     9262.268        8.078        3.124      313.179       96.529        0.095      342.663       18.227      858.501
04/30/2013  16:58:00       17.070      154.230       -1.229      154.598      141.009       87.280    23900.674    19883.494     7617.763        3.773        2.570      155.171       71.251        0.211      342.784       18.434      858.502
04/30/2013  16:59:00       14.855      435.844      -52.592       91.163      191.097       82.923     8310.667    36518.155     6876.218       12.232        2.585      436.097       93.251        0.046      342.692       18.278      858.535
04/30/2013  17:00:00        7.985      459.779      -47.833      121.408      211.692      104.016    14739.989    44813.326    10819.265       14.205        3.519      459.848      124.625        0.073      342.618       18.151      858.532
04/30/2013  17:01:00      -68.405      318.474      -21.323      117.878      184.219       82.141    13895.321    33936.754     6747.122        8.056        2.729      325.737       97.138        0.089      342.789       18.441      858.526
04/30/2013  17:02:00      -25.958      422.345      -44.640      133.241      124.351       83.552    17753.233    15463.147     6980.933       11.061        2.010      423.142       66.872        0.025      342.840       18.527      858.539
04/30/2013  17:03:00        8.030      291.529      -19.475      113.812      184.670       87.245    12953.127    34103.023     7611.742        7.004        2.733      291.640       98.428        0.114      342.829       18.510      858.530
04/30/2013  17:04:00      -38.839      255.373       -3.216       94.557      127.531       76.111     8940.937    16264.280     5792.947        4.886        1.550      258.310       71.934        0.078      342.874       18.585      858.520
04/30/2013  17:05:00      -35.000      348.789      -37.764       97.997      261.537       81.043     9603.364    68401.359     6567.999       10.442        4.229      350.541      111.602        0.101      342.705       18.299      858.546
04/30/2013  17:06:00      -81.019      545.480      -65.142      118.242      130.422       61.197    13981.093    17009.854     3745.101       17.154        1.737      551.464       54.905        0.010      342.420       17.813      858.558
04/30/2013  17:07:00       -9.945      259.439      -22.694       81.179      154.561       75.590     6590.056    23889.079     5713.919        5.205        1.810      259.630       73.715        0.081      342.761       18.392      858.539
04/30/2013  17:08:00      137.338      199.820        2.652      187.447      126.589       94.138    35136.289    16024.727     8861.966        5.940        3.001      242.466       85.756        0.125      342.728       18.337      858.513
04/30/2013  17:09:00       98.270      280.091       -8.888      127.208      196.141      117.850    16181.832    38471.297    13888.728        7.835        3.427      296.830      123.243        0.172      342.572       18.072      858.513
04/30/2013  17:10:00       92.281      241.920       -1.116      150.951      212.653      110.374    22786.302    45221.254    12182.470        7.360        4.010      258.922      121.894        0.222      342.547       18.030      858.494
04/30/2013  17:11:00       99.606      322.260      -33.589      143.397      181.966      110.510    20562.705    33111.565    12212.395        9.038        3.294      337.303       98.898        0.086      342.692       18.276      858.503
04/30/2013  17:12:00       69.095      247.487       -8.187      131.593      180.573      114.578    17316.634    32606.448    13128.208        6.456        3.153      256.951       99.617        0.150      342.618       18.151      858.544
04/30/2013  17:13:00      186.501      194.234       39.394      137.631      134.340       97.790    18942.186    18047.202     9562.822        6.030        2.328      269.276       91.295        0.115      342.689       18.271      858.561
04/30/2013  17:14:00       59.200      396.529      -46.413      113.909      186.507       89.091    12975.346    34784.804     7937.220       10.928        2.785      400.924       91.781        0.052      342.583       18.090      858.569
04/30/2013  17:15:00      114.980      271.229      -10.212      145.489      181.871      118.269    21167.091    33077.188    13987.548        7.755        3.412      294.594      106.813        0.131      342.678       18.254      858.589
04/30/2013  17:16:00      130.294      241.219        1.393      125.293      150.903      108.261    15698.409    22771.708    11720.479        6.267        2.510      274.159      106.478        0.151      342.599       18.119      858.596
04/30/2013  17:17:00       79.314      274.246      -20.058      148.647      161.652      106.208    22095.829    26131.393    11280.075        7.069        2.975      285.485      107.457        0.142      342.705       18.298      858.595
04/30/2013  17:18:00      203.200      251.284        7.969      136.169      133.220      109.490    18541.994    17747.657    11988.092        7.638        2.414      323.162       92.313        0.082      342.590       18.103      858.606
04/30/2013  17:19:00      132.177      180.634       17.866      137.417      175.439       90.203    18883.380    30779.016     8136.670        5.410        2.890      223.829       96.179        0.185      342.709       18.306      858.644
04/30/2013  17:20:00       62.064      205.743      -24.140      142.896      131.101       67.444    20419.213    17187.522     4548.743        4.445        2.108      214.900       59.807        0.077      342.734       18.349      858.658
04/30/2013  17:21:00      -87.103      336.177      -26.775       86.029      118.147       63.323     7401.061    13958.750     4009.852        7.334        1.268      347.277       61.595        0.031      342.566       18.061      858.678
04/30/2013  17:22:00       43.028      208.730      -24.251      147.232      164.496       67.310    21677.257    27058.777     4530.596        4.963        2.663      213.119       72.804        0.117      342.664       18.229      858.660
04/30/2013  17:23:00       94.236      199.704       -5.124      153.547      118.035       68.410    23576.654    13932.188     4679.869        4.548        2.109      220.821       65.853        0.089      342.695       18.282      858.647
04/30/2013  17:24:00       64.879      247.318      -30.509      113.747      144.529       78.862    12938.322    20888.750     6219.235        5.317        2.002      255.686       77.595        0.092      342.733       18.346      858.649
04/30/2013  17:25:00       99.911      240.627      -11.978      100.669      157.205       89.503    10134.217    24713.434     8010.731        5.543        2.143      260.545       86.765        0.111      342.567       18.065      858.673
04/30/2013  17:26:00      106.099      321.055      -30.678      114.989      204.734       83.965    13222.563    41916.198     7050.043        8.872        3.109      338.132      108.713        0.103      342.620       18.154      858.685
04/30/2013  17:27:00      -10.610      316.262      -42.322      117.925      177.568       79.912    13906.236    31530.396     6385.992        7.686        2.591      316.440       86.079        0.074      342.733       18.346      858.690
04/30/2013  17:28:00       19.131      368.082      -34.946       87.792      165.795       83.535     7707.424    27487.908     6978.164        8.961        2.109      368.579       94.813        0.066      342.805       18.470      858.706
04/30/2013  17:29:00      -38.546      379.401      -37.963      109.139      138.327       68.231    11911.331    19134.402     4655.498        9.128        1.785      381.354       70.484        0.034      342.737       18.352      858.743
04/30/2013  17:30:00       39.251      380.913      -46.714       96.367      230.382       76.030     9286.518    53075.807     5780.569       10.847        3.407      382.930       95.718        0.062      342.647       18.201      858.750
04/30/2013  17:31:00        1.710      302.780      -40.961      103.222      169.220       60.899    10654.790    28635.241     3708.668        6.817        2.150      302.785       76.136        0.063      342.747       18.370      858.771
04/30/2013  17:32:00      -20.610      514.462      -61.122      120.746      168.207       86.810    14579.619    28293.603     7535.890       15.961        2.520      514.875       81.445        0.025      342.515       17.975      858.783
04/30/2013  17:33:00      -26.345      365.796      -39.142      108.287      170.297       80.213    11726.004    29000.974     6434.087        9.159        2.358      366.744       94.058        0.066      342.532       18.004      858.814
04/30/2013  17:34:00      -46.955      263.887      -27.831      129.088      139.029       60.759    16663.654    19329.078     3691.620        5.614        1.984      268.032       63.381        0.056      342.638       18.185      858.783
04/30/2013  17:35:00       93.238      184.559       -2.823      113.643      146.616       91.157    12914.671    21496.148     8309.651        4.273        2.136      206.774       76.476        0.137      342.675       18.247      858.796
04/30/2013  17:36:00      118.843      228.639       -7.273      135.490      149.494      106.772    18357.531    22348.321    11400.236        5.927        2.605      257.681       94.360        0.134      342.497       17.946      858.779
04/30/2013  17:37:00      109.711      183.580       17.555      162.027      166.199       96.281    26252.653    27622.199     9269.967        5.458        3.157      213.864       94.710        0.196      342.480       17.918      858.771
04/30/2013  17:38:00      137.221      258.009        8.225      173.254      154.726      118.325    30017.106    23940.020    14000.737        7.670        3.398      292.230      103.721        0.126      342.552       18.040      858.772
04/30/2013  17:39:00       89.597      348.015      -44.047       94.884      186.534       92.154     9003.022    34795.045     8492.407        9.168        2.615      359.363      103.352        0.083      342.495       17.942      858.799
04/30/2013  17:40:00      150.168      279.550       -7.437      158.900      142.704       90.520    25249.092    20364.442     8193.810        7.727        2.690      317.331       74.078        0.054      342.452       17.868      858.807
04/30/2013  17:41:00      175.197      226.956       -2.508      145.041      158.922      122.982    21036.822    25256.185    15124.689        7.180        3.071      286.710      109.173        0.145      342.396       17.774      858.800
04/30/2013  17:42:00       56.477      379.541      -31.852      143.954      230.451      104.577    20722.714    53107.591    10936.400       11.649        4.238      383.720      119.728        0.097      342.523       17.990      858.822
04/30/2013  17:43:00       40.870      497.623      -58.548      125.744      202.502       77.653    15811.488    41007.048     6029.928       15.777        3.142      499.298       96.898        0.038      342.392       17.765      858.854
04/30/2013  17:44:00      -53.594      400.706      -50.184       89.909      110.763       54.120     8083.622    12268.386     2928.930        9.461        1.164      404.274       43.233        0.011      342.427       17.825      858.860
04/30/2013  17:45:00      -21.789      339.188      -28.528      121.733      128.917       68.901    14818.900    16619.683     4747.341        7.625        1.809      339.887       75.631        0.050      342.487       17.926      858.857
04/30/2013  17:46:00      -79.073      422.969      -45.011       77.783      158.741       67.494     6050.222    25198.670     4555.481       11.149        1.790      430.297       78.797        0.034      342.434       17.838      858.895
04/30/2013  17:47:00      108.241      411.853      -43.495      171.595      168.368       82.971    29444.923    28347.876     6884.122       12.394        3.234      425.839       81.363        0.037      342.406       17.790      858.892
04/30/2013  17:48:00      110.191      405.657      -38.804      167.104      223.265      113.677    27923.784    49847.293    12922.360       13.443        4.535      420.357      128.755        0.094      342.243       17.513      858.891
04/30/2013  17:49:00       60.171      387.667      -47.099      104.067      199.712       83.625    10829.936    39884.724     6993.220       10.690        2.885      392.309       98.731        0.063      342.328       17.658      858.917
04/30/2013  17:50:00      122.439      178.450       13.435      108.315      132.303       95.530    11732.104    17503.985     9125.961        4.268        1.918      216.416       92.585        0.183      342.256       17.536      858.924
04/30/2013  17:51:00      177.735      237.266       -7.872      154.600      126.895      104.606    23901.089    16102.268    10942.348        6.944        2.547      296.453       79.637        0.072      342.303       17.616      858.893
04/30/2013  17:52:00      139.655      241.775        0.524      168.982      189.859      121.946    28554.878    36046.300    14870.741        7.870        3.974      279.211      114.393        0.168      342.394       17.770      858.907
04/30/2013  17:53:00       56.542      297.512      -32.044       84.026      149.106       79.463     7060.306    22232.702     6314.351        6.416        1.780      302.837       80.144        0.070      342.328       17.657      858.935
04/30/2013  17:54:00       90.446      157.660       -5.122      114.464      109.384       75.479    13101.987    11964.920     5697.040        3.191        1.538      181.761       69.859        0.148      342.317       17.639      858.938
04/30/2013  17:55:00      196.429      192.486        7.161      157.593      122.861       97.885    24835.672    15094.788     9581.561        6.259        2.476      275.018       78.461        0.081      342.311       17.628      858.938
04/30/2013  17:56:00      195.043      233.864       12.400      153.666      129.351      118.155    23613.389    16731.694    13960.630        7.359        2.715      304.523       87.703        0.083      342.211       17.458      858.927
04/30/2013  17:57:00      195.953      177.522        6.966      129.599       90.386       77.328    16795.942     8169.609     5979.613        5.045        1.547      264.408       51.615        0.038      342.288       17.589      858.917
04/30/2013  17:58:00       97.781      145.471        7.160      110.123      116.392       59.813    12127.082    13547.201     3577.651        3.001        1.463      175.280       49.966        0.081      342.368       17.727      858.910
04/30/2013  17:59:00      346.313      230.442       44.976      205.054      141.487       97.308    42047.247    20018.494     9468.790       12.328        3.577      415.976       61.669        0.022      342.336       17.672      858.923
04/30/2013  18:00:00      144.320      361.265      -19.583      183.806      152.217      109.368    33784.529    23169.979    11961.379       11.031        3.446      389.025      102.616        0.070      342.279       17.575      858.927
04/30/2013  18:01:00       88.322      176.200       -5.980      102.289      141.674       68.341    10462.959    20071.486     4670.443        3.704        1.760      197.097       59.078        0.090      342.430       17.831      858.946
04/30/2013  18:02:00      139.122      253.279      -27.371      110.167      124.518       71.632    12136.714    15504.824     5131.105        5.851        1.639      288.973       70.827        0.060      342.393       17.768      858.971
04/30/2013  18:03:00       98.218      211.520       -6.613       93.983      185.131       79.774     8832.881    34273.430     6363.830        5.194        2.474      233.211       85.084        0.133      342.363       17.718      858.982
04/30/2013  18:04:00      173.040      279.272      -19.734      142.432      166.945      105.402    20286.873    27870.696    11109.681        8.378        2.963      328.536       96.610        0.086      342.370       17.729      858.987
04/30/2013  18:05:00      124.160      332.047      -22.326      171.431      184.425      121.633    29388.705    34012.407    14794.556       10.217        3.910      354.501      104.802        0.087      342.210       17.457      858.979
04/30/2013  18:06:00      114.051      199.006        3.374      128.122      142.563       72.561    16415.130    20324.311     5265.033        4.730        2.100      229.371       63.063        0.076      342.246       17.519      858.984
04/30/2013  18:07:00       46.644      320.870      -34.325       84.521      148.284       70.868     7143.864    21988.041     5022.333        7.023        1.708      324.243       74.749        0.053      342.360       17.713      859.008
04/30/2013  18:08:00       75.237      265.597      -15.157      105.004      158.750       85.466    11025.895    25201.661     7304.404        5.997        2.177      276.047       81.665        0.088      342.380       17.747      859.031
04/30/2013  18:09:00      172.432      301.114       -1.297      191.084      128.659      104.956    36513.135    16553.248    11015.679        9.223        3.204      346.990       91.765        0.070      342.303       17.616      859.039
04/30/2013  18:10:00       71.166      164.654       19.452      133.181      144.647       88.320    17737.283    20922.877     7800.463        3.950        2.323      179.375       73.043        0.166      342.361       17.716      859.026
04/30/2013  18:11:00      106.216      157.335       19.358      121.136      103.819       82.113    14673.994    10778.432     6742.616        3.430        1.610      189.832       61.312        0.104      342.412       17.801      859.034
04/30/2013  18:12:00      135.731      140.254       11.121      131.099       99.324       70.030    17186.893     9865.301     4904.164        3.508        1.598      195.177       60.003        0.095      342.458       17.880      859.060
04/30/2013  18:13:00      107.940      173.243        1.008      100.386      113.663       79.373    10077.273    12919.204     6299.999        3.547        1.465      204.118       67.487        0.109      342.402       17.784      859.081
04/30/2013  18:14:00      107.125      143.257        9.943      124.825      108.912       80.632    15581.181    11861.902     6501.489        3.301        1.697      178.881       69.007        0.149      342.361       17.714      859.102
04/30/2013  18:15:00      252.629      186.690       35.330      174.602      114.713       97.723    30486.010    13159.158     9549.882        7.655        2.660      314.125       54.426        0.030      342.222       17.478      859.064
04/30/2013  18:16:00      106.081      191.236       -3.290      141.437      146.440       86.377    20004.512    21444.545     7461.040        4.836        2.446      218.688       63.342        0.084      342.363       17.718      859.099
04/30/2013  18:17:00       83.998      184.431       -3.280       85.273      145.905       72.486     7271.569    21288.221     5254.245        3.744        1.691      202.658       79.672        0.155      342.386       17.756      859.111
04/30/2013  18:18:00      146.154      247.329        0.303      138.256      183.708      104.706    19114.774    33748.757    10963.246        7.317        3.191      287.285      111.435        0.150      342.326       17.655      859.151
04/30/2013  18:19:00      144.663      207.487        5.477      140.037      134.426       89.235    19610.264    18070.295     7962.966        5.482        2.282      252.939       80.276        0.101      342.246       17.519      859.157
04/30/2013  18:20:00       40.973      166.502      -18.471      102.020      136.452       57.498    10408.041    18619.040     3305.998        3.103        1.617      171.469       65.499        0.146      342.391       17.765      859.167
04/30/2013  18:21:00      135.093      308.920      -16.131      116.099      217.600      114.471    13479.018    47349.767    13103.545        9.392        3.697      337.167      123.571        0.134      342.328       17.657      859.182
04/30/2013  18:22:00       98.585      185.802      -16.157      106.829      176.903       73.671    11412.418    31294.675     5427.399        4.631        2.407      210.337       93.403        0.197      342.271       17.562      859.191
04/30/2013  18:23:00      161.917      214.595        0.337      152.281      164.708      101.159    23189.511    27128.878    10233.101        6.640        3.028      268.827       91.214        0.115      342.296       17.603      859.212
04/30/2013  18:24:00      290.302      238.299       14.524      142.599      110.530       90.889    20334.615    12216.822     8260.834        9.103        2.041      375.581       57.814        0.024      342.131       17.322      859.215
04/30/2013  18:25:00      313.959      199.267       25.916      160.533      115.009       80.328    25770.947    13227.035     6452.622        9.219        2.273      371.857       51.736        0.019      342.109       17.286      859.206
04/30/2013  18:26:00      203.141      205.738       20.470      155.066      103.374       93.130    24045.513    10686.143     8673.148        6.370        2.170      289.127       74.046        0.066      342.122       17.308      859.227
04/30/2013  18:27:00      282.278      174.868       12.713      175.428      149.386       94.713    30774.952    22316.128     8970.612        8.623        3.103      332.054       53.171        0.026      342.186       17.418      859.202
04/30/2013  18:28:00      159.846      117.694        3.997      109.660       88.726       62.386    12025.310     7872.385     3891.984        3.160        1.189      198.501       34.272        0.030      342.266       17.554      859.242
04/30/2013  18:29:00      228.919      237.060       13.573      169.050      154.947      115.126    28577.860    24008.511    13253.969        8.730        3.292      329.547      108.076        0.108      342.247       17.519      859.250
04/30/2013  18:30:00      151.722      190.595       19.961      143.716      139.743      115.912    20654.284    19528.170    13435.520        5.667        2.681      243.611       90.265        0.137      342.277       17.570      859.272
04/30/2013  18:31:00      101.378      189.086       -9.332      112.275      145.837       75.155    12605.718    21268.561     5648.285        4.281        1.976      214.548       74.121        0.119      342.330       17.661      859.317
04/30/2013  18:32:00      117.646      252.522        6.154      133.099      143.822      113.278    17715.287    20684.740    12831.827        6.443        2.562      278.582      101.999        0.134      342.240       17.509      859.312
04/30/2013  18:33:00      144.847      344.524      -13.063      154.109      212.041      119.264    23749.575    44961.597    14223.946       11.137        4.147      373.735      122.037        0.107      342.194       17.430      859.323
04/30/2013  18:34:00       43.854      316.431      -17.746      135.396      203.795      103.909    18332.038    41532.425    10797.160        8.650        3.533      319.455      116.556        0.133      342.227       17.488      859.342
04/30/2013  18:35:00       48.062      227.290      -16.329      101.200      186.936       78.892    10241.404    34945.175     6224.020        5.281        2.571      232.316       99.749        0.184      342.336       17.671      859.345
04/30/2013  18:36:00       43.391      301.423      -35.234       84.665      112.284       73.928     7168.082    12607.805     5465.326        5.961        1.262      304.530       70.818        0.054      342.299       17.608      859.341
04/30/2013  18:37:00      -45.129      336.060      -17.426      103.401      159.951       75.970    10691.743    25584.424     5771.464        7.865        2.102      339.076       87.521        0.067      342.256       17.536      859.351
04/30/2013  18:38:00       -4.010      234.330       -3.568       94.630      151.045       72.476     8954.820    22814.728     5252.842        4.597        1.851      234.364       78.815        0.113      342.352       17.699      859.362
04/30/2013  18:39:00      -61.969      367.021      -41.729       75.965      126.510       57.443     5770.670    16004.894     3299.666        8.268        1.254      372.215       64.691        0.030      342.229       17.491      859.386
04/30/2013  18:40:00       82.243      209.417       -8.375      109.175      132.231       66.025    11919.152    17485.046     4359.242        4.222        1.688      224.988       77.208        0.118      342.293       17.598      859.383
04/30/2013  18:41:00      109.504      178.665       18.477      109.489      104.320       70.853    11987.931    10882.614     5020.153        3.607        1.395      209.553       61.201        0.085      342.268       17.557      859.383
04/30/2013  18:42:00       80.667      298.048      -29.034      127.220      178.285       87.217    16184.948    31785.515     7606.826        7.587        2.779      308.771       86.603        0.079      342.169       17.389      859.397
04/30/2013  18:43:00       68.555      267.975      -39.357      104.717      139.569       73.938    10965.704    19479.384     5466.855        5.698        1.796      276.605       75.446        0.074      342.138       17.335      859.415
04/30/2013  18:44:00       79.586      365.617      -31.027      125.423      197.909      102.000    15730.809    39167.833    10404.084       10.312        3.265      374.179      111.855        0.089      342.161       17.374      859.414
04/30/2013  18:45:00      127.991      245.102       -8.097      128.152      149.608       91.536    16422.904    22382.533     8378.749        6.184        2.359      276.508       92.736        0.112      342.183       17.410      859.440
04/30/2013  18:46:00      100.845      338.980      -37.310      127.881      200.069      103.915    16353.444    40027.573    10798.315        9.681        3.359      353.663      100.599        0.081      342.147       17.350      859.460
04/30/2013  18:47:00       91.112      253.828      -18.202      115.806      131.441       84.634    13411.084    17276.699     7162.951        5.545        1.893      269.685       80.459        0.089      342.169       17.388      859.490
04/30/2013  18:48:00       16.343      228.838      -32.600       77.175      154.771       59.239     5956.017    23953.949     3509.282        4.355        1.671      229.420       68.576        0.089      342.230       17.492      859.518
04/30/2013  18:49:00       65.671      311.224      -17.016      110.919      194.917       87.447    12303.104    37992.493     7646.942        7.969        2.897      318.077       99.758        0.098      342.120       17.304      859.539
04/30/2013  18:50:00      135.253      179.561       -3.474      122.092      122.662       85.665    14906.342    15045.901     7338.534        4.391        1.865      224.801       71.705        0.102      342.055       17.193      859.546
04/30/2013  18:51:00       78.063      222.874       -6.640      104.968      149.917       80.456    11018.323    22475.005     6473.099        4.788        1.998      236.150       83.231        0.124      342.003       17.107      859.535
04/30/2013  18:52:00       57.111      199.092       -6.812       90.041      100.256       63.195     8107.344    10051.257     3993.586        3.254        1.108      207.121       59.775        0.083      342.027       17.146      859.535
04/30/2013  18:53:00       46.186      233.661      -22.779       76.203      141.662       63.030     5806.825    20068.126     3972.736        4.354        1.492      238.181       78.816        0.110      342.040       17.169      859.563
04/30/2013  18:54:00       22.595      265.600      -29.566       80.493      105.894       55.398     6479.071    11213.502     3068.932        4.634        1.038      266.559       46.237        0.030      342.094       17.259      859.580
04/30/2013  18:55:00      114.052      161.352       -4.783       94.825      105.018       52.975     8991.871    11028.704     2806.326        3.094        1.141      197.591       51.877        0.069      342.080       17.237      859.588
04/30/2013  18:56:00       56.650      141.776        1.767       83.480      104.898       53.499     6968.911    11003.656     2862.102        2.207        1.042      152.675       44.665        0.086      342.075       17.228      859.607
04/30/2013  18:57:00       62.083      123.264       18.033       73.364       84.277       63.471     5382.331     7102.646     4028.595        1.794        0.826      138.016       51.650        0.140      342.073       17.226      859.629
04/30/2013  18:58:00       62.267      155.650       -9.939       86.363       85.975       61.624     7458.522     7391.668     3797.568        2.342        0.932      167.643       59.744        0.127      342.098       17.268      859.645
04/30/2013  18:59:00       83.141      174.327        8.410       96.703      133.693       69.809     9351.425    17873.738     4873.242        3.473        1.605      193.138       73.157        0.143      342.054       17.192      859.671
04/30/2013  19:00:00      195.041      184.328       10.173      152.829      120.889       83.667    23356.711    14614.227     7000.231        5.854        2.249      268.362       56.024        0.044      342.010       17.117      859.667
04/30/2013  19:01:00       86.296      166.804       13.398       92.889      118.383       91.940     8628.315    14014.554     8452.942        3.327        1.555      187.804       84.117        0.201      342.012       17.122      859.695
04/30/2013  19:02:00       14.793      369.386      -51.325       98.433      148.864       76.153     9689.071    22160.400     5799.230        8.847        1.882      369.682       89.850        0.059      342.006       17.110      859.731
04/30/2013  19:03:00       23.584      230.005        2.046       81.635      155.880       86.458     6664.257    24298.571     7475.066        4.594        1.922      231.211       94.929        0.169      341.984       17.074      859.732
04/30/2013  19:04:00       60.626      340.699       -8.998      136.592      195.896       99.236    18657.440    38375.159     9847.811        9.334        3.344      346.051      100.786        0.085      341.927       16.976      859.752
04/30/2013  19:05:00      105.694      323.603      -22.746      110.616      212.426      107.491    12235.925    45124.897    11554.259        9.265        3.446      340.426      121.289        0.127      341.907       16.943      859.762
04/30/2013  19:06:00       52.128      351.304      -37.975       94.276      210.108       86.687     8887.875    44145.539     7514.601        9.405        3.027      355.151      105.540        0.088      341.925       16.972      859.776
04/30/2013  19:07:00       64.170      327.256      -31.809      132.071      167.082       79.392    17442.739    27916.292     6303.166        8.193        2.583      333.488       81.892        0.060      341.936       16.993      859.797
04/30/2013  19:08:00      109.056      242.908      -16.926      118.161      130.998       87.105    13962.101    17160.560     7587.332        5.494        1.935      266.266       80.362        0.091      341.919       16.964      859.821
04/30/2013  19:09:00       78.031      371.878      -57.615       93.324      166.064       74.053     8709.382    27577.089     5483.784        9.473        2.089      379.977       86.077        0.051      341.907       16.942      859.820
04/30/2013  19:10:00       49.768      387.785      -56.384      115.663      198.039       84.084    13377.967    39219.318     7070.172       10.784        2.983      390.965      105.143        0.072      341.919       16.962      859.862
04/30/2013  19:11:00       -7.545      323.517      -27.938      120.964      149.633       68.189    14632.377    22390.098     4649.789        7.358        2.084      323.605       74.038        0.052      341.949       17.014      859.887
04/30/2013  19:12:00       29.714      461.781      -68.710      146.964      173.182       79.397    21598.325    29992.085     6303.897       13.836        2.895      462.736       81.667        0.031      341.927       16.976      859.917
04/30/2013  19:13:00      -81.705      569.581      -66.351      125.837      130.928       66.995    15834.948    17142.239     4488.307       18.648        1.873      575.411       70.310        0.015      341.877       16.891      859.952
04/30/2013  19:14:00      -10.242      517.066      -77.289       91.954      125.769       51.645     8455.573    15817.736     2667.178       15.018        1.347      517.167       39.677        0.006      341.878       16.891      859.968
04/30/2013  19:15:00       37.398      442.887      -61.115      103.370      190.521       93.397    10685.364    36298.371     8722.947       12.848        2.785      444.464      107.995        0.059      341.863       16.868      860.005
04/30/2013  19:16:00      -86.398      518.795      -77.231      138.748      166.767       73.773    19250.902    27811.266     5442.516       16.753        2.625      525.940       81.145        0.024      341.862       16.867      860.014
04/30/2013  19:17:00        5.332      384.217      -39.656       93.761      118.552       75.068     8791.060    14054.677     5635.278        8.885        1.424      384.254       68.224        0.032      341.885       16.905      860.032
04/30/2013  19:18:00       45.968      268.068      -22.272       87.656      120.776       67.040     7683.560    14586.832     4494.364        5.061        1.338      271.981       61.906        0.052      341.868       16.875      860.039
04/30/2013  19:19:00       97.569      131.787       19.891      141.776      119.666       77.908    20100.562    14319.849     6069.674        3.388        2.025      163.974       61.649        0.141      341.806       16.772      860.029
04/30/2013  19:20:00      119.182      377.080      -42.741      137.981      179.424       88.023    19038.690    32193.047     7747.976       10.859        2.949      395.466       98.101        0.062      341.805       16.769      860.036
04/30/2013  19:21:00       99.152      273.428      -30.373      136.925      195.151       96.618    18748.394    38083.829     9334.969        7.583        3.308      290.851      105.366        0.131      341.772       16.713      860.037
04/30/2013  19:22:00       88.478      263.498      -19.105      107.080      120.010       82.690    11466.089    14402.472     6837.585        5.516        1.635      277.956       78.986        0.081      341.768       16.706      860.060
04/30/2013  19:23:00      -20.498      394.251      -36.227      121.750      216.975       92.412    14823.000    47078.186     8539.995       11.379        3.522      394.783      119.963        0.092      341.702       16.595      860.089
04/30/2013  19:24:00       35.680      526.267      -91.030       88.234      159.264       64.245     7785.299    25365.094     4127.377       16.189        1.864      527.476       73.512        0.019      341.630       16.472      860.111
04/30/2013  19:25:00       99.112      299.046      -26.671       91.042      163.837       83.361     8288.572    26842.610     6949.059        7.101        2.104      315.042       92.051        0.085      341.591       16.407      860.112
04/30/2013  19:26:00       95.095      355.756      -54.293       97.914      156.000       74.696     9587.240    24336.107     5579.503        8.902        1.975      368.247       84.100        0.052      341.574       16.377      860.122
04/30/2013  19:27:00       80.446      303.461      -49.264       92.257      101.586       60.172     8511.360    10319.665     3620.693        6.171        1.123      313.943       59.735        0.036      341.563       16.359      860.142
04/30/2013  19:28:00       67.962      313.730      -44.014       83.340      178.692       69.467     6945.497    31930.807     4825.672        7.433        2.185      321.007       75.526        0.055      341.498       16.249      860.148
04/30/2013  19:29:00       94.034      174.324       -6.435      111.194      129.427       89.563    12364.098    16751.240     8021.555        3.820        1.857      198.069       74.111        0.140      341.465       16.194      860.175
04/30/2013  19:30:00       70.445      294.047      -33.165       90.622      136.249       74.059     8212.406    18563.808     5484.680        6.239        1.613      302.368       73.303        0.059      341.445       16.160      860.173
04/30/2013  19:31:00      116.284      251.601      -12.346      132.032      138.921       87.215    17432.408    19298.984     7606.527        6.065        2.217      277.174       86.724        0.098      341.432       16.137      860.196
04/30/2013  19:32:00      104.314      149.271        0.510      108.105      105.036       73.168    11686.593    11032.588     5353.505        3.061        1.404      182.108       61.273        0.113      341.415       16.110      860.202
04/30/2013  19:33:00      100.922      114.628       15.751       97.844       99.407       58.781     9573.415     9881.789     3455.235        2.324        1.146      152.724       51.307        0.113      341.381       16.052      860.207
04/30/2013  19:34:00      120.513      242.003      -18.135      104.919      153.627       89.774    11007.966    23601.254     8059.311        5.803        2.133      270.349       83.135        0.095      341.364       16.023      860.221
04/30/2013  19:35:00       87.453      243.263       -9.968      102.033      146.199       79.849    10410.812    21374.211     6375.816        5.253        1.908      258.505       88.053        0.116      341.340       15.981      860.242
04/30/2013  19:36:00      151.830      230.856       -0.708      156.343      121.787       82.202    24443.179    14832.123     6757.219        6.118        2.302      276.309       79.098        0.082      341.330       15.966      860.266
04/30/2013  19:37:00      115.808      282.865      -24.121       89.164      161.799       92.256     7950.183    26178.874     8511.146        6.831        2.132      305.654       94.780        0.096      341.328       15.961      860.308
04/30/2013  19:38:00       84.198      268.518      -35.782       97.089      113.694       73.929     9426.204    12926.250     5465.429        5.414        1.391      281.410       66.057        0.055      341.290       15.897      860.342
04/30/2013  19:39:00       81.183      266.966      -25.829       92.702      142.861       86.303     8593.618    20409.384     7448.126        5.748        1.823      279.036       86.443        0.096      341.267       15.859      860.362
04/30/2013  19:40:00      149.396      212.402      -21.645      109.958      124.653       72.524    12090.656    15538.458     5259.755        5.039        1.644      259.681       66.525        0.066      341.251       15.832      860.367
04/30/2013  19:41:00       89.397      341.993      -30.397      114.801      160.632      103.163    13179.362    25802.745    10642.679        8.774        2.481      353.485      102.408        0.084      341.235       15.803      860.392
04/30/2013  19:42:00      108.594      274.903      -38.185       70.600      129.765       70.766     4984.341    16838.864     5007.878        5.782        1.342      295.574       75.176        0.065      341.211       15.764      860.417
04/30/2013  19:43:00      125.503      260.685      -17.862       92.117      159.730       81.838     8485.576    25513.745     6697.522        6.235        2.035      289.323       78.872        0.074      341.202       15.748      860.432
04/30/2013  19:44:00      126.671      252.562      -26.278       90.726      158.964       82.948     8231.250    25269.490     6880.296        6.044        2.019      282.548       94.826        0.113      341.180       15.711      860.461
04/30/2013  19:45:00      160.370      261.219       -9.529      121.440      149.077      103.853    14747.613    22224.099    10785.505        7.089        2.388      306.520       96.386        0.099      341.142       15.647      860.453
04/30/2013  19:46:00      182.262      302.869      -14.938      169.157      200.977      105.765    28614.063    40391.589    11186.227       10.267        4.010      353.482       98.404        0.077      341.148       15.656      860.479
04/30/2013  19:47:00      130.466      326.117      -44.221      120.104      185.186       93.899    14424.858    34293.839     8817.111        9.142        2.877      351.246       93.687        0.071      341.137       15.636      860.495
04/30/2013  19:48:00      180.261      283.657      -24.663      147.272      160.709      108.712    21689.048    25827.531    11818.275        8.644        2.967      336.088       96.667        0.083      341.119       15.607      860.516
04/30/2013  19:49:00      121.437      260.518      -28.946      119.845      157.735       92.109    14362.816    24880.182     8484.072        6.558        2.386      287.431       91.025        0.100      341.100       15.575      860.539
04/30/2013  19:50:00      126.128      330.824      -39.872      106.462      140.964      100.712    11334.249    19870.861    10142.837        8.414        2.067      354.052       90.400        0.065      341.082       15.546      860.572
04/30/2013  19:51:00      115.496      206.518        7.808      133.375      129.346       90.087    17788.957    16730.516     8115.587        4.933        2.132      236.620       75.213        0.101      341.063       15.513      860.591
04/30/2013  19:52:00      136.041      217.724      -31.018      140.557      180.919       75.045    19756.154    32731.655     5631.692        6.248        2.906      256.732       92.230        0.129      341.032       15.460      860.597
04/30/2013  19:53:00      124.760      182.287       14.664      129.356      130.507       86.861    16733.033    17032.089     7544.805        4.515        2.065      220.892       79.339        0.129      341.019       15.439      860.609
04/30/2013  19:54:00      165.520      290.869      -17.875      123.785      175.761      115.278    15322.698    30891.912    13289.070        8.590        2.975      334.666      108.022        0.104      341.012       15.427      860.620
04/30/2013  19:55:00      112.142      322.993       -7.494      123.881      212.445      118.132    15346.592    45132.933    13955.237        9.568        3.722      341.907      129.433        0.143      341.002       15.409      860.626
04/30/2013  19:56:00      127.003      277.838      -40.129      116.166      136.640       78.392    13494.492    18670.596     6145.382        6.661        1.916      305.489       80.830        0.070      340.965       15.348      860.637
04/30/2013  19:57:00       80.469      164.677      -12.851       68.213      116.977       50.772     4653.073    13683.549     2577.833        2.733        1.046      183.286       60.935        0.111      340.926       15.284      860.654
04/30/2013  19:58:00      101.721      293.122      -22.418      100.807      191.302      101.462    10162.090    36596.572    10294.623        7.690        2.853      310.270      116.662        0.141      340.934       15.295      860.673
04/30/2013  19:59:00       73.160      214.535      -21.855       95.613      142.693       80.250     9141.756    20361.283     6440.007        4.389        1.797      226.666       90.064        0.158      340.912       15.257      860.688
04/30/2013  20:00:00      112.535      150.404       19.703      131.316      121.553       91.287    17243.764    14775.160     8333.393        3.800        2.018      187.844       72.756        0.150      340.881       15.205      860.698
04/30/2013  20:01:00       18.596      332.192      -31.706      108.446      224.284       76.652    11760.520    50303.412     5875.506        8.981        3.397      332.712       97.355        0.086      340.864       15.176      860.719
04/30/2013  20:02:00       98.798      249.959      -26.642      113.690      158.993       93.144    12925.432    25278.918     8675.797        5.991        2.344      268.776       92.217        0.118      340.852       15.154      860.724
04/30/2013  20:03:00      144.226      238.801       16.135      138.474      138.573      102.975    19175.004    19202.528    10603.770        6.352        2.449      278.975       89.048        0.102      340.844       15.140      860.758
04/30/2013  20:04:00      144.075      149.062        7.940      115.441      124.937      102.139    13326.515    15609.265    10432.464        4.120        1.968      207.309       79.745        0.148      340.823       15.106      860.777
04/30/2013  20:05:00      139.624      134.974        7.766      153.749      121.688       73.064    23638.881    14807.947     5338.287        4.077        2.189      194.198       60.670        0.098      340.792       15.055      860.786
04/30/2013  20:06:00       63.014      223.669      -28.062      109.925      142.404       74.003    12083.554    20278.910     5476.389        4.630        1.892      232.376       69.828        0.090      340.814       15.091      860.819
04/30/2013  20:07:00       60.092      165.405        0.179       80.009      113.775       68.132     6401.476    12944.852     4641.986        2.747        1.199      175.983       69.832        0.157      340.770       15.018      860.834
04/30/2013  20:08:00       49.245      293.941      -25.766       76.862      168.970       90.253     5907.742    28550.880     8145.542        6.604        2.130      298.038       89.077        0.089      340.766       15.011      860.856
04/30/2013  20:09:00       69.772      177.069      -28.934       75.435       97.468       53.945     5690.469     9500.099     2910.072        2.758        0.905      190.319       54.239        0.081      340.736       14.961      860.886
04/30/2013  20:10:00       78.142      153.850        9.336       91.588      106.982       78.096     8388.280    11445.083     6098.952        2.789        1.297      172.558       65.905        0.146      340.737       14.963      860.902
04/30/2013  20:11:00       47.048      172.949      -18.286       73.745      102.765       67.162     5438.319    10560.711     4510.793        2.648        1.025      179.234       62.071        0.120      340.722       14.936      860.933
04/30/2013  20:12:00       19.354      237.818      -23.106       57.336      103.256       60.384     3287.367    10661.871     3646.179        3.753        0.880      238.604       57.055        0.057      340.714       14.922      860.966
04/30/2013  20:13:00       83.013      255.467       -8.300       86.494      167.640       84.074     7481.291    28103.287     7068.380        5.743        2.133      268.616       94.032        0.123      340.741       14.969      860.976
04/30/2013  20:14:00       32.047      249.994      -18.933       75.386      116.656       70.768     5682.980    13608.721     5008.048        4.409        1.215      252.040       72.717        0.083      340.715       14.926      860.997
04/30/2013  20:15:00       23.289      337.643      -29.628       92.521      115.128       70.704     8560.103    13254.394     4999.017        7.111        1.341      338.445       69.484        0.042      340.721       14.933      861.011
04/30/2013  20:16:00       64.411      164.157       -5.922       94.514      148.529       75.887     8932.822    22060.919     5758.845        3.393        1.838      176.341       80.650        0.209      340.688       14.881      861.022
04/30/2013  20:17:00       52.268      235.805      -17.705       89.902      145.282       77.852     8082.303    21106.766     6060.928        4.694        1.762      241.528       77.117        0.102      340.680       14.865      861.051
04/30/2013  20:18:00       45.163      213.974       -0.815       77.712      134.323       76.755     6039.122    18042.798     5891.286        3.889        1.499      218.689       79.355        0.132      340.646       14.808      861.080
04/30/2013  20:19:00      -27.594      243.760      -18.078       85.923      111.948       61.511     7382.677    12532.330     3783.650        4.210        1.185      245.317       61.399        0.063      340.648       14.809      861.124
04/30/2013  20:20:00       40.028      358.078      -30.709      101.101      213.568       87.694    10221.426    45611.494     7690.222        9.713        3.176      360.308      108.151        0.090      340.684       14.873      861.155
04/30/2013  20:21:00       42.332      231.602      -15.511       79.866      155.502       77.856     6378.648    24180.779     6061.630        4.614        1.831      235.439       90.173        0.147      340.643       14.803      861.184
04/30/2013  20:22:00      -42.053      412.504      -44.488       93.038      124.589       61.292     8655.994    15522.317     3756.687       10.092        1.397      414.642       60.631        0.021      340.668       14.843      861.208
04/30/2013  20:23:00       47.548      219.678       -1.588       96.885      131.063       78.596     9386.708    17177.400     6177.297        4.162        1.637      224.765       78.184        0.121      340.614       14.754      861.218
04/30/2013  20:24:00       11.098      389.440      -46.942       89.856      151.900       56.632     8074.144    23073.672     3207.219        9.417        1.718      389.598       67.289        0.030      340.635       14.788      861.234
04/30/2013  20:25:00       53.492      162.017      -11.179       74.583      124.231       80.198     5562.594    15433.232     6431.731        2.833        1.371      170.619       74.189        0.189      340.564       14.669      861.258
04/30/2013  20:26:00       28.901      232.062       -6.281       84.549      163.229       90.343     7148.579    26643.857     8161.916        4.833        2.098      233.855       96.607        0.171      340.552       14.650      861.274
04/30/2013  20:27:00       35.917      250.624      -23.624       87.413      156.388       77.512     7641.070    24457.100     6008.035        5.138        1.905      253.184       79.360        0.098      340.555       14.653      861.304
04/30/2013  20:28:00       18.415      315.446      -38.284       68.763      155.924       64.433     4728.418    24312.436     4151.604        6.724        1.660      315.983       72.435        0.053      340.546       14.640      861.323
04/30/2013  20:29:00       53.136      181.407      -16.333       90.024       99.971       58.451     8104.277     9994.184     3416.487        2.875        1.076      189.029       62.326        0.109      340.557       14.657      861.350
04/30/2013  20:30:00       15.961      155.270      -11.604       57.560      146.586       49.341     3313.210    21487.597     2434.514        2.586        1.362      156.088       62.330        0.159      340.479       14.524      861.371
04/30/2013  20:31:00       57.587      118.743        8.777       79.372      108.708       55.380     6299.871    11817.468     3066.996        1.933        1.059      131.970       56.086        0.181      340.436       14.453      861.385
04/30/2013  20:32:00      -14.257      257.857       -9.058       86.939      147.593       70.469     7558.428    21783.697     4965.843        5.053        1.715      258.251       68.078        0.069      340.425       14.434      861.387
04/30/2013  20:33:00       -4.472      405.218      -33.632       94.593      189.876       73.974     8947.775    36052.805     5472.165       10.790        2.524      405.243       84.480        0.043      340.424       14.432      861.413
04/30/2013  20:34:00       79.828      288.535      -15.474      121.282      171.719       92.213    14709.258    29487.567     8503.179        7.127        2.635      299.374       94.548        0.100      340.423       14.431      861.395
04/30/2013  20:35:00       28.574      270.369      -20.032       77.878      224.067       82.384     6065.056    50205.952     6787.154        6.867        3.153      271.875      107.635        0.157      340.391       14.377      861.412
04/30/2013  20:36:00       -4.821      192.275       -3.337       67.636      148.151       64.275     4574.623    21948.832     4131.303        3.382        1.533      192.336       73.945        0.148      340.383       14.365      861.429
04/30/2013  20:37:00        6.122      311.583      -24.795       99.857      155.992       86.112     9971.499    24333.520     7415.293        6.972        2.086      311.643       91.869        0.087      340.401       14.393      861.441
04/30/2013  20:38:00       62.757      291.200      -19.630       90.846      171.134       87.597     8252.992    29286.915     7673.249        6.716        2.261      297.886       96.138        0.104      340.376       14.352      861.461
04/30/2013  20:39:00       44.092      250.136      -12.186      101.887      139.838       78.950    10380.866    19554.632     6233.059        5.041        1.808      253.992       77.139        0.092      340.345       14.300      861.480
04/30/2013  20:40:00       22.033      421.687      -49.404       97.058      187.582       71.012     9420.273    35186.883     5042.765       11.519        2.482      422.263       87.762        0.043      340.366       14.334      861.512
04/30/2013  20:41:00       48.430      256.576      -16.252       94.354      201.895       97.680     8902.617    40761.520     9541.325        6.381        2.960      261.107      116.465        0.199      340.316       14.251      861.544
04/30/2013  20:42:00       45.145      235.075       -0.200      105.190      189.004       90.446    11064.995    35722.404     8180.448        5.612        2.748      239.371       90.056        0.142      340.313       14.246      861.589
04/30/2013  20:43:00       61.911      148.000       -8.831       79.730      115.032       59.755     6356.920    13232.304     3570.627        2.448        1.158      160.427       60.121        0.140      340.248       14.135      861.633
04/30/2013  20:44:00       65.667      260.468      -15.376       73.429      197.419       81.726     5391.835    38974.246     6679.119        6.171        2.552      268.618      104.689        0.152      340.254       14.144      861.668
04/30/2013  20:45:00       64.738      161.656       14.748       92.318      114.530       78.369     8522.548    13117.201     6141.630        2.916        1.389      174.137       73.187        0.177      340.223       14.092      861.699
04/30/2013  20:46:00       31.881      297.128      -23.465       94.167      136.925       73.562     8867.359    18748.332     5411.376        6.143        1.651      298.833       67.250        0.051      340.237       14.113      861.720
04/30/2013  20:47:00       43.210      211.045        0.119      102.535      140.694       88.426    10513.498    19794.890     7819.176        4.226        1.906      215.423       86.464        0.161      340.252       14.141      861.733
04/30/2013  20:48:00      121.963      153.976        4.267      123.353      115.425       80.005    15216.006    13322.897     6400.759        3.676        1.747      196.427       72.611        0.137      340.230       14.104      861.752
04/30/2013  20:49:00       46.223      218.919      -19.330       75.537      144.122       76.170     5705.869    20771.198     5801.902        4.135        1.614      223.746       85.677        0.147      340.221       14.089      861.762
04/30/2013  20:50:00       50.568      293.442      -31.436       73.972      154.243       72.252     5471.899    23791.023     5220.341        6.206        1.724      297.767       79.033        0.070      340.215       14.079      861.783
04/30/2013  20:51:00       85.177      222.539       -2.436      117.555      176.581      107.325    13819.189    31180.920    11518.690        5.664        2.826      238.283      104.960        0.194      340.183       14.024      861.777
04/30/2013  20:52:00        9.417      257.257      -13.850       87.665      139.907       81.084     7685.223    19574.068     6574.640        5.014        1.692      257.429       82.756        0.103      340.184       14.026      861.788
04/30/2013  20:53:00       47.026      192.183       -7.181       80.009       96.586       79.832     6401.518     9328.796     6373.109        3.065        1.105      197.853       69.986        0.125      340.154       13.975      861.806
04/30/2013  20:54:00       18.308      214.176      -16.066       90.233      126.759       63.637     8141.935    16067.820     4049.669        3.736        1.413      214.957       73.408        0.117      340.135       13.944      861.827
04/30/2013  20:55:00       16.453      266.728      -20.962       99.919      122.956       74.146     9983.805    15118.182     5497.652        5.122        1.530      267.235       72.781        0.074      340.159       13.984      861.853
04/30/2013  20:56:00       10.233      215.827      -14.061       92.935      140.788       81.221     8636.962    19821.165     6596.797        4.096        1.753      216.070       89.916        0.173      340.132       13.938      861.873
04/30/2013  20:57:00       -3.019      342.334      -47.416       87.934      126.231       63.196     7732.344    15934.380     3993.768        7.355        1.383      342.348       65.740        0.037      340.131       13.935      861.902
04/30/2013  20:58:00        3.234      326.202      -22.325       85.525      148.213       66.620     7314.575    21967.208     4438.184        7.031        1.686      326.218       76.871        0.056      340.124       13.926      861.929
04/30/2013  20:59:00       32.849      352.024      -34.235      115.913      194.128      100.147    13435.812    37685.584    10029.503        9.365        3.058      353.553      111.146        0.099      340.130       13.935      861.962
04/30/2013  21:00:00       13.061      262.890       -9.772       75.715      180.269       72.533     5732.729    32496.960     5261.008        5.643        2.175      263.214       91.953        0.122      340.081       13.853      861.991
04/30/2013  21:01:00       40.002      205.902      -14.809       70.310      114.237       62.342     4943.486    13050.111     3886.475        3.304        1.094      209.752       63.937        0.093      340.034       13.774      862.034
04/30/2013  21:02:00       50.514      114.834        7.104       77.322       89.957       67.138     5978.709     8092.257     4507.555        1.718        0.929      125.453       61.992        0.244      340.015       13.743      862.070
04/30/2013  21:03:00       39.124      106.845       -0.143       57.290       77.954       53.868     3282.169     6076.815     2901.806        1.260        0.613      113.783       47.462        0.174      339.975       13.675      862.109
04/30/2013  21:04:00      127.504       85.921       10.284       83.201       63.992       52.418     6922.434     4094.989     2747.658        1.875        0.688      153.752       44.288        0.083      339.979       13.682      862.159
04/30/2013  21:05:00      118.615       85.435        9.926       76.124       72.963       44.592     5794.915     5323.606     1988.464        1.728        0.655      146.180       31.607        0.047      339.953       13.637      862.203
04/30/2013  21:06:00       86.445       67.483       19.681       52.331       38.541       37.133     2738.582     1485.447     1378.881        0.901        0.280      109.667       25.031        0.052      339.869       13.499      862.223
04/30/2013  21:07:00       66.341       79.461        9.679       77.994       57.949       46.442     6083.112     3358.126     2156.892        1.120        0.580      103.514       37.213        0.129      339.849       13.463      862.254
04/30/2013  21:08:00      123.407       86.816       14.919       66.280       38.781       39.304     4392.991     1503.990     1544.791        1.521        0.372      150.886       21.685        0.021      339.852       13.468      862.263
04/30/2013  21:09:00       94.807      101.673       -0.401       60.126       55.540       26.352     3615.153     3084.655      694.447        1.336        0.370      139.017       24.527        0.031      339.863       13.487      862.282
04/30/2013  21:10:00       54.364       81.866        0.540       46.977       46.433       40.669     2206.857     2155.987     1653.959        0.784        0.301       98.273       28.673        0.085      339.796       13.376      862.294
04/30/2013  21:11:00       97.695      128.585       10.455      102.227       76.912       53.154    10450.334     5915.440     2825.392        2.269        0.960      161.488       47.784        0.088      339.802       13.384      862.299
04/30/2013  21:12:00       50.370       92.946       -3.989       59.373       71.603       43.720     3525.095     5127.052     1911.479        1.088        0.528      105.717       41.323        0.153      339.775       13.339      862.304
04/30/2013  21:13:00       30.070      119.712       -8.283       45.652       78.359       44.234     2084.125     6140.168     1956.685        1.274        0.509      123.431       42.772        0.120      339.754       13.304      862.315
04/30/2013  21:14:00       56.141      148.513      -11.666       62.382       92.063       54.537     3891.469     8475.545     2974.246        2.034        0.767      158.770       58.985        0.138      339.753       13.301      862.320
04/30/2013  21:15:00       96.869       90.399       13.664       97.095       60.857       56.039     9427.385     3703.525     3140.320        1.700        0.814      132.498       39.123        0.087      339.749       13.295      862.340
04/30/2013  21:16:00       59.158      125.128      -10.142       68.309       94.053       63.352     4666.090     8845.935     4013.504        1.839        0.876      138.408       54.534        0.155      339.692       13.199      862.366
04/30/2013  21:17:00       63.788      186.900      -12.426       64.055      133.564       71.763     4103.020    17839.228     5149.899        3.312        1.355      197.486       78.893        0.160      339.728       13.259      862.390
04/30/2013  21:18:00      131.474       75.283       23.394       73.629       48.526       57.996     5421.173     2354.745     3363.484        1.732        0.557      151.502       37.019        0.060      339.731       13.263      862.414
04/30/2013  21:19:00       74.902      115.062       -1.364       60.309       68.238       48.100     3637.146     4656.398     2313.610        1.473        0.530      137.293       45.524        0.110      339.654       13.133      862.465
04/30/2013  21:20:00       37.499       76.470       -1.191       67.260       64.192       39.460     4523.860     4120.599     1557.087        0.873        0.510       85.169       38.684        0.206      339.586       13.021      862.501
04/30/2013  21:21:00       38.446      119.405       -1.472       59.482       60.931       56.800     3538.104     3712.591     3226.258        1.311        0.524      125.442       46.610        0.138      339.649       13.126      862.524
04/30/2013  21:22:00       37.860       81.784        2.457       41.991       50.598       39.764     1763.272     2560.127     1581.213        0.702        0.295       90.122       31.949        0.126      339.544       12.949      862.558
04/30/2013  21:23:00       29.972      117.149       -4.636       40.862       66.595       34.435     1669.699     4434.868     1185.748        1.097        0.365      120.922       37.875        0.098      339.588       13.024      862.579
04/30/2013  21:24:00       13.028      189.818      -20.634       40.736       63.569       34.266     1659.414     4040.972     1174.167        2.175        0.344      190.265       32.088        0.028      339.550       12.958      862.595
04/30/2013  21:25:00       31.407      114.375        2.716       35.566       62.732       43.278     1264.973     3935.282     1872.994        1.057        0.354      118.609       36.801        0.096      339.509       12.891      862.606
04/30/2013  21:26:00        1.834      120.022       -3.006       25.975       74.642       31.452      674.700     5571.375      989.253        1.082        0.362      120.036       39.152        0.106      339.480       12.841      862.616
04/30/2013  21:27:00       37.198      108.353      -18.002       34.924       57.957       27.558     1219.663     3358.976      759.453        0.939        0.267      114.560       25.622        0.050      339.463       12.814      862.633
04/30/2013  21:28:00       17.591      101.301       -4.928       37.951       74.526       35.064     1440.249     5554.079     1229.503        0.941        0.411      102.817       38.321        0.139      339.413       12.728      862.660
04/30/2013  21:29:00        1.123      200.777      -27.454       33.877       47.061       21.232     1147.662     2214.754      450.815        2.244        0.191      200.780       15.889        0.006      339.503       12.877      862.686
04/30/2013  21:30:00       21.334      167.002      -26.077       30.137       67.873       32.568      908.214     4606.736     1060.677        1.780        0.329      168.359       37.843        0.051      339.452       12.793      862.712
04/30/2013  21:31:00       20.515      121.583      -14.571       31.569       65.919       29.970      996.578     4345.255      898.181        1.083        0.312      123.302       34.764        0.079      339.395       12.699      862.747
04/30/2013  21:32:00       15.608      111.676       -5.580       30.782       61.140       32.814      947.507     3738.132     1076.788        0.925        0.288      112.761       35.558        0.099      339.372       12.659      862.770
04/30/2013  21:33:00        2.050      165.822      -21.511       22.377       32.596       15.559      500.723     1062.498      242.087        1.488        0.090      165.835       13.307        0.006      339.464       12.815      862.806
04/30/2013  21:34:00       10.353      134.785       -5.049       54.489       99.185       49.055     2969.046     9837.610     2406.424        1.675        0.761      135.182       53.759        0.158      339.401       12.709      862.817
04/30/2013  21:35:00        8.152      154.029      -19.477       43.752       82.432       37.057     1914.263     6794.962     1373.191        1.712        0.504      154.245       45.251        0.086      339.459       12.806      862.838
04/30/2013  21:36:00      -18.985      143.638      -19.773       45.521       43.525       28.236     2072.177     1894.438      797.245        1.307        0.238      144.887       24.877        0.029      339.473       12.829      862.871
04/30/2013  21:37:00       11.766      130.433      -19.308       27.788       32.142       22.287      772.180     1033.104      496.702        0.991        0.115      130.963       16.001        0.015      339.454       12.797      862.891
04/30/2013  21:38:00       -1.552      215.572      -29.518       36.884       43.604       20.536     1360.434     1901.331      421.710        2.551        0.184      215.578       15.691        0.005      339.445       12.781      862.909
04/30/2013  21:39:00       -6.389      166.606      -24.520       29.787       42.619       22.731      887.238     1816.354      516.703        1.581        0.161      166.728       21.448        0.017      339.396       12.699      862.943
04/30/2013  21:40:00        2.027      212.149      -31.775       29.543       37.981       23.012      872.800     1442.544      529.571        2.443        0.142      212.159       16.812        0.006      339.414       12.729      862.962
04/30/2013  21:41:00      -42.909      182.687      -21.329       67.446       66.309       32.291     4548.910     4396.876     1042.717        2.283        0.499      187.659       24.723        0.017      339.371       12.655      862.978
04/30/2013  21:42:00       20.263      260.945      -42.784       52.507       74.777       27.856     2756.947     5591.531      775.931        3.973        0.456      261.730       24.414        0.009      339.326       12.579      863.005
04/30/2013  21:43:00        4.805      170.939      -19.447       60.684       74.708       36.457     3682.526     5581.224     1329.119        2.010        0.530      171.007       38.250        0.050      339.261       12.470      863.034
04/30/2013  21:44:00       11.474      228.469      -27.410       63.380      103.223       40.145     4017.004    10655.085     1611.629        3.468        0.814      228.757       39.466        0.030      339.260       12.468      863.076
04/30/2013  21:45:00       10.212      221.389      -24.002       51.934       75.518       36.900     2697.090     5702.943     1361.614        2.973        0.488      221.624       34.141        0.024      339.270       12.487      863.114
04/30/2013  21:46:00       16.588      189.018      -27.965       61.965       94.026       41.591     3839.634     8840.963     1729.829        2.559        0.721      189.744       50.317        0.070      339.227       12.412      863.143
04/30/2013  21:47:00       17.731      214.405      -18.752       73.278       83.695       46.723     5369.680     7004.934     2183.072        3.059        0.728      215.137       42.917        0.040      339.211       12.385      863.186
04/30/2013  21:48:00        7.217      201.071      -25.346       46.096       60.093       30.576     2124.832     3611.153      934.879        2.390        0.334      201.201       31.438        0.024      339.230       12.417      863.205
04/30/2013  21:49:00       13.114      154.371      -14.768       38.694       75.476       35.061     1497.191     5696.622     1229.251        1.632        0.421      154.927       42.133        0.074      339.176       12.328      863.224
04/30/2013  21:50:00        1.641      199.451      -28.996       45.458       65.262       28.480     2066.399     4259.162      811.106        2.388        0.357      199.458       30.041        0.023      339.223       12.408      863.247
04/30/2013  21:51:00       -8.301      156.572      -13.364       49.961       61.887       38.922     2496.094     3829.959     1514.951        1.630        0.392      156.792       31.633        0.041      339.179       12.335      863.250
04/30/2013  21:52:00        0.250      146.057      -12.986       56.095       91.879       43.005     3146.655     8441.813     1849.416        1.747        0.672      146.057       50.188        0.118      339.183       12.341      863.271
04/30/2013  21:53:00       26.064      168.885      -12.605       59.987       77.753       37.674     3598.442     6045.508     1419.304        2.021        0.553      170.884       34.420        0.041      339.175       12.327      863.279
04/30/2013  21:54:00       22.642      179.153       -4.244       73.383      100.589       58.470     5385.037    10118.084     3418.785        2.577        0.946      180.578       57.460        0.101      339.148       12.281      863.291
04/30/2013  21:55:00       26.741      178.955      -13.923       55.305       89.224       50.483     3058.644     7960.952     2548.573        2.325        0.678      180.942       53.851        0.089      339.084       12.173      863.297
04/30/2013  21:56:00      -44.086      227.482      -17.403       61.692      106.163       53.665     3805.913    11270.561     2879.969        3.597        0.898      231.714       59.866        0.067      339.082       12.168      863.303
04/30/2013  21:57:00       10.849      241.170      -29.775       56.465       61.214       37.942     3188.301     3747.151     1439.577        3.377        0.419      241.414       29.408        0.015      339.089       12.179      863.307
04/30/2013  21:58:00       46.416      174.915       -1.084       72.440      110.440       72.812     5247.553    12196.892     5301.535        2.774        1.137      180.969       73.986        0.167      339.056       12.125      863.317
04/30/2013  21:59:00       23.488      172.426      -14.619       56.193       57.774       49.334     3157.598     3337.833     2433.869        1.971        0.446      174.018       43.390        0.062      339.035       12.091      863.334
04/30/2013  22:00:00       47.706      177.715      -10.351       64.977      126.112       59.013     4222.066    15904.253     3482.536        2.878        1.180      184.007       72.518        0.155      339.041       12.102      863.357
04/30/2013  22:01:00       40.595       69.533        7.854       54.284       46.643       38.836     2946.771     2175.535     1508.214        0.659        0.332       80.516       36.585        0.206      338.965       11.974      863.394
04/30/2013  22:02:00        4.285      290.909      -36.076       40.745       91.696       31.626     1660.125     8408.225     1000.183        4.851        0.553      290.941       31.853        0.012      339.044       12.104      863.422
04/30/2013  22:03:00       21.761      123.957      -20.241       47.830       34.508       29.663     2287.728     1190.822      879.873        1.030        0.218      125.852       16.225        0.017      338.971       11.985      863.451
04/30/2013  22:04:00       29.153      228.669      -35.488       53.548       64.988       41.936     2867.347     4223.454     1758.590        3.162        0.442      230.519       45.003        0.038      338.973       11.984      863.469
04/30/2013  22:05:00       17.041      173.405      -18.892       41.820       69.177       36.054     1748.889     4785.491     1299.867        1.927        0.392      174.241       35.256        0.041      338.930       11.914      863.503
04/30/2013  22:06:00       35.512      133.220       -4.303       51.082       66.777       47.352     2609.331     4459.221     2242.200        1.417        0.466      137.872       37.544        0.074      338.894       11.855      863.520
04/30/2013  22:07:00       27.622      137.088        0.430       41.027       93.172       47.246     1683.252     8681.052     2232.191        1.607        0.630      139.843       50.397        0.130      338.898       11.860      863.536
04/30/2013  22:08:00       50.120      126.642        2.125       51.998       90.162       55.374     2703.817     8129.133     3066.289        1.622        0.695      136.199       57.482        0.178      338.878       11.829      863.537
04/30/2013  22:09:00       23.636      165.647      -11.358       56.874      119.358       51.565     3234.632    14246.288     2658.942        2.413        1.007      167.325       59.318        0.126      338.875       11.823      863.546
04/30/2013  22:10:00       33.924      148.565      -11.450       49.933       96.668       48.257     2493.310     9344.696     2328.725        1.876        0.708      152.389       58.067        0.145      338.829       11.746      863.554
04/30/2013  22:11:00       18.647      215.699      -17.689       56.666       78.909       47.531     3210.999     6226.660     2259.168        2.944        0.585      216.503       47.566        0.048      338.826       11.739      863.559
04/30/2013  22:12:00       17.392      195.566       -5.862       73.259       90.092       57.601     5366.860     8116.619     3317.926        2.769        0.840      196.338       52.313        0.071      338.785       11.670      863.570
04/30/2013  22:13:00       -6.355      131.685        8.558       51.175       72.378       41.651     2618.865     5238.549     1734.836        1.352        0.480      131.839       38.993        0.087      338.724       11.570      863.581
04/30/2013  22:14:00       16.258      199.729      -18.677       52.366       76.007       45.972     2742.153     5777.069     2113.415        2.557        0.532      200.390       45.473        0.051      338.772       11.648      863.585
04/30/2013  22:15:00       10.691      201.022      -25.320       51.738       53.973       32.733     2676.772     2913.138     1071.443        2.391        0.333      201.306       29.703        0.022      338.805       11.703      863.583
04/30/2013  22:16:00       13.978      159.980      -18.275       34.995       55.498       31.150     1224.681     3080.012      970.302        1.570        0.264      160.589       33.867        0.044      338.783       11.669      863.588
04/30/2013  22:17:00       11.113      129.421      -10.658       33.799       45.375       30.258     1142.393     2058.863      915.545        1.055        0.206      129.898       30.939        0.057      338.798       11.695      863.590
04/30/2013  22:18:00       17.355      179.023      -30.252       39.780       66.083       29.644     1582.442     4366.970      878.792        2.005        0.341      179.862       34.587        0.037      338.853       11.785      863.611
04/30/2013  22:19:00      -18.511      111.810      -17.307       42.979       48.218       24.060     1847.190     2324.970      578.877        0.895        0.238      113.332       17.939        0.025      338.839       11.764      863.636
04/30/2013  22:20:00        0.159      138.644      -18.587       53.347       59.172       30.618     2845.865     3501.356      937.486        1.342        0.364      138.644       28.494        0.042      338.829       11.747      863.663
04/30/2013  22:21:00       23.952       87.944       18.026       58.893       58.195       55.088     3468.345     3386.672     3034.636        0.926        0.494       91.147       48.451        0.283      338.784       11.670      863.686
04/30/2013  22:22:00        3.048      109.868       -1.217       50.686       54.809       34.531     2569.073     3004.039     1192.420        0.942        0.338      109.910       32.520        0.088      338.739       11.595      863.700
04/30/2013  22:23:00       32.995      146.262      -17.552       44.261       82.600       36.833     1959.043     6822.812     1356.690        1.646        0.507      149.937       43.075        0.083      338.730       11.579      863.711
04/30/2013  22:24:00       23.456      100.232       -2.574       30.312       56.592       34.724      918.839     3202.702     1205.721        0.796        0.266      102.940       29.376        0.081      338.678       11.492      863.729
04/30/2013  22:25:00       58.359      115.091       -9.626       73.714       74.931       50.316     5433.788     5614.722     2531.661        1.516        0.679      129.042       51.035        0.156      338.648       11.442      863.725
04/30/2013  22:26:00       26.070      126.346       -0.791       42.393       92.728       42.648     1797.146     8598.529     1818.838        1.443        0.611      129.008       47.867        0.138      338.641       11.430      863.734
04/30/2013  22:27:00       40.008      151.678      -18.348       52.930       72.650       36.605     2801.595     5278.080     1339.950        1.718        0.471      156.865       40.045        0.065      338.626       11.404      863.735
04/30/2013  22:28:00       11.232      144.988       -4.907       50.088       95.973       43.385     2508.776     9210.768     1882.293        1.738        0.680      145.422       45.000        0.096      338.568       11.306      863.755
04/30/2013  22:29:00       38.736      161.407      -18.901       53.396       51.999       38.143     2851.139     2703.903     1454.853        1.746        0.350      165.990       38.584        0.054      338.565       11.301      863.779
04/30/2013  22:30:00       33.600       97.929        7.484       57.300       86.256       37.300     3283.248     7440.071     1391.311        1.144        0.606      103.533       42.068        0.165      338.509       11.209      863.805
04/30/2013  22:31:00       26.998      127.425      -15.317       37.254       67.528       29.812     1387.846     4559.994      888.778        1.202        0.342      130.253       31.938        0.060      338.513       11.215      863.845
04/30/2013  22:32:00       30.621      117.718       -3.214       51.292       88.200       44.046     2630.900     7779.254     1940.027        1.358        0.618      121.635       47.337        0.151      338.501       11.193      863.885
04/30/2013  22:33:00       19.694       41.749       12.954       45.036       44.434       38.079     2028.245     1974.381     1449.999        0.387        0.273       46.161       29.932        0.420      338.448       11.107      863.914
04/30/2013  22:34:00       27.703       94.969       -1.770       46.342       81.453       41.925     2147.595     6634.514     1757.690        1.016        0.527       98.927       46.892        0.225      338.496       11.187      863.947
04/30/2013  22:35:00       14.628      193.983      -23.377       42.051       45.337       27.902     1768.268     2055.415      778.517        2.150        0.230      194.534       22.753        0.014      338.519       11.224      863.968
04/30/2013  22:36:00       24.683      268.594      -40.081       62.106       73.161       48.663     3857.152     5352.570     2368.130        4.297        0.579      269.725       40.999        0.023      338.590       11.341      863.958
04/30/2013  22:37:00       26.327      140.520      -12.438       61.902      101.076       54.934     3831.865    10216.441     3017.706        1.883        0.853      142.965       54.096        0.143      338.512       11.213      863.970
04/30/2013  22:38:00       30.833      207.241      -25.614       56.370       91.494       43.507     3177.595     8371.206     1892.856        2.900        0.672      209.522       50.377        0.058      338.551       11.276      863.961
04/30/2013  22:39:00        1.785      245.657      -30.599       68.308       84.632       36.679     4666.004     7162.643     1345.338        3.723        0.659      245.663       35.174        0.021      338.595       11.350      863.973
04/30/2013  22:40:00       -7.631      211.487      -35.434       39.426       44.526       24.158     1554.425     1982.539      583.615        2.508        0.206      211.625       18.096        0.007      338.643       11.431      863.977
04/30/2013  22:41:00       -4.776      178.398      -11.285       61.537       87.994       49.773     3786.789     7743.014     2477.341        2.299        0.700      178.461       51.344        0.083      338.573       11.313      863.986
04/30/2013  22:42:00      -41.604      226.985      -26.578       42.968       78.402       33.600     1846.213     6146.950     1128.948        3.154        0.456      230.766       33.498        0.021      338.587       11.336      863.985
04/30/2013  22:43:00      -42.773      230.793      -21.141       59.920       77.267       36.577     3590.414     5970.191     1337.848        3.322        0.545      234.723       36.504        0.024      338.607       11.372      863.971
04/30/2013  22:44:00      -78.924      249.633      -26.544       68.333      128.681       35.003     4669.435    16558.746     1225.238        4.585        1.123      261.812       35.494        0.018      338.624       11.400      863.955
04/30/2013  22:45:00      -57.021      357.468      -48.012       64.894      113.306       47.935     4211.294    12838.142     2297.764        7.634        0.967      361.987       43.241        0.014      338.640       11.426      863.949
04/30/2013  22:46:00      -21.042      308.173      -28.709       81.409      122.017       53.815     6627.402    14888.034     2896.104        6.032        1.221      308.890       60.732        0.039      338.574       11.315      863.951
04/30/2013  22:47:00        1.615      330.922      -47.814       54.874      125.940       48.600     3011.149    15860.890     2361.928        6.651        1.062      330.926       57.914        0.031      338.568       11.304      863.952
04/30/2013  22:48:00      -57.626      306.696      -33.307       63.078       78.805       41.492     3978.816     6210.273     1721.562        5.520        0.596      312.063       34.409        0.012      338.563       11.296      863.980
04/30/2013  22:49:00      -82.849      333.171      -39.952       94.548       96.888       53.090     8939.381     9387.351     2818.587        7.030        1.057      343.317       52.210        0.023      338.556       11.285      863.990
04/30/2013  22:50:00     -133.421      263.744      -35.103       71.355      113.620       43.511     5091.484    12909.480     1893.196        5.424        0.995      295.571       35.907        0.015      338.572       11.311      863.992
04/30/2013  22:51:00      -46.871      258.535      -23.049       76.478       99.421       50.742     5848.842     9884.500     2574.738        4.393        0.915      262.749       51.537        0.038      338.534       11.249      863.999
04/30/2013  22:52:00       -6.347      290.720      -30.588       77.516       87.301       56.139     6008.744     7621.539     3151.607        5.113        0.839      290.789       49.117        0.029      338.540       11.257      864.004
04/30/2013  22:53:00       -3.503      400.693      -50.268       66.405      107.677       49.306     4409.656    11594.371     2431.058        9.076        0.922      400.709       52.321        0.017      338.565       11.299      864.006
04/30/2013  22:54:00        2.575      331.443      -36.589       70.205       71.375       45.798     4928.801     5094.397     2097.468        6.166        0.606      331.453       39.660        0.014      338.480       11.159      864.011
04/30/2013  22:55:00       22.943      301.321      -38.382       68.695      142.386       65.419     4718.958    20273.800     4279.659        6.103        1.464      302.193       81.349        0.072      338.470       11.141      864.035
04/30/2013  22:56:00       14.989      177.233        7.190       59.786      102.876       64.910     3574.307    10583.376     4213.291        2.503        0.919      177.866       65.521        0.136      338.437       11.085      864.056
04/30/2013  22:57:00        5.392      267.113      -25.497       65.511       78.354       43.944     4291.652     6139.418     1931.084        4.219        0.618      267.167       41.015        0.024      338.447       11.100      864.081
04/30/2013  22:58:00       29.842      134.111       -2.009       58.309       98.893       55.870     3399.951     9779.791     3121.497        1.759        0.815      137.391       58.011        0.178      338.395       11.016      864.080
04/30/2013  22:59:00       59.822      105.309      -19.694       57.112       67.034       34.003     3261.794     4493.516     1156.231        1.198        0.446      121.114       31.077        0.066      338.413       11.046      864.093
04/30/2013  23:00:00       -6.304      156.551       -2.490       54.574       85.968       44.616     2978.363     7390.500     1990.587        1.845        0.618      156.678       46.325        0.087      338.355       10.949      864.092
04/30/2013  23:01:00       55.905       83.879       18.166       72.906       64.036       44.711     5315.350     4100.636     1999.071        1.095        0.571      100.803       41.208        0.167      338.316       10.884      864.097
04/30/2013  23:02:00       52.448      207.316      -22.580       78.950       74.428       52.405     6233.154     5539.508     2746.250        3.038        0.726      213.847       44.576        0.043      338.330       10.905      864.115
04/30/2013  23:03:00        6.651      213.427      -10.934       76.993      124.134       76.865     5927.885    15409.219     5908.237        3.647        1.362      213.531       81.824        0.147      338.284       10.828      864.134
04/30/2013  23:04:00       39.944      112.059       11.057       76.103      101.510       69.890     5791.704    10304.330     4884.675        1.762        1.049      118.965       63.146        0.282      338.243       10.761      864.179
04/30/2013  23:05:00       20.882      140.709        2.770       71.394       87.245       66.807     5097.077     7611.716     4463.171        1.870        0.859      142.250       53.269        0.140      338.212       10.708      864.185
04/30/2013  23:06:00       37.872      160.368        4.311       77.034      127.777       80.486     5934.223    16327.000     6477.953        2.795        1.437      164.779       83.958        0.260      338.294       10.846      864.207
04/30/2013  23:07:00       92.728      117.853        4.118       78.632      103.549       49.271     6182.954    10722.346     2427.603        2.091        0.967      149.960       50.481        0.113      338.284       10.829      864.211
04/30/2013  23:08:00       73.250       33.652        2.964       58.670       37.170       28.391     3442.114     1381.609      806.066        0.607        0.281       80.610       17.141        0.045      338.230       10.740      864.234
04/30/2013  23:09:00       96.983       66.543       23.221       57.774       35.920       37.532     3337.878     1290.250     1408.670        1.020        0.302      117.617       10.642        0.008      338.251       10.776      864.260
04/30/2013  23:10:00       97.221       57.891       23.054       51.457       40.782       40.256     2647.850     1663.210     1620.510        0.963        0.297      113.152       23.930        0.045      338.309       10.873      864.287
04/30/2013  23:11:00       56.817       66.581       11.717       69.175       46.009       36.802     4785.113     2116.816     1354.411        0.803        0.413       87.528       38.098        0.189      338.185       10.665      864.293
04/30/2013  23:12:00       95.134       87.448        5.754       74.054       41.961       36.521     5483.970     1760.721     1333.772        1.265        0.429      129.220       23.428        0.033      338.113       10.543      864.311
04/30/2013  23:13:00      183.823      110.381       19.389       51.649       54.256       47.762     2667.578     2943.698     2281.237        2.712        0.395      214.418       39.041        0.033      338.278       10.818      864.310
04/30/2013  23:14:00      111.862       90.143       46.107       65.847       40.825       44.682     4335.770     1666.684     1996.525        1.538        0.400      143.662       44.791        0.097      338.243       10.762      864.312
04/30/2013  23:15:00      119.130       90.569       55.028       57.159       44.316       44.930     3267.167     1963.932     2018.744        1.633        0.362      149.648       25.206        0.028      338.182       10.659      864.331
04/30/2013  23:16:00      111.798       64.415       32.998       39.595       32.019       52.203     1567.759     1025.228     2725.126        1.153        0.266      129.028       33.080        0.066      338.206       10.700      864.358
04/30/2013  23:17:00      111.171       67.465       37.608       38.785       22.129       39.181     1504.280      489.687     1535.169        1.093        0.176      130.040       23.959        0.034      338.178       10.651      864.370
04/30/2013  23:18:00      118.830      135.937        1.115       92.825       83.855       54.451     8616.456     7031.734     2964.912        2.560        0.931      180.553       42.741        0.056      338.129       10.568      864.394
04/30/2013  23:19:00       86.528       62.010       14.616       72.370       42.023       33.828     5237.364     1765.958     1144.320        0.985        0.407      106.453       28.933        0.074      338.072       10.474      864.403
04/30/2013  23:20:00       93.242       69.776       12.395       49.395       47.095       32.421     2439.846     2217.979     1051.098        0.971        0.285      116.459       32.039        0.076      338.075       10.481      864.417
04/30/2013  23:21:00       52.398       41.028       15.009       41.491       36.898       24.902     1721.513     1361.485      620.107        0.418        0.185       66.549       22.616        0.115      337.968       10.300      864.446
04/30/2013  23:22:00       50.229       82.825       -6.741       30.954       38.984       28.201      958.140     1519.714      795.298        0.635        0.164       96.865       22.806        0.055      338.024       10.394      864.463
04/30/2013  23:23:00       15.985      177.083      -25.598       35.132       95.924       34.384     1234.276     9201.360     1182.253        2.194        0.581      177.803       44.695        0.063      338.078       10.483      864.475
04/30/2013  23:24:00       18.354      155.637      -10.918       42.310       79.024       41.139     1790.144     6244.779     1692.399        1.720        0.486      156.716       45.772        0.085      338.027       10.399      864.492
04/30/2013  23:25:00       24.714       59.406       -3.722       29.414       32.478       23.650      865.197     1054.790      559.309        0.332        0.124       64.342       16.428        0.065      337.992       10.341      864.491
04/30/2013  23:26:00      -16.459      195.279      -29.776       50.139       76.928       27.519     2513.917     5917.892      757.278        2.424        0.459      195.971       33.759        0.030      338.136       10.580      864.486
04/30/2013  23:27:00      -19.872      284.805      -30.627       69.647       68.379       35.640     4850.685     4675.672     1270.222        4.662        0.540      285.498       32.138        0.013      338.138       10.581      864.480
04/30/2013  23:28:00       15.224      169.544        1.016       67.075      118.034       58.649     4499.073    13932.138     3439.688        2.542        1.094      170.226       62.136        0.133      338.143       10.592      864.489
04/30/2013  23:29:00       22.308      150.050      -19.521       37.904       63.680       33.194     1436.698     4055.121     1101.832        1.499        0.330      151.699       35.534        0.055      338.151       10.607      864.484
04/30/2013  23:30:00       45.293      105.786       -6.505       34.835       63.678       28.652     1213.461     4054.864      820.948        0.969        0.304      115.075       34.409        0.089      338.099       10.521      864.491
04/30/2013  23:31:00       20.762      108.871       -2.176       48.695       65.130       43.471     2371.213     4241.893     1889.710        1.039        0.425      110.833       44.509        0.161      338.086       10.498      864.506
04/30/2013  23:32:00       27.649       59.907       -3.040       35.012       35.972       31.705     1225.873     1293.964     1005.192        0.394        0.176       65.979       21.189        0.103      337.945       10.262      864.532
04/30/2013  23:33:00       -5.584       61.484        5.072       42.557       43.121       27.770     1811.126     1859.435      771.183        0.414        0.222       61.737       28.147        0.208      338.049       10.437      864.544
04/30/2013  23:34:00       29.426       62.063       -4.403       32.080       37.490       22.871     1029.144     1405.518      523.101        0.385        0.148       68.685       25.173        0.134      338.007       10.367      864.567
04/30/2013  23:35:00       20.066      181.150      -26.635       55.237       61.873       34.760     3051.117     3828.260     1208.256        2.101        0.404      182.258       27.433        0.023      338.082       10.490      864.586
04/30/2013  23:36:00        5.651      170.434      -12.194       67.949       84.445       40.189     4617.006     7130.903     1615.156        2.129        0.668      170.528       36.770        0.046      338.002       10.356      864.595
04/30/2013  23:37:00       38.825       80.101      -15.178       39.217       62.913       27.128     1537.982     3958.057      735.950        0.719        0.312       89.014       30.057        0.114      337.963       10.292      864.622
04/30/2013  23:38:00       33.686       11.891        8.667       32.791       19.256       17.333     1075.231      370.782      300.447        0.155        0.087       35.723        8.087        0.051      337.846       10.095      864.645
04/30/2013  23:39:00       30.146       89.212       -9.771       33.960       65.124       29.799     1153.266     4241.109      887.992        0.762        0.314       94.167       27.734        0.087      337.965       10.297      864.681
04/30/2013  23:40:00       19.698      114.910      -11.745       40.328       53.990       31.511     1626.331     2914.900      992.917        0.963        0.277      116.586       20.098        0.030      337.909       10.202      864.695
04/30/2013  23:41:00       29.732      142.187        5.385       74.416       80.022       48.724     5537.716     6403.574     2374.025        1.772        0.716      145.262       48.299        0.111      337.951       10.270      864.692
04/30/2013  23:42:00       12.128      102.360        0.725       39.514       65.136       44.889     1561.344     4242.641     2015.036        0.922        0.391      103.076       46.173        0.201      337.868       10.131      864.693
04/30/2013  23:43:00       56.525      121.080        0.253       62.896       75.527       46.464     3955.854     5704.396     2158.892        1.483        0.591      133.624       48.945        0.134      337.953       10.275      864.691
04/30/2013  23:44:00       17.127      145.990      -14.858       33.238       51.666       27.340     1104.758     2669.385      747.470        1.317        0.226      146.991       25.891        0.031      337.969       10.303      864.692
04/30/2013  23:45:00      -21.001      138.095      -19.878       23.969       44.019       18.784      574.496     1937.699      352.857        1.139        0.143      139.683       21.434        0.024      338.023       10.392      864.703
04/30/2013  23:46:00      -12.214      159.523      -22.340       33.346       48.069       22.198     1111.944     2310.640      492.752        1.500        0.196      159.990       18.348        0.013      338.032       10.406      864.723
04/30/2013  23:47:00      -29.602       80.358       -9.017       42.935       42.908       23.455     1843.373     1841.078      550.149        0.582        0.212       85.637       23.652        0.076      338.068       10.469      864.734
04/30/2013  23:48:00       24.421       64.133       -1.161       29.353       22.696       19.735      861.582      515.113      389.457        0.324        0.088       68.625       15.553        0.051      337.955       10.278      864.737
04/30/2013  23:49:00       42.531       38.011      -14.121       24.588       20.228       18.917      604.557      409.188      357.834        0.241        0.069       57.041        8.395        0.022      337.992       10.342      864.749
04/30/2013  23:50:00       23.928       51.816        9.747       24.389       38.591       26.136      594.823     1489.286      683.089        0.306        0.138       57.074       25.701        0.203      337.867       10.131      864.760
04/30/2013  23:51:00       28.639      118.966      -18.496       25.699       46.250       25.298      660.463     2139.050      640.004        0.938        0.172      122.364       26.700        0.048      337.903       10.191      864.782
04/30/2013  23:52:00       24.754      112.462      -11.902       30.268       49.233       26.244      916.135     2423.890      688.773        0.871        0.201      115.154       27.648        0.058      337.824       10.060      864.793
04/30/2013  23:53:00       32.354       76.339       -1.966       26.792       46.342       29.462      717.800     2147.600      867.987        0.531        0.187       82.912       29.991        0.131      337.793       10.006      864.814
04/30/2013  23:54:00       34.128       74.317        6.188       39.504       36.450       32.384     1560.553     1328.631     1048.745        0.533        0.197       81.779       23.386        0.082      337.809       10.034      864.831
04/30/2013  23:55:00       28.851       95.532       -1.886       33.110       49.813       31.990     1096.240     2481.345     1023.356        0.728        0.230       99.793       31.938        0.102      337.759        9.951      864.836
04/30/2013  23:56:00       21.890       64.950       -0.662       32.384       42.714       25.902     1048.702     1824.448      670.926        0.412        0.177       68.540       26.402        0.148      337.751        9.935      864.849
04/30/2013  23:57:00       41.567       39.144        1.972       29.273       32.563       23.644      856.933     1060.325      559.043        0.287        0.124       57.097       20.127        0.124      337.772        9.972      864.862
04/30/2013  23:58:00       15.371       33.451       -4.639       22.126       21.613       13.602      489.563      467.124      185.015        0.126        0.057       36.814       10.602        0.083      337.722        9.886      864.853
04/30/2013  23:59:00       52.515       42.122        4.145       20.140       19.064       14.607      405.631      363.430      213.354        0.277        0.049       67.320       10.448        0.024      337.778        9.982      864.849
